[[{"header":{"parameterUnit":"m.s-1","parameterCategory":1,"la1":31.0,"la2":29.5877,"lo1":-88.7671,"lo2":-86.6584,"dy":0.0162,"dx":0.0185,"nx":115,"ny":88,"refTime":"2024-10-10T18:00:00:Z","depth":0,"parameterNumber":2,"parameterNumberName":"U-component_of_WINDS"},"data":[0.0,0.0,0.0,0.0,0.0,0.0,0.0,0.0,0.0,0.0,0.0,0.0,0.0,0.0,0.0,0.0,0.0,0.0,0.0,0.0,0.0,0.0,0.0,0.0,0.0,0.0,0.0,0.0,0.0,0.0,0.0,0.0,0.0,0.0,0.0,0.0,0.0,0.0,0.0,0.0,0.0,0.0,0.0,0.0,0.0,0.0,0.0,0.0,0.0,0.0,0.0,0.0,0.0,0.0,0.0,0.0,0.0,0.0,0.0,0.0,0.0,0.0,0.0,0.0,0.0,0.0,0.0,0.0,0.0,0.0,0.0,0.0,0.0,0.0,0.0,0.0,0.0,0.0,0.0,0.0,0.0,0.0,0.0,0.0,0.0,0.0,0.0,0.0,0.0,0.0,0.0,0.0,0.0,0.0,0.0,0.0,0.0,0.0,0.0,0.0,0.0,0.0,0.0,0.0,0.0,0.0,0.0,0.0,0.0,0.0,0.0,0.0,0.0,0.0,0.0,0.0,0.0,0.0,0.0,0.0,0.0,0.0,0.0,0.0,0.0,0.0,0.0,0.0,0.0,0.0,0.0,0.0,0.0,0.0,0.0,0.0,0.0,0.0,0.0,0.0,0.0,0.0,0.0,0.0,0.0,0.0,0.0,0.0,0.0,0.0,0.0,0.0,0.0,0.0,0.0,0.0,0.0,0.0,0.0,0.0,0.0,0.0,0.0,0.0,0.0,0.0,0.0,0.0,0.0,0.0,0.0,0.0,0.0,0.0,0.0,0.0,0.0,0.0,0.0,0.0,0.0,0.0,0.0,0.0,0.0,0.0,0.0,0.0,0.0,0.0,0.0,0.0,0.0,0.0,0.0,0.0,0.0,0.0,0.0,0.0,0.0,0.0,0.0,0.0,0.0,0.0,0.0,0.0,0.0,0.0,0.0,0.0,0.0,0.0,0.0,0.0,0.0,0.0,0.0,0.0,0.0,0.0,0.0,0.0,0.0,0.0,0.0,0.0,0.0,0.0,0.0,0.0,0.0,0.0,0.0,0.0,0.0,0.0,0.0,0.0,0.0,0.0,0.0,0.0,0.0,0.0,0.0,0.0,0.0,0.0,0.0,0.0,0.0,0.0,0.0,0.0,0.0,0.0,0.0,0.0,0.0,0.0,0.0,0.0,0.0,0.0,0.0,0.0,0.0,0.0,0.0,0.0,0.0,0.0,0.0,0.0,0.0,0.0,0.0,0.0,0.0,0.0,0.0,0.0,0.0,0.0,0.0,0.0,0.0,0.0,0.0,0.0,0.0,0.0,0.0,0.0,0.0,0.0,0.0,0.0,0.0,0.0,0.0,0.0,0.0,0.0,0.0,0.0,0.0,0.0,0.0,0.0,0.0,0.0,0.0,0.0,0.0,0.0,0.0,0.0,0.0,0.0,0.0,0.0,0.0,0.0,0.0,0.0,0.0,0.0,0.0,0.0,0.0,0.0,0.0,0.0,0.0,0.0,0.0,0.0,0.0,0.0,0.0,0.0,0.0,0.0,0.0,0.0,0.0,0.0,0.0,0.0,0.0,0.0,0.0,0.0,0.0,0.0,0.0,0.0,0.0,0.0,0.0,0.0,0.0,0.0,0.0,0.0,0.0,0.0,0.0,0.0,0.0,0.0,0.0,0.0,0.0,0.0,0.0,0.0,0.0,0.0,0.0,0.0,0.0,0.0,0.0,0.0,0.0,0.0,0.0,0.0,0.0,0.0,0.0,0.0,0.0,0.0,0.0,0.0,0.0,0.0,0.0,0.0,0.0,0.0,0.0,0.0,0.0,0.0,0.0,0.0,0.0,0.0,0.0,0.0,0.0,0.0,0.0,0.0,0.0,0.0,0.0,0.0,0.0,0.0,0.0,0.0,0.0,0.0,0.0,0.0,0.0,0.0,0.0,0.0,0.0,0.0,0.0,0.0,0.0,0.0,0.0,0.0,0.0,0.0,0.0,0.0,0.0,0.0,0.0,0.0,0.0,0.0,0.0,0.0,0.0,0.0,0.0,0.0,0.0,0.0,0.0,0.0,0.0,0.0,0.0,0.0,0.0,0.0,0.0,0.0,0.0,0.0,0.0,0.0,0.0,0.0,0.0,0.0,0.0,0.0,0.0,0.0,0.0,0.0,0.0,0.0,0.0,0.0,0.0,0.0,0.0,0.0,0.0,0.0,0.0,0.0,0.0,0.0,0.0,0.0,0.0,0.0,0.0,0.0,0.0,0.0,0.0,0.0,0.0,0.0,0.0,0.0,0.0,0.0,0.0,0.0,0.0,0.0,0.0,0.0,0.0,0.0,0.0,0.0,0.0,0.0,0.0,0.0,0.0,0.0,0.0,0.0,0.0,0.0,0.0,0.0,0.0,0.0,0.0,0.0,0.0,0.0,0.0,0.0,0.0,0.0,0.0,0.0,0.0,0.0,0.0,0.0,0.0,0.0,0.0,0.0,0.0,0.0,0.0,0.0,0.0,0.0,0.0,0.0,0.0,0.0,0.0,0.0,0.0,0.0,0.0,0.0,0.0,0.0,0.0,0.0,0.0,0.0,0.0,0.0,0.0,0.0,0.0,0.0,0.0,0.0,0.0,0.0,0.0,0.0,0.0,0.0,0.0,0.0,0.0,0.0,0.0,0.0,0.0,0.0,0.0,0.0,0.0,0.0,0.0,0.0,0.0,0.0,0.0,0.0,0.0,0.0,0.0,0.0,0.0,0.0,0.0,0.0,0.0,0.0,0.0,0.0,0.0,0.0,0.0,0.0,0.0,0.0,0.0,0.0,0.0,0.0,0.0,0.0,0.0,0.0,0.0,0.0,0.0,0.0,0.0,0.0,0.0,0.0,0.0,0.0,0.0,0.0,0.0,0.0,0.0,0.0,0.0,0.0,0.0,0.0,0.0,0.0,0.0,0.0,0.0,0.0,0.0,0.0,0.0,0.0,0.0,0.0,0.0,0.0,0.0,0.0,0.0,0.0,0.0,0.0,0.0,0.0,0.0,0.0,0.0,0.0,0.0,0.0,0.0,0.0,0.0,0.0,0.0,0.0,0.0,0.0,0.0,0.0,0.0,0.0,0.0,0.0,0.0,0.0,0.0,0.0,0.0,0.0,0.0,0.0,0.0,0.0,0.0,0.0,0.0,0.0,0.0,0.0,0.0,0.0,0.0,0.0,0.0,0.0,0.0,0.0,0.0,0.0,0.0,0.0,0.0,0.0,0.0,0.0,0.0,0.0,0.0,0.0,0.0,0.0,0.0,0.0,0.0,0.0,0.0,0.0,0.0,0.0,0.0,0.0,0.0,0.0,0.0,0.0,0.0,0.0,0.0,0.0,0.0,0.0,0.0,0.0,0.0,0.0,0.0,0.0,0.0,0.0,0.0,0.0,0.0,0.0,0.0,0.0,0.0,0.0,0.0,0.0,0.0,0.0,0.0,0.0,0.0,0.0,0.0,0.0,0.0,0.0,0.0,0.0,0.0,0.0,0.0,0.0,0.0,0.0,0.0,0.0,0.0,0.0,0.0,0.0,0.0,0.0,0.0,0.0,0.0,0.0,0.0,0.0,0.0,0.0,0.0,0.0,0.0,0.0,0.0,0.0,0.0,0.0,0.0,0.0,0.0,0.0,0.0,0.0,0.0,0.0,0.0,0.0,0.0,0.0,0.0,0.0,0.0,0.0,0.0,0.0,0.0,0.0,0.0,0.0,0.0,0.0,0.0,0.0,0.0,0.0,0.0,0.0,0.0,0.0,0.0,0.0,0.0,0.0,0.0,0.0,0.0,0.0,0.0,0.0,0.0,0.0,0.0,0.0,0.0,0.0,0.0,0.0,0.0,0.0,0.0,0.0,0.0,0.0,0.0,0.0,0.0,0.0,0.0,0.0,0.0,0.0,0.0,0.0,0.0,0.0,0.0,0.0,0.0,0.0,0.0,0.0,0.0,0.0,0.0,0.0,0.0,0.0,0.0,0.0,0.0,0.0,0.0,0.0,0.0,0.0,0.0,0.0,0.0,0.0,0.0,0.0,0.0,0.0,0.0,0.0,0.0,0.0,0.0,0.0,0.0,0.0,0.0,0.0,0.0,0.0,0.0,0.0,0.0,0.0,0.0,0.0,0.0,0.0,0.0,0.0,0.0,0.0,0.0,0.0,0.0,0.0,0.0,0.0,0.0,0.0,0.0,0.0,0.0,0.0,0.0,0.0,0.0,0.0,0.0,0.0,0.0,0.0,0.0,0.0,0.0,0.0,0.0,0.0,0.0,0.0,3.195,0.0,0.0,0.0,0.0,0.0,0.0,0.0,0.0,0.0,0.0,0.0,0.0,0.0,0.0,0.0,0.0,0.0,0.0,0.0,0.0,0.0,0.0,0.0,0.0,0.0,0.0,0.0,0.0,0.0,0.0,0.0,0.0,0.0,0.0,0.0,0.0,0.0,0.0,0.0,0.0,0.0,0.0,0.0,0.0,0.0,0.0,0.0,0.0,0.0,0.0,0.0,0.0,0.0,0.0,0.0,0.0,0.0,0.0,0.0,0.0,0.0,0.0,0.0,0.0,0.0,0.0,0.0,0.0,0.0,0.0,0.0,0.0,0.0,0.0,0.0,0.0,0.0,0.0,0.0,0.0,0.0,0.0,0.0,0.0,0.0,0.0,0.0,0.0,0.0,0.0,0.0,0.0,0.0,0.0,0.0,0.0,0.0,0.0,0.0,0.0,0.0,0.0,0.0,0.0,0.0,0.0,0.0,0.0,0.0,0.0,3.5031,3.4711,3.4918,3.4171,3.2478,0.0,0.0,0.0,0.0,0.0,0.0,0.0,0.0,0.0,0.0,0.0,0.0,0.0,0.0,0.0,0.0,0.0,0.0,0.0,0.0,0.0,0.0,0.0,0.0,0.0,0.0,0.0,0.0,0.0,0.0,0.0,0.0,0.0,0.0,0.0,0.0,0.0,0.0,0.0,0.0,0.0,0.0,0.0,0.0,0.0,0.0,0.0,0.0,0.0,0.0,0.0,0.0,0.0,0.0,0.0,0.0,0.0,0.0,0.0,0.0,0.0,0.0,0.0,0.0,0.0,0.0,0.0,0.0,0.0,0.0,0.0,0.0,0.0,0.0,0.0,0.0,0.0,0.0,0.0,0.0,0.0,0.0,0.0,0.0,0.0,0.0,0.0,0.0,0.0,0.0,0.0,0.0,0.0,0.0,0.0,0.0,0.0,0.0,0.0,0.0,0.0,0.0,0.0,0.0,0.0,0.0,0.0,0.0,0.0,0.0,0.0,0.0,3.5624,3.4774,3.3087,0.0,0.0,0.0,0.0,0.0,0.0,0.0,0.0,0.0,0.0,0.0,0.0,0.0,0.0,0.0,0.0,0.0,0.0,0.0,0.0,0.0,0.0,0.0,0.0,0.0,0.0,0.0,0.0,0.0,0.0,0.0,0.0,0.0,0.0,0.0,0.0,0.0,0.0,0.0,0.0,0.0,0.0,0.0,0.0,0.0,0.0,0.0,0.0,0.0,0.0,0.0,0.0,0.0,0.0,0.0,0.0,0.0,0.0,0.0,0.0,0.0,0.0,0.0,0.0,0.0,0.0,0.0,0.0,0.0,0.0,0.0,0.0,0.0,0.0,0.0,0.0,0.0,0.0,0.0,0.0,0.0,0.0,0.0,0.0,0.0,0.0,0.0,0.0,0.0,0.0,0.0,0.0,0.0,0.0,0.0,0.0,0.0,0.0,0.0,0.0,0.0,0.0,0.0,0.0,0.0,0.0,0.0,0.0,0.0,0.0,3.5653,3.6531,3.592,0.0,3.3253,0.0,0.0,0.0,0.0,0.0,0.0,0.0,0.0,0.0,0.0,0.0,0.0,0.0,0.0,0.0,0.0,0.0,0.0,0.0,0.0,0.0,0.0,0.0,0.0,0.0,0.0,0.0,0.0,0.0,0.0,0.0,0.0,0.0,0.0,0.0,0.0,0.0,0.0,0.0,0.0,0.0,0.0,0.0,0.0,0.0,0.0,0.0,0.0,0.0,0.0,0.0,0.0,0.0,0.0,0.0,0.0,0.0,0.0,0.0,0.0,0.0,0.0,0.0,0.0,0.0,0.0,0.0,0.0,0.0,0.0,0.0,0.0,0.0,0.0,0.0,0.0,0.0,0.0,0.0,0.0,0.0,0.0,0.0,0.0,0.0,0.0,0.0,0.0,0.0,0.0,0.0,0.0,0.0,0.0,0.0,0.0,0.0,0.0,0.0,0.0,0.0,0.0,0.0,0.0,0.0,0.0,0.0,0.0,0.0,0.0,0.0,3.6661,3.547,3.456,0.0,0.0,0.0,0.0,0.0,0.0,0.0,0.0,0.0,0.0,0.0,0.0,0.0,0.0,0.0,0.0,0.0,0.0,0.0,0.0,0.0,0.0,0.0,0.0,0.0,0.0,0.0,0.0,0.0,0.0,0.0,0.0,0.0,0.0,0.0,0.0,0.0,0.0,0.0,0.0,0.0,0.0,0.0,0.0,0.0,0.0,0.0,0.0,0.0,0.0,0.0,0.0,0.0,0.0,0.0,0.0,0.0,0.0,0.0,0.0,0.0,0.0,0.0,0.0,0.0,0.0,0.0,0.0,0.0,0.0,0.0,0.0,0.0,0.0,0.0,0.0,0.0,0.0,0.0,0.0,0.0,0.0,0.0,0.0,0.0,0.0,0.0,0.0,0.0,0.0,0.0,0.0,0.0,0.0,0.0,0.0,0.0,0.0,0.0,0.0,0.0,0.0,0.0,0.0,0.0,0.0,0.0,0.0,0.0,0.0,3.6048,0.0,3.728,3.5649,3.4599,3.4429,0.0,0.0,0.0,0.0,0.0,0.0,0.0,0.0,0.0,0.0,0.0,0.0,0.0,0.0,0.0,0.0,0.0,0.0,0.0,0.0,0.0,0.0,0.0,0.0,0.0,0.0,0.0,0.0,0.0,0.0,0.0,0.0,0.0,0.0,0.0,0.0,0.0,0.0,0.0,0.0,0.0,0.0,0.0,0.0,0.0,0.0,0.0,0.0,0.0,0.0,0.0,0.0,0.0,0.0,0.0,0.0,0.0,0.0,0.0,0.0,0.0,0.0,0.0,0.0,0.0,0.0,0.0,0.0,0.0,0.0,0.0,0.0,0.0,0.0,0.0,0.0,0.0,0.0,0.0,0.0,0.0,0.0,0.0,0.0,0.0,0.0,0.0,0.0,0.0,0.0,0.0,0.0,0.0,0.0,0.0,0.0,0.0,0.0,0.0,0.0,0.0,0.0,0.0,0.0,0.0,0.0,0.0,0.0,0.0,3.8092,3.8223,3.9161,3.6856,3.5222,0.0,0.0,0.0,0.0,0.0,0.0,0.0,0.0,0.0,0.0,0.0,0.0,0.0,0.0,0.0,0.0,0.0,0.0,0.0,0.0,0.0,0.0,0.0,0.0,0.0,0.0,0.0,0.0,0.0,0.0,0.0,0.0,0.0,0.0,0.0,0.0,0.0,0.0,0.0,0.0,0.0,0.0,0.0,0.0,0.0,0.0,0.0,0.0,0.0,0.0,0.0,0.0,0.0,0.0,0.0,0.0,0.0,0.0,0.0,0.0,0.0,0.0,0.0,0.0,0.0,0.0,0.0,0.0,0.0,0.0,0.0,0.0,0.0,0.0,0.0,0.0,0.0,0.0,0.0,0.0,0.0,0.0,0.0,0.0,0.0,0.0,0.0,0.0,0.0,0.0,0.0,0.0,0.0,0.0,0.0,0.0,0.0,0.0,0.0,0.0,0.0,0.0,0.0,0.0,0.0,0.0,0.0,0.0,0.0,3.6635,3.7007,3.7885,3.9185,3.6431,3.5232,0.0,0.0,0.0,0.0,0.0,0.0,0.0,0.0,0.0,0.0,0.0,0.0,0.0,0.0,0.0,0.0,0.0,0.0,0.0,0.0,0.0,0.0,0.0,0.0,0.0,0.0,0.0,0.0,0.0,0.0,0.0,0.0,0.0,0.0,0.0,0.0,0.0,0.0,0.0,0.0,0.0,0.0,0.0,0.0,0.0,0.0,0.0,0.0,0.0,0.0,0.0,0.0,0.0,0.0,0.0,0.0,0.0,0.0,0.0,0.0,0.0,0.0,0.0,0.0,0.0,0.0,0.0,0.0,0.0,0.0,0.0,0.0,0.0,0.0,0.0,0.0,0.0,0.0,0.0,0.0,0.0,0.0,0.0,0.0,0.0,0.0,0.0,0.0,0.0,0.0,0.0,0.0,0.0,0.0,0.0,0.0,0.0,0.0,0.0,0.0,0.0,0.0,0.0,0.0,0.0,0.0,0.0,0.0,0.0,3.6978,0.0,3.9354,0.0,3.6957,3.5514,0.0,0.0,0.0,0.0,0.0,0.0,0.0,0.0,0.0,0.0,0.0,0.0,0.0,0.0,0.0,0.0,0.0,0.0,0.0,0.0,0.0,0.0,0.0,0.0,0.0,0.0,0.0,0.0,0.0,0.0,0.0,0.0,0.0,0.0,0.0,0.0,0.0,0.0,0.0,0.0,0.0,0.0,0.0,0.0,0.0,0.0,0.0,0.0,0.0,0.0,0.0,0.0,0.0,0.0,0.0,0.0,0.0,0.0,0.0,0.0,0.0,0.0,0.0,0.0,0.0,0.0,0.0,0.0,0.0,0.0,0.0,0.0,0.0,0.0,0.0,0.0,0.0,0.0,0.0,0.0,0.0,0.0,0.0,0.0,0.0,0.0,0.0,0.0,0.0,0.0,0.0,0.0,0.0,0.0,0.0,0.0,0.0,0.0,0.0,0.0,0.0,0.0,0.0,0.0,0.0,0.0,0.0,0.0,0.0,4.0331,4.2163,4.2628,4.2047,3.8655,3.6154,0.0,0.0,0.0,0.0,0.0,0.0,0.0,0.0,0.0,0.0,0.0,0.0,0.0,0.0,0.0,0.0,0.0,0.0,0.0,0.0,0.0,0.0,0.0,0.0,0.0,0.0,0.0,0.0,0.0,0.0,0.0,0.0,0.0,0.0,0.0,0.0,0.0,0.0,0.0,0.0,0.0,0.0,0.0,0.0,0.0,0.0,0.0,0.0,0.0,0.0,0.0,0.0,0.0,0.0,0.0,0.0,0.0,0.0,0.0,0.0,0.0,0.0,0.0,0.0,0.0,0.0,0.0,0.0,0.0,0.0,0.0,0.0,0.0,0.0,0.0,0.0,0.0,0.0,0.0,0.0,0.0,0.0,0.0,0.0,0.0,0.0,0.0,0.0,0.0,0.0,0.0,0.0,0.0,0.0,0.0,0.0,0.0,0.0,0.0,0.0,0.0,0.0,0.0,0.0,0.0,0.0,0.0,0.0,0.0,3.8863,4.059,4.1944,4.2731,3.9042,3.7017,0.0,0.0,0.0,0.0,0.0,0.0,0.0,0.0,0.0,0.0,0.0,0.0,0.0,0.0,0.0,0.0,0.0,0.0,0.0,0.0,0.0,0.0,0.0,0.0,0.0,0.0,0.0,0.0,0.0,0.0,0.0,0.0,0.0,0.0,0.0,0.0,0.0,0.0,0.0,0.0,0.0,0.0,0.0,0.0,0.0,0.0,0.0,0.0,0.0,0.0,0.0,0.0,0.0,0.0,0.0,0.0,0.0,0.0,0.0,0.0,0.0,0.0,0.0,0.0,0.0,0.0,0.0,0.0,0.0,0.0,0.0,0.0,0.0,0.0,0.0,0.0,0.0,0.0,0.0,0.0,0.0,0.0,0.0,0.0,0.0,0.0,0.0,0.0,0.0,0.0,0.0,0.0,0.0,0.0,0.0,0.0,0.0,0.0,0.0,0.0,0.0,0.0,0.0,0.0,0.0,0.0,0.0,0.0,0.0,3.9662,4.1531,4.2963,4.3788,4.0268,3.8197,3.7761,0.0,0.0,0.0,0.0,0.0,0.0,0.0,0.0,0.0,0.0,0.0,0.0,0.0,0.0,0.0,0.0,0.0,0.0,0.0,0.0,0.0,0.0,0.0,0.0,0.0,0.0,0.0,0.0,0.0,0.0,0.0,0.0,0.0,0.0,0.0,0.0,0.0,0.0,0.0,0.0,0.0,0.0,0.0,0.0,0.0,0.0,0.0,0.0,0.0,0.0,0.0,0.0,0.0,0.0,0.0,0.0,0.0,0.0,0.0,0.0,0.0,0.0,0.0,0.0,0.0,0.0,0.0,0.0,0.0,0.0,0.0,0.0,0.0,0.0,0.0,0.0,0.0,0.0,0.0,0.0,0.0,0.0,0.0,0.0,0.0,0.0,0.0,0.0,0.0,0.0,0.0,0.0,0.0,0.0,0.0,0.0,0.0,0.0,0.0,0.0,0.0,0.0,0.0,0.0,0.0,0.0,0.0,0.0,4.2124,4.4587,4.5479,4.4679,4.2086,3.9557,0.0,0.0,0.0,0.0,0.0,0.0,0.0,0.0,0.0,0.0,0.0,0.0,0.0,0.0,0.0,0.0,0.0,0.0,0.0,0.0,0.0,0.0,0.0,0.0,0.0,0.0,0.0,0.0,0.0,0.0,0.0,0.0,0.0,0.0,0.0,0.0,0.0,0.0,0.0,0.0,0.0,0.0,0.0,0.0,0.0,0.0,0.0,0.0,0.0,0.0,0.0,0.0,0.0,0.0,0.0,0.0,0.0,0.0,0.0,0.0,0.0,0.0,0.0,0.0,0.0,0.0,0.0,0.0,0.0,0.0,0.0,0.0,0.0,0.0,0.0,0.0,0.0,0.0,0.0,0.0,0.0,0.0,0.0,0.0,0.0,0.0,0.0,0.0,0.0,0.0,0.0,0.0,0.0,0.0,0.0,0.0,0.0,0.0,0.0,0.0,0.0,0.0,0.0,0.0,0.0,0.0,0.0,0.0,0.0,4.3892,4.5841,4.6435,4.5519,4.2485,3.9906,0.0,0.0,0.0,0.0,0.0,0.0,0.0,0.0,0.0,0.0,0.0,0.0,0.0,0.0,0.0,0.0,0.0,0.0,0.0,0.0,0.0,0.0,0.0,0.0,0.0,0.0,0.0,0.0,0.0,0.0,0.0,0.0,0.0,0.0,0.0,0.0,0.0,0.0,0.0,0.0,0.0,0.0,0.0,0.0,0.0,0.0,0.0,0.0,0.0,0.0,0.0,0.0,0.0,0.0,0.0,0.0,0.0,0.0,0.0,0.0,0.0,0.0,0.0,0.0,0.0,0.0,0.0,0.0,0.0,0.0,0.0,0.0,0.0,0.0,0.0,0.0,0.0,0.0,0.0,0.0,0.0,0.0,0.0,0.0,0.0,0.0,0.0,0.0,0.0,0.0,0.0,0.0,0.0,0.0,0.0,0.0,0.0,0.0,0.0,0.0,0.0,0.0,0.0,0.0,0.0,0.0,0.0,0.0,4.3597,4.5015,4.6422,4.6939,4.6525,4.4201,4.1662,0.0,0.0,0.0,0.0,0.0,0.0,0.0,0.0,0.0,0.0,0.0,0.0,0.0,0.0,0.0,0.0,0.0,0.0,0.0,0.0,0.0,0.0,0.0,0.0,0.0,0.0,0.0,0.0,0.0,0.0,0.0,0.0,0.0,0.0,0.0,0.0,0.0,0.0,0.0,0.0,0.0,0.0,0.0,0.0,0.0,0.0,0.0,0.0,0.0,0.0,0.0,0.0,0.0,0.0,0.0,0.0,0.0,0.0,0.0,0.0,0.0,0.0,0.0,0.0,0.0,0.0,0.0,0.0,0.0,0.0,0.0,0.0,0.0,0.0,0.0,0.0,0.0,0.0,0.0,0.0,0.0,0.0,0.0,0.0,0.0,0.0,0.0,0.0,0.0,0.0,0.0,0.0,0.0,0.0,0.0,0.0,0.0,0.0,0.0,0.0,0.0,0.0,0.0,0.0,0.0,0.0,0.0,0.0,4.4735,4.5829,4.6834,4.7403,4.7389,4.6268,4.3734,0.0,0.0,0.0,0.0,0.0,0.0,0.0,0.0,0.0,0.0,0.0,0.0,0.0,0.0,0.0,0.0,0.0,0.0,0.0,0.0,0.0,0.0,0.0,0.0,0.0,0.0,0.0,0.0,0.0,0.0,0.0,0.0,0.0,0.0,0.0,0.0,0.0,0.0,0.0,0.0,0.0,0.0,0.0,0.0,0.0,0.0,0.0,0.0,0.0,0.0,0.0,0.0,0.0,0.0,0.0,0.0,0.0,0.0,0.0,0.0,0.0,0.0,0.0,0.0,0.0,0.0,0.0,0.0,0.0,0.0,0.0,0.0,0.0,0.0,0.0,0.0,0.0,0.0,0.0,0.0,0.0,0.0,0.0,0.0,0.0,0.0,0.0,0.0,0.0,0.0,0.0,0.0,0.0,0.0,0.0,0.0,0.0,0.0,0.0,0.0,0.0,0.0,0.0,0.0,0.0,0.0,0.0,0.0,4.5064,4.6784,4.829,4.8836,4.8316,4.5464,4.2615,0.0,0.0,0.0,0.0,0.0,0.0,0.0,0.0,0.0,0.0,0.0,0.0,0.0,0.0,0.0,0.0,0.0,0.0,0.0,0.0,0.0,0.0,0.0,0.0,0.0,0.0,0.0,0.0,0.0,0.0,0.0,0.0,0.0,0.0,0.0,0.0,0.0,0.0,0.0,0.0,0.0,0.0,0.0,0.0,0.0,0.0,0.0,0.0,4.196,0.0,0.0,0.0,0.0,0.0,0.0,0.0,0.0,0.0,0.0,0.0,0.0,0.0,0.0,0.0,0.0,0.0,0.0,0.0,0.0,0.0,0.0,0.0,0.0,0.0,0.0,0.0,0.0,0.0,0.0,0.0,0.0,0.0,0.0,0.0,0.0,0.0,0.0,0.0,0.0,0.0,0.0,0.0,0.0,0.0,0.0,0.0,0.0,0.0,0.0,0.0,0.0,0.0,0.0,0.0,0.0,0.0,0.0,0.0,4.626,4.8121,4.9096,4.9427,4.9132,4.6657,4.3714,0.0,0.0,0.0,0.0,0.0,0.0,0.0,0.0,0.0,0.0,0.0,0.0,0.0,0.0,0.0,0.0,0.0,0.0,0.0,0.0,0.0,0.0,0.0,0.0,0.0,0.0,0.0,0.0,0.0,0.0,0.0,0.0,0.0,0.0,0.0,0.0,0.0,0.0,0.0,0.0,0.0,0.0,0.0,0.0,0.0,0.0,0.0,0.0,0.0,0.0,0.0,0.0,0.0,0.0,0.0,0.0,0.0,0.0,0.0,0.0,0.0,0.0,0.0,0.0,0.0,0.0,0.0,0.0,0.0,0.0,0.0,0.0,0.0,0.0,0.0,0.0,0.0,0.0,0.0,0.0,0.0,0.0,0.0,0.0,0.0,0.0,0.0,0.0,0.0,0.0,0.0,0.0,0.0,0.0,0.0,0.0,0.0,0.0,0.0,0.0,0.0,0.0,0.0,0.0,0.0,0.0,0.0,4.4842,4.7376,4.9335,4.9628,4.9799,4.9881,4.8409,4.5541,4.1266,0.0,0.0,0.0,0.0,0.0,0.0,0.0,0.0,0.0,0.0,0.0,0.0,0.0,0.0,0.0,0.0,0.0,0.0,0.0,0.0,0.0,0.0,0.0,0.0,0.0,0.0,0.0,0.0,0.0,0.0,0.0,0.0,0.0,0.0,0.0,0.0,0.0,0.0,4.18,4.32,0.0,0.0,0.0,0.0,0.0,0.0,0.0,0.0,4.2895,0.0,0.0,0.0,0.0,0.0,0.0,0.0,0.0,0.0,0.0,0.0,0.0,0.0,0.0,0.0,0.0,0.0,0.0,0.0,0.0,0.0,0.0,0.0,0.0,0.0,0.0,0.0,0.0,0.0,0.0,0.0,0.0,0.0,0.0,0.0,0.0,0.0,0.0,0.0,0.0,0.0,0.0,0.0,0.0,0.0,0.0,0.0,0.0,0.0,0.0,0.0,0.0,0.0,0.0,0.0,0.0,4.2527,4.4576,4.6876,4.9401,5.031,5.048,4.9915,4.8914,4.6387,4.2196,0.0,0.0,0.0,0.0,0.0,0.0,0.0,0.0,0.0,0.0,0.0,0.0,0.0,0.0,0.0,0.0,0.0,0.0,0.0,0.0,0.0,0.0,0.0,0.0,0.0,0.0,0.0,0.0,0.0,0.0,0.0,0.0,0.0,0.0,0.0,0.0,0.0,0.0,0.0,4.5138,4.5595,0.0,0.0,0.0,0.0,0.0,0.0,0.0,0.0,4.3853,0.0,0.0,0.0,0.0,0.0,0.0,0.0,0.0,0.0,0.0,0.0,0.0,0.0,0.0,0.0,0.0,0.0,0.0,0.0,0.0,0.0,0.0,0.0,0.0,0.0,0.0,0.0,0.0,0.0,0.0,0.0,0.0,0.0,0.0,0.0,0.0,0.0,0.0,0.0,0.0,0.0,0.0,0.0,0.0,0.0,0.0,0.0,0.0,0.0,0.0,0.0,0.0,0.0,0.0,0.0,4.2737,4.5419,4.7855,5.004,5.0689,5.0869,5.0547,4.8915,4.6199,0.0,0.0,0.0,0.0,0.0,0.0,0.0,0.0,0.0,0.0,0.0,0.0,0.0,0.0,0.0,0.0,0.0,0.0,0.0,0.0,0.0,0.0,0.0,0.0,0.0,0.0,0.0,0.0,0.0,0.0,0.0,0.0,0.0,0.0,0.0,0.0,0.0,0.0,0.0,0.0,4.5794,4.6594,4.6074,0.0,0.0,0.0,0.0,0.0,0.0,4.3794,4.3901,0.0,0.0,0.0,0.0,0.0,0.0,0.0,0.0,0.0,0.0,0.0,0.0,0.0,0.0,0.0,0.0,0.0,0.0,0.0,0.0,0.0,0.0,0.0,0.0,0.0,0.0,0.0,0.0,0.0,0.0,0.0,0.0,0.0,0.0,0.0,0.0,0.0,0.0,0.0,0.0,0.0,0.0,0.0,0.0,0.0,0.0,0.0,0.0,0.0,0.0,0.0,0.0,0.0,0.0,0.0,4.2621,4.607,4.868,5.0366,5.085,5.1101,5.119,4.8786,4.585,0.0,0.0,0.0,0.0,0.0,0.0,0.0,0.0,0.0,0.0,0.0,0.0,0.0,0.0,0.0,0.0,0.0,0.0,0.0,0.0,0.0,0.0,0.0,0.0,0.0,0.0,0.0,0.0,0.0,0.0,0.0,0.0,0.0,0.0,0.0,0.0,0.0,0.0,0.0,0.0,0.0,4.749,4.6467,4.6429,0.0,0.0,0.0,0.0,4.4459,4.4541,0.0,0.0,0.0,0.0,0.0,0.0,0.0,0.0,0.0,0.0,0.0,0.0,0.0,0.0,0.0,0.0,0.0,0.0,0.0,0.0,0.0,0.0,0.0,0.0,0.0,0.0,0.0,0.0,0.0,0.0,0.0,0.0,0.0,0.0,0.0,0.0,0.0,0.0,0.0,0.0,0.0,0.0,0.0,0.0,0.0,0.0,0.0,0.0,0.0,0.0,0.0,0.0,0.0,0.0,0.0,0.0,4.174,4.5291,4.7951,4.9583,5.0636,5.1229,5.1239,4.8777,4.5842,0.0,0.0,0.0,0.0,0.0,0.0,0.0,0.0,0.0,0.0,0.0,0.0,0.0,0.0,0.0,0.0,0.0,0.0,0.0,0.0,0.0,0.0,0.0,0.0,0.0,0.0,0.0,0.0,0.0,0.0,0.0,0.0,0.0,0.0,0.0,0.0,0.0,0.0,0.0,0.0,0.0,4.841,4.7462,4.7858,4.7651,0.0,0.0,0.0,4.6935,4.6825,0.0,0.0,0.0,0.0,0.0,0.0,0.0,0.0,0.0,0.0,0.0,0.0,0.0,0.0,0.0,0.0,0.0,0.0,0.0,0.0,0.0,0.0,0.0,0.0,0.0,0.0,0.0,0.0,0.0,0.0,0.0,0.0,0.0,0.0,0.0,0.0,0.0,0.0,0.0,0.0,0.0,0.0,0.0,0.0,0.0,0.0,0.0,0.0,0.0,0.0,0.0,0.0,0.0,0.0,0.0,3.8997,4.2368,4.5918,4.8578,5.0233,5.093,5.1278,5.1304,4.8312,4.5098,0.0,0.0,0.0,0.0,0.0,0.0,0.0,0.0,0.0,0.0,0.0,0.0,0.0,0.0,0.0,0.0,0.0,0.0,0.0,0.0,0.0,0.0,0.0,0.0,0.0,0.0,0.0,0.0,0.0,0.0,0.0,0.0,0.0,0.0,0.0,0.0,0.0,0.0,0.0,0.0,0.0,0.0,4.891,4.9435,0.0,0.0,0.0,4.8265,4.8503,0.0,0.0,0.0,0.0,0.0,0.0,0.0,0.0,0.0,0.0,0.0,0.0,0.0,0.0,0.0,0.0,0.0,0.0,0.0,0.0,0.0,0.0,0.0,0.0,0.0,0.0,0.0,0.0,0.0,0.0,0.0,0.0,0.0,0.0,0.0,0.0,0.0,0.0,0.0,0.0,0.0,0.0,0.0,0.0,0.0,0.0,0.0,0.0,0.0,0.0,0.0,0.0,0.0,0.0,0.0,0.0,0.0,4.2364,4.6265,4.9042,5.0511,5.1042,5.1304,5.125,4.8146,0.0,0.0,0.0,0.0,0.0,0.0,0.0,0.0,0.0,0.0,0.0,0.0,0.0,0.0,0.0,0.0,0.0,0.0,0.0,0.0,0.0,0.0,0.0,0.0,0.0,0.0,0.0,3.2298,0.0,0.0,0.0,0.0,0.0,0.0,0.0,0.0,0.0,0.0,0.0,0.0,0.0,0.0,5.0188,5.0038,5.094,5.1537,0.0,0.0,4.9819,4.9721,4.9589,4.8894,0.0,0.0,0.0,0.0,0.0,0.0,0.0,0.0,0.0,0.0,0.0,0.0,0.0,0.0,0.0,0.0,0.0,0.0,0.0,0.0,0.0,0.0,0.0,0.0,0.0,0.0,0.0,0.0,0.0,0.0,0.0,0.0,0.0,0.0,0.0,0.0,0.0,0.0,0.0,0.0,0.0,0.0,0.0,0.0,0.0,0.0,0.0,0.0,0.0,0.0,0.0,0.0,0.0,0.0,0.0,4.0751,4.568,4.8762,4.9702,5.0731,5.1304,5.1232,4.8704,4.5696,0.0,0.0,0.0,0.0,0.0,0.0,0.0,0.0,0.0,0.0,0.0,0.0,0.0,0.0,0.0,0.0,0.0,0.0,0.0,0.0,0.0,0.0,0.0,0.0,0.0,0.0,0.0,0.0,0.0,0.0,0.0,0.0,0.0,0.0,0.0,0.0,0.0,0.0,0.0,0.0,0.0,5.0374,5.0352,5.2158,5.328,0.0,0.0,5.142,5.0729,5.0616,4.979,4.7357,0.0,0.0,0.0,0.0,0.0,0.0,0.0,0.0,0.0,0.0,0.0,0.0,0.0,0.0,0.0,0.0,0.0,0.0,0.0,0.0,0.0,0.0,0.0,0.0,0.0,0.0,0.0,0.0,0.0,0.0,0.0,0.0,0.0,0.0,0.0,0.0,0.0,0.0,0.0,0.0,0.0,0.0,0.0,0.0,0.0,0.0,0.0,0.0,0.0,0.0,0.0,0.0,0.0,3.9276,4.2107,4.6236,4.9025,5.0428,5.1016,5.1069,5.0589,4.8527,4.5567,0.0,0.0,0.0,0.0,0.0,0.0,0.0,0.0,0.0,0.0,0.0,0.0,0.0,0.0,0.0,0.0,0.0,0.0,0.0,0.0,0.0,0.0,0.0,0.0,0.0,0.0,0.0,0.0,3.6958,3.8002,3.8777,0.0,0.0,0.0,0.0,0.0,0.0,0.0,0.0,0.0,0.0,5.2005,5.32,5.4078,0.0,0.0,5.387,5.3118,5.3375,5.2541,5.1339,4.9721,4.8541,0.0,0.0,0.0,0.0,0.0,0.0,0.0,0.0,0.0,0.0,0.0,0.0,0.0,0.0,0.0,0.0,0.0,0.0,0.0,0.0,0.0,0.0,0.0,0.0,0.0,0.0,0.0,0.0,0.0,0.0,0.0,0.0,0.0,0.0,0.0,0.0,0.0,0.0,0.0,0.0,0.0,0.0,0.0,0.0,0.0,0.0,0.0,0.0,0.0,0.0,0.0,0.0,3.9531,4.2765,4.6467,4.9251,5.1049,5.1209,5.0933,5.0093,4.861,4.6084,0.0,0.0,0.0,0.0,0.0,0.0,0.0,0.0,0.0,0.0,0.0,0.0,0.0,0.0,0.0,0.0,0.0,0.0,0.0,0.0,0.0,0.0,0.0,0.0,0.0,0.0,0.0,0.0,3.8171,3.8999,3.9327,0.0,0.0,0.0,0.0,0.0,0.0,0.0,0.0,0.0,0.0,5.3107,5.4955,5.5236,5.5427,5.5995,5.496,5.423,5.4486,5.3594,5.2455,5.1225,0.0,0.0,0.0,0.0,0.0,0.0,0.0,0.0,0.0,0.0,0.0,0.0,0.0,0.0,0.0,0.0,0.0,0.0,0.0,0.0,0.0,0.0,0.0,0.0,0.0,0.0,0.0,0.0,0.0,0.0,0.0,0.0,0.0,0.0,0.0,0.0,0.0,0.0,0.0,0.0,0.0,0.0,0.0,0.0,0.0,0.0,0.0,0.0,0.0,0.0,0.0,0.0,0.0,0.0,4.2021,4.6205,4.9262,5.1123,5.1242,5.0901,5.0137,4.9235,4.7523,4.4809,0.0,0.0,0.0,0.0,0.0,0.0,0.0,0.0,0.0,0.0,0.0,0.0,0.0,0.0,0.0,0.0,0.0,0.0,0.0,0.0,0.0,0.0,0.0,0.0,0.0,0.0,3.8237,3.8902,3.9338,0.0,0.0,0.0,0.0,0.0,0.0,0.0,0.0,0.0,0.0,5.1896,5.334,5.5071,5.5377,5.539,5.5206,5.5,5.4489,5.3489,5.3452,5.2987,0.0,0.0,0.0,0.0,0.0,0.0,0.0,0.0,0.0,0.0,0.0,0.0,0.0,0.0,0.0,0.0,0.0,0.0,0.0,0.0,0.0,0.0,0.0,0.0,0.0,0.0,0.0,2.6238,2.6654,0.0,0.0,0.0,0.0,0.0,0.0,0.0,0.0,0.0,0.0,0.0,3.2488,3.2721,0.0,0.0,0.0,0.0,0.0,0.0,0.0,0.0,0.0,0.0,0.0,0.0,3.9287,4.1969,4.5673,4.8502,5.0267,5.047,5.0394,5.0104,4.9306,4.7364,4.4125,0.0,0.0,0.0,0.0,0.0,0.0,0.0,0.0,0.0,0.0,0.0,0.0,0.0,0.0,0.0,0.0,0.0,0.0,0.0,0.0,0.0,0.0,0.0,0.0,0.0,3.7756,0.0,0.0,0.0,0.0,0.0,0.0,0.0,0.0,0.0,0.0,0.0,5.0153,5.166,5.3708,5.5309,5.6192,5.6318,5.6318,0.0,0.0,0.0,0.0,0.0,0.0,0.0,0.0,0.0,0.0,0.0,0.0,0.0,0.0,5.1549,5.0128,4.9209,4.8981,4.9813,0.0,0.0,0.0,0.0,0.0,0.0,0.0,0.0,0.0,0.0,0.0,0.0,0.0,0.0,0.0,0.0,2.7582,0.0,0.0,0.0,0.0,0.0,0.0,0.0,0.0,3.2572,3.3009,3.326,3.3469,3.3591,0.0,3.3398,3.3077,0.0,0.0,0.0,0.0,0.0,0.0,0.0,0.0,3.9663,4.2047,4.544,4.8105,4.9893,5.0056,5.0132,5.0083,4.9053,4.7067,4.4177,4.1621,3.9273,0.0,0.0,0.0,0.0,0.0,0.0,0.0,0.0,0.0,0.0,0.0,0.0,0.0,0.0,0.0,0.0,0.0,0.0,0.0,0.0,0.0,0.0,0.0,3.9183,0.0,0.0,0.0,0.0,0.0,0.0,0.0,0.0,0.0,4.6847,4.9664,5.2145,5.3547,5.5209,5.6491,5.6983,0.0,0.0,0.0,0.0,0.0,0.0,0.0,5.4208,5.456,5.3761,5.3214,5.3532,5.4566,5.5233,5.4803,0.0,0.0,5.2377,5.1307,5.1052,5.1936,5.1475,5.1227,5.2164,5.272,5.3194,0.0,0.0,0.0,0.0,0.0,0.0,0.0,0.0,2.7264,2.7219,0.0,2.8049,0.0,0.0,0.0,0.0,0.0,0.0,0.0,0.0,3.3836,3.4442,3.4756,3.4017,3.4217,3.517,3.4412,3.4289,3.4679,3.3314,0.0,0.0,0.0,0.0,0.0,0.0,4.0331,4.2286,4.5459,4.8079,4.9887,4.9997,5.0025,5.0031,4.8514,4.6875,4.5156,4.4101,4.2421,3.9877,3.7306,0.0,0.0,0.0,0.0,0.0,0.0,0.0,0.0,0.0,0.0,0.0,0.0,0.0,0.0,0.0,0.0,0.0,0.0,0.0,0.0,3.9891,0.0,0.0,0.0,0.0,0.0,0.0,0.0,0.0,0.0,0.0,4.9197,5.163,5.3994,5.5746,0.0,0.0,0.0,0.0,5.4998,5.433,5.4975,5.5538,5.5397,5.6479,5.7256,5.7143,0.0,0.0,5.562,5.6232,5.661,5.5431,5.5938,5.6009,5.447,5.3051,5.2403,5.3253,5.3169,5.3334,5.4266,5.4769,5.5061,2.1953,0.0,0.0,0.0,0.0,2.5377,2.65,2.7773,2.7697,2.8009,2.8623,2.8645,0.0,0.0,0.0,0.0,0.0,0.0,3.1911,3.2624,3.3056,3.3645,3.4383,3.4329,3.4586,3.5086,3.4679,3.4849,3.5399,3.4899,3.3836,3.2335,0.0,0.0,0.0,0.0,4.0472,4.2962,4.5215,4.6951,4.8139,4.8281,4.8638,4.9218,4.8789,4.8008,4.6914,4.5391,4.3672,4.1679,3.9756,0.0,0.0,0.0,0.0,0.0,0.0,0.0,0.0,0.0,0.0,0.0,0.0,0.0,0.0,0.0,0.0,0.0,0.0,0.0,3.8393,4.012,4.1038,0.0,0.0,0.0,0.0,0.0,0.0,0.0,0.0,0.0,5.2339,5.323,5.4108,0.0,0.0,5.5906,5.5624,5.575,5.5797,5.546,0.0,0.0,0.0,5.6664,5.6588,5.6937,5.7298,5.7379,5.6962,5.756,5.8081,5.7692,5.728,5.6858,5.6635,5.5001,5.4055,5.463,5.4688,5.4815,5.5644,5.6133,5.6576,1.9906,2.1162,2.2576,2.3667,2.4511,2.5078,2.633,2.7931,2.7911,2.8215,2.8773,2.8966,2.8821,2.847,2.9682,0.0,0.0,0.0,3.1992,3.271,3.3046,3.3561,3.4176,3.4442,3.4655,3.4832,3.5035,3.5409,3.6,3.5988,3.5317,3.4008,0.0,0.0,3.6349,3.89,4.1089,4.2881,4.4937,4.6463,4.7411,4.822,4.8694,4.8863,4.8906,4.8476,4.7617,4.625,4.4883,4.3476,4.1797,3.9564,0.0,0.0,0.0,0.0,0.0,0.0,0.0,0.0,0.0,0.0,0.0,3.4287,0.0,0.0,0.0,0.0,3.7823,3.9208,4.0651,4.1566,0.0,0.0,0.0,0.0,0.0,0.0,0.0,4.9115,5.1292,5.3,5.3868,5.4576,5.5348,5.6337,5.6861,5.6975,5.6434,0.0,5.6512,5.6191,5.6873,5.7503,5.7769,5.7772,5.781,5.8116,5.809,5.804,5.7872,5.8345,5.8628,5.8486,5.7997,5.7739,5.8156,5.6808,5.5742,5.6129,5.6294,5.6631,5.7219,5.7637,5.8071,1.8341,1.9307,2.0638,2.2608,2.4851,2.4858,2.5904,2.7642,2.7883,2.8002,2.8128,2.8969,2.9369,2.936,3.0154,0.0,0.0,3.193,3.2355,3.3111,3.3522,3.3813,3.4031,3.4367,3.448,3.4464,3.5312,3.5949,3.638,3.6689,3.6822,3.6707,3.7156,3.7578,3.8112,4.0351,4.1826,4.2403,4.4705,4.638,4.7411,4.9146,4.9723,4.8915,4.8899,4.8516,4.7734,4.6797,4.5898,4.5117,4.3437,4.1678,3.9878,0.0,0.0,0.0,0.0,0.0,0.0,0.0,0.0,0.0,0.0,0.0,0.0,0.0,0.0,0.0,4.0444,0.0,4.3942,4.3862,0.0,0.0,0.0,4.6458,4.7287,4.9399,5.0809,5.0697,0.0,0.0,0.0,0.0,5.7246,5.914,5.9204,5.8956,5.8692,5.8005,5.7283,5.6778,5.7603,5.8311,5.8732,5.9437,5.9968,5.9878,5.9508,5.8868,5.8572,5.8657,5.8687,5.8569,5.8402,5.8556,5.9015,5.8355,5.7761,5.7504,5.7812,5.8219,5.845,5.8859,5.9113,1.6672,1.6777,1.7369,1.9716,2.3159,2.3424,2.4579,2.642,2.6715,2.7065,2.7537,2.8316,2.9234,3.0281,3.0455,3.0942,3.1742,3.1777,3.1917,3.2231,3.2795,3.3136,3.3314,3.3625,3.3839,3.3991,3.4792,3.5578,3.6334,3.7082,3.7525,3.7632,3.8484,3.8785,3.8664,3.9947,4.1684,4.3849,4.461,4.5531,4.6585,4.8316,4.91,4.8915,4.8872,4.8772,4.8589,4.7066,4.6168,4.5973,4.4266,4.2498,4.0769,3.8202,0.0,0.0,0.0,0.0,0.0,0.0,0.0,0.0,0.0,3.6051,3.4406,0.0,4.0085,0.0,4.2293,4.4304,4.5312,4.6359,0.0,0.0,4.8099,4.9153,4.9776,5.1187,5.2143,5.2348,5.3639,5.5018,5.6093,5.6619,5.7711,5.9829,5.8768,5.7635,5.7604,5.8715,5.9039,5.8194,5.9938,6.14,6.086,6.086,6.0814,6.0213,5.947,5.9052,5.927,5.9465,5.9692,5.9889,5.9659,5.9514,5.9803,5.9109,5.8662,5.8733,5.8554,5.8323,5.8372,5.8697,5.9081,1.5152,1.5301,1.5806,1.7852,2.0754,2.0998,2.2279,2.4238,2.4756,2.5494,2.6489,2.7705,2.8854,2.993,3.0273,3.0722,3.1283,3.1283,3.1473,3.1841,3.2334,3.2699,3.2957,3.3225,3.3372,3.3437,3.4266,3.5126,3.6017,3.7037,3.7816,3.8456,3.9264,3.9702,3.9941,4.0482,4.1622,4.3318,4.4268,4.5245,4.6321,4.8007,4.8343,4.7211,4.7476,4.7306,4.6549,4.4859,4.4114,4.4507,4.3227,4.1896,4.0516,3.9062,3.7292,0.0,0.0,0.0,0.0,0.0,0.0,0.0,0.0,0.0,0.0,0.0,4.2689,0.0,4.566,0.0,4.7895,4.8607,4.9125,4.9367,5.0474,5.151,5.2243,5.3213,5.3998,5.4451,5.5383,5.6436,5.7597,5.8056,5.8963,6.0839,6.0026,5.9244,5.9329,6.0425,6.0981,6.0312,6.1635,6.2671,6.2175,6.1667,6.1133,6.0519,5.9589,5.8962,5.9272,5.9566,5.9849,6.0156,6.0201,6.0214,6.0496,5.9918,5.9441,5.9602,5.9313,5.8894,5.8695,5.894,5.9115,1.3744,1.415,1.5016,1.6303,1.7791,1.81,1.9658,2.201,2.2877,2.4058,2.5529,2.7081,2.8209,2.8967,2.9695,3.0234,3.0567,3.0608,3.0931,3.1511,3.188,3.2298,3.2666,3.2921,3.2952,3.2894,3.3884,3.4799,3.5503,3.6796,3.7911,3.8773,3.9548,4.0286,4.1132,4.1284,4.1604,4.2189,4.3902,4.5246,4.6124,4.7614,4.7315,4.5138,4.564,4.5343,4.3808,4.226,4.1739,4.2463,4.1718,4.0968,4.034,4.0115,3.9306,0.0,3.754,0.0,0.0,0.0,0.0,0.0,0.0,0.0,0.0,4.3997,4.6065,4.8546,4.9497,5.0219,5.085,5.0833,5.1145,5.2011,5.2794,5.3644,5.4526,5.5255,5.5949,5.6611,5.7263,5.7938,5.8677,5.9457,6.0373,6.1502,6.1912,6.1858,6.1912,6.2299,6.2506,6.2528,6.2704,6.3015,6.2988,6.2307,6.1565,6.1039,6.0001,5.9085,5.9365,5.9525,5.9745,6.0031,6.0391,6.0722,6.114,6.06,6.0164,6.0093,5.9779,5.9485,5.9249,5.9182,5.9286,1.2512,1.2385,1.3273,1.3858,1.4247,1.5334,1.8092,2.1934,2.2985,2.4359,2.5967,2.6514,2.7186,2.7987,2.8526,2.8902,2.9207,2.9641,3.0031,3.041,3.1016,3.1511,3.1878,3.2056,3.2231,3.2542,3.4159,3.4855,3.4677,3.7093,3.7881,3.723,3.8839,3.9878,4.0367,0.0,0.0,0.0,4.4219,4.4897,4.516,4.5486,4.5421,4.4958,4.4999,0.0,4.4638,4.3587,4.3162,4.3319,4.2538,0.0,0.0,0.0,0.0,0.0,0.0,0.0,0.0,0.0,0.0,0.0,4.3668,4.3419,4.3349,4.5975,4.8808,5.1405,5.1862,5.2308,5.3165,5.3724,5.4061,5.4133,5.4786,5.5549,5.6307,5.6506,5.6855,5.7621,5.7756,5.8063,5.8813,5.9513,6.0472,6.1682,6.2768,6.3244,6.282,6.2908,6.2615,6.1881,6.2955,6.3896,6.3963,6.3566,6.2824,6.1991,6.1117,6.0581,6.0726,6.0461,6.0428,6.0724,6.0807,6.0757,6.0793,6.0521,6.0241,5.9783,5.9687,5.9453,5.9149,5.9081,5.9185,1.1351,0.0,1.2521,1.3558,0.0,1.5677,1.7874,2.0702,2.1282,2.2556,2.4407,2.5409,2.6138,2.6627,2.7504,2.8,2.82,2.8586,2.9014,2.9559,3.0195,3.0828,3.1397,3.162,3.1875,3.209,3.3213,3.4155,3.4878,3.6516,3.75,3.7896,3.9161,4.0304,4.1415,4.2941,4.3827,4.3995,4.4481,4.5023,4.5591,4.6015,4.5633,4.4367,0.0,0.0,0.0,0.0,0.0,0.0,0.0,0.0,0.0,0.0,0.0,4.2968,4.3305,4.37,4.4185,4.4164,4.511,4.7225,4.8171,4.8063,4.677,4.98,5.2383,5.3748,5.4255,5.4684,5.5099,5.5405,5.5527,5.5428,5.5671,5.6133,5.6797,5.6836,5.7301,5.8336,5.847,5.8664,5.9376,6.019,6.1111,6.2218,6.2921,6.3444,6.3608,6.3858,6.3787,6.339,6.4106,6.4805,6.4619,6.4089,6.3448,6.2523,6.1507,6.096,6.1226,6.0738,6.0475,6.0938,6.0878,6.0671,6.0645,6.0678,6.0574,6.0279,6.0423,6.0357,5.9806,5.9599,5.9702,1.0467,1.1216,1.2355,1.3982,1.5872,1.6811,1.813,1.9611,0.0,0.0,0.0,2.4258,2.5033,2.5313,2.6482,2.7224,2.752,2.7581,2.8082,2.8906,2.9549,3.0241,3.0971,3.1355,3.1579,3.1763,3.2477,3.356,3.5001,3.6017,3.7337,3.884,3.9693,4.1093,4.3013,4.4962,4.5603,4.4986,4.4771,4.5143,4.604,4.6605,4.5867,4.3752,4.4336,4.4396,4.3865,4.3131,4.3162,4.402,4.4067,4.3846,4.3387,4.4755,4.5585,4.5624,4.6303,4.7103,4.7886,4.7927,4.8603,5.0292,5.1986,5.2291,5.0728,5.3502,5.5365,5.5517,5.6177,5.6553,5.6418,5.6359,5.6224,5.6117,5.5977,5.6251,5.7071,5.709,5.7684,5.9089,5.9338,5.9426,5.9985,6.0943,6.1911,6.2842,6.3188,6.3375,6.4211,6.4558,6.4692,6.4787,6.5023,6.5359,6.5041,6.4423,6.3613,6.3035,6.1879,6.1103,6.1171,6.0792,6.0554,6.095,6.0793,6.068,6.0795,6.0873,6.0901,6.0734,6.1189,6.1259,6.0324,6.0323,6.0599,1.0387,1.0881,1.2918,1.4428,1.5561,1.6692,1.8313,2.0106,2.061,2.1545,2.2735,2.366,2.4255,2.4512,2.5315,2.6199,2.7056,2.6965,2.7519,0.0,2.9323,2.9913,3.0402,3.0998,3.1346,3.1679,3.3452,3.4305,3.453,3.6821,3.8125,3.8398,4.0079,4.2087,4.4152,4.5401,4.5958,4.588,4.5181,4.4859,4.5084,4.4465,4.4008,4.3648,4.3781,4.4101,4.4687,4.4609,4.4959,4.5777,4.5859,4.6131,4.6755,4.7688,4.827,4.8298,4.9048,4.9602,4.9723,4.9765,5.0195,5.1193,5.2851,5.37,5.3503,5.4566,5.5623,5.6317,5.654,5.6548,5.6402,5.6349,5.6251,5.6117,5.5977,5.6444,5.7846,5.7958,5.8514,6.0099,6.03,6.0094,6.0205,6.153,6.2604,6.3149,6.3923,6.4676,6.4567,6.4372,6.4095,6.4235,6.4756,6.5073,6.4879,6.4739,6.4219,6.3525,6.2798,6.2118,6.1858,6.1292,6.0879,6.0843,6.0696,6.0795,6.1235,6.116,6.0936,6.0804,6.1259,6.1085,5.9771,6.0806,6.1875,1.0415,1.1473,1.2968,1.4355,1.5722,1.7654,1.9103,2.0129,2.0737,2.1423,2.2094,2.3242,2.3705,2.3653,2.4718,2.555,2.6061,2.6184,2.684,2.7969,2.8786,2.9448,3.0064,3.0838,3.1385,3.1832,3.3459,3.4512,3.5051,3.6978,3.8177,3.8718,4.0874,4.2833,4.4476,4.5491,4.6035,4.6085,4.5745,4.5585,4.566,4.5268,4.5078,4.5077,4.5506,4.6168,4.6981,4.7454,4.7922,4.8311,4.8772,4.9,4.8922,4.9739,5.0204,5.0204,5.0594,5.1031,5.1472,5.1986,5.2419,5.2808,5.3984,5.4726,5.4726,5.5508,5.6172,5.6561,5.6597,5.6536,5.6363,5.6319,5.6253,5.6094,5.5941,5.6579,5.8004,5.8174,5.8782,6.0252,6.0453,6.0313,6.0099,6.1713,6.2862,6.3203,6.4364,6.5029,6.4389,6.4389,6.4453,6.4552,6.4889,6.5014,6.4848,6.4707,6.4328,6.3624,6.3036,6.2581,6.2078,6.1466,6.1058,6.0878,6.0696,6.0866,6.1383,6.1134,6.1008,6.1326,6.1363,6.105,6.0634,6.1772,6.2806,1.0576,1.2093,1.3125,1.4522,1.6315,1.8553,1.9786,2.0173,2.0731,2.1193,2.167,2.2931,2.3414,2.3476,2.4336,2.5003,2.5361,2.5574,2.6253,2.7411,2.8411,2.92,2.9848,3.0757,3.153,3.226,3.3529,3.4784,3.5965,3.7234,3.8534,3.9949,4.1933,4.3596,4.4755,4.5595,4.6046,4.6085,4.6176,4.6236,4.6312,4.6289,4.6395,4.6651,4.7198,4.8057,4.9032,4.9762,5.0182,5.0405,5.1024,5.1063,5.0483,5.1035,5.1474,5.1648,5.1687,5.2081,5.2908,5.3617,5.3976,5.4021,5.4804,5.5312,5.5351,5.6094,5.6601,5.6601,5.6601,5.6515,5.6368,5.6542,5.6509,5.6333,5.6443,5.7139,5.8392,5.8527,5.8961,6.0316,6.0518,6.0342,6.0493,6.1713,6.3015,6.3733,6.4747,6.4993,6.4229,6.4509,6.492,6.5023,6.5019,6.4917,6.4777,6.4633,6.4209,6.3535,6.3036,6.253,6.1987,6.1444,6.1034,6.0818,6.0671,6.0839,6.1248,6.1068,6.1115,6.1605,6.1744,6.1634,6.1875,6.2668,6.3427,1.0897,1.2178,1.3862,1.5727,1.7516,1.8913,1.9856,2.0429,2.0877,2.1361,2.2055,2.256,2.3469,2.4403,2.3928,2.4442,2.5596,2.549,2.5961,2.713,2.8466,2.9329,2.9881,3.0757,3.1842,3.3026,3.4376,3.5639,3.6885,3.8102,3.9835,4.1964,4.3226,4.4384,4.5449,4.5828,4.6047,4.613,4.6175,4.6245,4.6289,4.6286,4.6666,4.7471,4.7549,4.8369,4.9848,5.0035,5.046,5.1201,5.1291,5.1291,5.1274,5.1297,5.1693,5.2468,5.2585,5.2971,5.3795,5.3951,5.4068,5.4072,5.4878,5.5351,5.539,5.6094,5.6601,5.6601,5.6601,5.6523,5.6468,5.7039,5.7366,5.7295,5.7696,5.8567,5.9279,5.9419,5.9624,6.047,6.0545,6.0464,6.0475,6.1802,6.3435,6.4703,6.5138,6.5276,6.4833,6.4772,6.4926,6.4888,6.4815,6.4743,6.4671,6.452,6.4087,6.3317,6.2892,6.2427,6.1859,6.1386,6.0974,6.0732,6.0609,6.0803,6.1049,6.1037,6.0943,6.1675,6.2125,6.253,6.3151,6.3634,6.3634,1.1815,1.3194,1.451,1.5941,1.7532,1.9272,2.014,2.035,2.1077,2.1937,2.2837,2.276,2.2936,2.3273,2.3396,2.4019,2.482,2.5254,2.5974,2.7083,2.8528,2.9425,2.9913,3.1355,3.2517,3.3456,3.5154,3.6417,3.7369,3.8966,4.0686,4.2322,4.3399,4.4499,4.5619,4.5941,4.6065,4.6091,4.6201,4.6516,4.6992,4.7063,4.7478,4.8291,4.8798,4.9341,5.0044,5.0581,5.1045,5.1386,5.1323,5.1317,5.133,5.1323,5.172,5.265,5.3674,5.4381,5.4767,5.5235,5.5548,5.5509,5.5879,5.6048,5.6055,5.6406,5.6601,5.6601,5.6597,5.6744,5.7093,5.7446,5.7742,5.8101,5.8385,5.8819,5.9608,5.9595,5.9749,6.0431,6.0571,6.0464,6.0581,6.186,6.3503,6.4901,6.5352,6.5321,6.5061,6.4958,6.4926,6.4888,6.4853,6.4743,6.4634,6.4558,6.4087,6.3363,6.2892,6.2479,6.1748,6.1211,6.0818,6.0609,6.0547,6.0678,6.106,6.0587,6.0319,6.1398,6.2574,6.3255,6.3531,6.4669,6.5083,1.26,1.4014,1.52,1.6343,1.7538,1.9458,2.034,2.054,2.1361,2.2387,2.3308,2.2986,2.2664,2.248,2.315,2.3721,2.4165,2.5018,2.5978,2.6979,2.8512,2.9515,3.0076,3.151,3.2803,3.3952,3.5471,3.6874,3.8102,3.9965,4.1518,4.2739,4.3784,4.4786,4.5619,4.5953,4.6211,4.6424,4.656,4.7165,4.8124,4.8313,4.8607,4.9228,4.9774,5.0204,5.0477,5.105,5.1386,5.1375,5.1317,5.131,5.1317,5.1317,5.1798,5.3035,5.4689,5.5669,5.5665,5.6255,5.6606,5.6606,5.661,5.6624,5.6597,5.6601,5.6601,5.6601,5.6595,5.69,5.759,5.7883,5.8285,5.8972,5.9133,5.9515,5.9994,5.9948,6.0104,6.0495,6.0571,6.072,6.1106,6.2204,6.3532,6.497,6.5352,6.5321,6.5128,6.4993,6.4924,6.4926,6.4888,6.4817,6.4634,6.4444,6.4046,6.3363,6.2794,6.2271,6.1728,6.1176,6.0757,6.0609,6.0521,6.0438,6.0639,6.0202,6.0321,6.1606,6.2813,6.3703,6.3945,6.5531,6.6255,1.3102,1.4395,1.5996,1.7131,1.7896,1.9287,2.0258,2.0909,2.1773,2.2459,2.3011,2.3188,2.3027,2.2712,2.334,2.3702,2.409,2.4941,2.5861,2.6776,2.8415,2.9496,3.0309,3.1083,3.2599,3.4586,3.5397,3.7144,3.9785,4.1241,4.2473,4.3535,4.4666,4.5417,4.5696,4.5956,4.6416,4.7095,4.7345,4.8226,4.968,4.996,4.9985,5.0051,5.0087,5.0555,5.1176,5.1391,5.1414,5.1414,5.142,5.142,5.1408,5.144,5.2227,5.3855,5.5548,5.6528,5.6489,5.6567,5.6606,5.6606,5.6624,5.6627,5.6621,5.6598,5.664,5.664,5.664,5.695,5.7933,5.846,5.9099,5.993,6.0506,6.079,6.0882,6.0762,6.0742,6.0635,6.0597,6.1015,6.2395,6.2853,6.3618,6.481,6.5314,6.5258,6.5194,6.5095,6.4993,6.4924,6.4888,6.4817,6.4634,6.4366,6.3841,6.3224,6.2595,6.2041,6.1636,6.1211,6.0914,6.0609,6.0458,6.0304,6.0282,6.0587,6.1224,6.2193,6.319,6.3945,6.46,6.5324,6.6152,1.4032,1.5756,1.6685,1.7476,1.8178,1.9865,2.0893,2.1298,2.222,2.2908,2.3367,2.37,2.3773,2.3623,2.4376,2.45,2.4305,2.5285,2.6244,2.7209,2.8767,3.002,3.0968,3.1919,3.3405,3.5219,3.6143,3.7676,3.9963,4.1325,4.2523,4.3611,4.476,4.5475,4.5773,4.6472,4.7019,4.7328,4.7996,4.8954,4.9992,5.0117,5.0347,5.0886,5.0953,5.1063,5.1375,5.1904,5.1971,5.1414,5.2376,5.2721,5.2337,5.3208,5.4039,5.4791,5.5933,5.6606,5.6606,5.6606,5.6606,5.6606,5.6593,5.6638,5.6598,5.664,5.6835,5.7218,5.6873,5.7379,5.8948,5.9186,5.9454,6.0643,6.1019,6.1099,6.1021,6.0997,6.0888,6.0685,6.0597,6.0922,6.1889,6.2548,6.335,6.442,6.5009,6.5252,6.5226,6.5128,6.4989,6.4993,6.4924,6.4853,6.467,6.4289,6.3761,6.3178,6.2595,6.2095,6.1579,6.1093,6.0671,6.0609,6.0458,6.0522,6.0574,6.1427,6.2057,6.2571,6.36,6.4427,6.5393,6.6014,6.6842,1.5217,1.6896,1.7394,1.799,1.8855,2.0431,2.1369,2.1786,2.2893,2.3414,2.3529,2.4304,2.449,2.4241,2.5128,2.5471,2.5235,2.5938,2.6903,2.8046,2.9438,3.0598,3.1622,3.2758,3.4036,3.5611,3.7176,3.8852,4.0496,4.1791,4.2951,4.4121,4.4954,4.5591,4.6143,4.6899,4.7476,4.8115,4.8917,4.9667,5.0422,5.0507,5.078,5.1281,5.1385,5.1375,5.1414,5.1986,5.2172,5.2005,5.2662,5.2929,5.2805,5.4279,5.5226,5.5304,5.6094,5.6606,5.6606,5.6606,5.6606,5.6645,5.69,5.7029,5.7031,5.7031,5.7461,5.791,5.76,5.7994,5.9607,5.9724,5.9872,6.1071,6.1268,6.1137,6.0982,6.1018,6.0911,6.0685,6.0533,6.0808,6.1516,6.2357,6.3236,6.4076,6.4856,6.5283,6.5258,6.5194,6.5057,6.4989,6.4993,6.4888,6.4595,6.4172,6.3761,6.3178,6.2376,6.1878,6.1579,6.1034,6.0609,6.0547,6.0607,6.0674,6.1215,6.2161,6.268,6.3086,6.3669,6.4496,6.5531,6.6635,6.7221,1.6642,1.7868,1.808,1.8731,1.9803,2.0779,2.1615,2.2405,2.3778,2.3909,2.3489,2.4936,2.504,2.4278,2.55,2.6327,2.6705,2.694,2.7751,2.9088,3.017,3.1243,3.2251,3.3254,3.4394,3.5474,3.8241,4.0252,4.1497,4.2612,4.3769,4.4865,4.54,4.6011,4.6848,4.7327,4.8194,4.9352,4.9926,5.0526,5.1242,5.1288,5.1328,5.14,5.1385,5.1375,5.1414,5.1484,5.1943,5.2445,5.2038,5.1869,5.3097,5.4523,5.5357,5.5509,5.6177,5.6567,5.6606,5.6606,5.661,5.6805,5.7391,5.7801,5.789,5.7812,5.8123,5.873,5.8363,5.8553,5.9948,6.0137,6.0333,6.1214,6.1213,6.1099,6.1039,6.0997,6.0949,6.0712,6.0583,6.0835,6.1506,6.2357,6.3197,6.3923,6.4802,6.5383,6.5321,6.5258,6.5194,6.5057,6.4993,6.4888,6.4445,6.4012,6.3631,6.3131,6.2271,6.1615,6.1501,6.1093,6.0732,6.0583,6.0832,6.0994,6.1532,6.244,6.3234,6.3747,6.4191,6.4634,6.5704,6.6669,6.7152,1.7021,1.7988,1.821,1.8956,2.0088,2.1039,2.181,2.2562,2.4059,2.4433,2.4371,2.5771,2.6188,2.5972,2.6743,2.7429,2.7898,2.8587,2.9171,2.9585,3.0616,3.1791,3.2848,3.3196,3.4616,3.6932,3.8746,4.0556,4.2069,4.2922,4.3819,4.495,4.5896,4.6511,4.7053,4.8244,4.9349,4.9858,5.0634,5.1144,5.1385,5.1403,5.1406,5.1405,5.1391,5.1375,5.1414,5.1956,5.242,5.2723,5.3587,5.4445,5.527,5.5899,5.6167,5.6185,5.6397,5.6558,5.6548,5.661,5.6858,5.7369,5.7767,5.8201,5.8633,5.8281,5.8398,5.9016,5.8456,5.8592,5.9943,6.0204,6.0527,6.1316,6.1213,6.1099,6.1039,6.0911,6.1065,6.139,6.0889,6.0617,6.1037,6.1965,6.3083,6.3465,6.4535,6.5345,6.5383,6.5328,6.5232,6.5128,6.5027,6.4853,6.4445,6.3971,6.3498,6.2988,6.2219,6.1615,6.1444,6.1152,6.0793,6.0839,6.1084,6.1523,6.2021,6.2717,6.3581,6.4023,6.422,6.4979,6.5945,6.66,6.7083,1.7544,1.8372,1.8793,1.9563,2.0586,2.1433,2.2354,2.3331,2.4597,2.5077,2.5209,2.6489,2.6928,2.6868,2.7527,2.8296,2.901,2.9816,3.0256,3.0421,3.1319,3.2317,3.3236,3.3726,3.5403,3.8078,3.9543,4.096,4.2649,4.3372,4.4159,4.517,4.6202,4.6973,4.7499,4.8885,4.9834,5.0335,5.1005,5.1367,5.1382,5.1402,5.1406,5.1406,5.14,5.1389,5.1457,5.1968,5.2511,5.3318,5.4845,5.5864,5.6133,5.6367,5.6558,5.6542,5.6542,5.6548,5.6542,5.6571,5.6942,5.7729,5.8202,5.875,5.9336,5.9062,5.9219,5.9841,5.9402,5.9382,6.0573,6.0731,6.0864,6.1316,6.1213,6.1215,6.1309,6.1296,6.1387,6.1799,6.1697,6.131,6.136,6.2366,6.3341,6.3579,6.4535,6.5413,6.5413,6.5321,6.5258,6.5194,6.5095,6.4815,6.4444,6.3925,6.3408,6.2794,6.2202,6.1748,6.1501,6.1034,6.0706,6.1164,6.1441,6.1978,6.2509,6.3274,6.4034,6.4235,6.4324,6.5048,6.5842,6.6566,6.7083,1.819,1.9085,1.9738,2.0465,2.131,2.2081,2.3155,2.4477,2.5484,2.5815,2.5974,2.7206,2.7497,2.7134,2.7977,2.8886,2.9927,3.0466,3.0992,3.1594,3.243,3.306,3.3416,3.4942,3.7005,3.9049,4.0342,4.1576,4.2962,4.3858,4.4777,4.5507,4.6434,4.7261,4.8238,4.9203,5.0156,5.0837,5.1172,5.1352,5.1375,5.14,5.1406,5.1406,5.1406,5.1402,5.1425,5.1779,5.2482,5.3955,5.5552,5.6172,5.5694,5.6133,5.6602,5.6558,5.6536,5.6542,5.6558,5.6567,5.6933,5.781,5.8633,5.957,6.0078,6.0156,6.035,6.1045,6.0571,6.0565,6.1231,6.1373,6.1367,6.1434,6.1397,6.1563,6.2116,6.2205,6.219,6.2246,6.2682,6.2785,6.1847,6.3121,6.3934,6.4259,6.4802,6.5299,6.5413,6.5352,6.5321,6.5226,6.5128,6.4743,6.4328,6.3846,6.3317,6.2682,6.2095,6.184,6.1609,6.1176,6.0928,6.1383,6.1897,6.2468,6.2962,6.3658,6.4069,6.4196,6.4496,6.5048,6.56,6.6221,6.7083,1.9136,1.9767,2.0644,2.138,2.2111,2.2901,2.3819,2.4852,2.6136,2.6684,2.6974,2.8011,2.8384,2.8278,2.8639,2.9186,2.9861,3.0799,3.1486,3.1964,3.3369,3.4328,3.5266,3.7039,3.869,3.9986,4.1209,4.2488,4.3571,4.427,4.5092,4.6151,4.7144,4.8087,4.9067,5.0014,5.0646,5.1042,5.1218,5.1313,5.1371,5.1382,5.1398,5.1406,5.1406,5.1444,5.155,5.2674,5.3451,5.4029,5.5669,5.6528,5.625,5.6445,5.6597,5.6542,5.6548,5.6542,5.6536,5.6548,5.7001,5.7835,5.863,5.957,6.0312,6.039,6.0504,6.0721,6.0514,6.05,6.0754,6.1139,6.1577,6.2017,6.2027,6.2313,6.2905,6.3022,6.2925,6.2963,6.3143,6.2797,6.2552,6.3264,6.4317,6.4412,6.484,6.5413,6.5413,6.5383,6.5321,6.5194,6.5061,6.4595,6.4172,6.3761,6.3187,6.2618,6.2114,6.1744,6.1673,6.1497,6.1477,6.1687,6.2213,6.2818,6.3067,6.3516,6.3785,6.4122,6.4324,6.4703,6.5048,6.5635,6.6807,2.0071,2.0535,2.1543,2.217,2.2646,2.3726,2.4653,2.5455,2.6518,2.7361,2.7779,2.8435,2.8842,2.8858,2.9091,2.9671,3.043,3.1004,3.1818,3.3038,3.432,3.5278,3.6171,3.7792,3.9193,4.0528,4.1714,4.2881,4.3998,4.474,4.5571,4.6504,4.7792,4.8759,4.9336,5.0349,5.0937,5.1023,5.1178,5.1297,5.1352,5.1406,5.1389,5.1484,5.1719,5.2031,5.2614,5.382,5.4554,5.4853,5.5825,5.6606,5.6606,5.6606,5.6597,5.6542,5.6548,5.6536,5.653,5.6556,5.6985,5.7738,5.8432,5.9023,5.9765,6.0154,6.0412,6.0409,6.071,6.0873,6.0963,6.1456,6.1958,6.2336,6.2892,6.3467,6.4007,6.3931,6.3858,6.3911,6.4039,6.3924,6.3053,6.4085,6.4604,6.4823,6.51,6.5337,6.5413,6.5352,6.529,6.5194,6.5061,6.4707,6.4209,6.3755,6.3242,6.2574,6.2331,6.1918,6.1914,6.19,6.208,6.2287,6.2736,6.3065,6.3415,6.3655,6.3788,6.3989,6.4122,6.4427,6.4876,6.5738,6.6876,2.0979,2.141,2.2585,2.2998,2.3215,2.4633,2.5665,2.6153,2.6977,2.7731,2.8306,2.8668,2.8858,2.8967,2.9342,3.0177,3.1374,3.1431,3.278,3.425,3.56,3.638,3.6923,3.7898,3.9302,4.0851,4.1928,4.3198,4.4408,4.5416,4.6126,4.7014,4.8417,4.914,4.9625,5.0373,5.0764,5.0918,5.1113,5.125,5.1362,5.1552,5.1698,5.1828,5.2499,5.3203,5.3984,5.4805,5.5271,5.5404,5.6181,5.6567,5.6606,5.6606,5.6606,5.6563,5.6548,5.6548,5.6587,5.6589,5.6805,5.7547,5.7809,5.8281,5.9177,5.9947,6.0479,6.0686,6.126,6.1459,6.1539,6.2057,6.2405,6.2742,6.3857,6.4663,6.491,6.4864,6.4754,6.4666,6.532,6.5372,6.5025,6.506,6.5542,6.5129,6.5329,6.5337,6.5413,6.5383,6.5321,6.5194,6.5027,6.4815,6.4289,6.3749,6.3221,6.2652,6.2582,6.2435,6.2367,6.2418,6.2627,6.2899,6.3404,6.3693,6.3938,6.4074,6.3965,6.4097,6.4186,6.46,6.5048,6.6255,6.7394,2.2135,2.2241,2.4097,2.4615,2.4492,2.6092,2.6826,2.6822,2.7714,2.8275,2.8573,2.8811,2.8983,2.9154,2.9878,3.0447,3.1306,3.236,3.4193,3.6498,3.7276,3.8108,3.8734,3.9363,4.0238,4.1614,4.2766,4.404,4.5177,4.5978,4.6859,4.8262,4.8709,4.9433,5.0197,5.0433,5.0735,5.0889,5.1058,5.12,5.1459,5.2016,5.2394,5.2563,5.3279,5.4141,5.4805,5.5195,5.5625,5.6168,5.6468,5.661,5.6606,5.6606,5.6606,5.6606,5.6614,5.6575,5.6567,5.6592,5.6636,5.6946,5.7578,5.8279,5.9117,5.9929,6.0666,6.1217,6.1603,6.1641,6.1634,6.2059,6.2703,6.3359,6.4222,6.5103,6.5558,6.5664,6.5307,6.5013,6.5359,6.5538,6.4665,6.5175,6.5475,6.5435,6.5444,6.5413,6.5413,6.5413,6.5321,6.5194,6.5095,6.4815,6.4166,6.375,6.3516,6.3257,6.3285,6.3095,6.3056,6.3172,6.3577,6.3842,6.4172,6.4287,6.4147,6.418,6.4037,6.42,6.4358,6.4772,6.5428,6.6669,6.8068,2.3335,2.3909,2.5164,2.5574,2.5726,2.7055,2.755,2.7425,2.8104,2.8759,2.9152,2.9327,2.9706,3.0212,3.0736,3.1308,3.2392,3.4147,3.5893,3.7378,3.8196,3.92,4.0046,4.0656,4.1323,4.2592,4.371,4.4984,4.6148,4.6938,4.7806,4.8859,4.931,4.9824,5.0396,5.0545,5.0644,5.0764,5.0972,5.1141,5.1356,5.2161,5.3288,5.3803,5.4401,5.5031,5.582,5.5898,5.6172,5.6484,5.6601,5.6627,5.6618,5.661,5.6606,5.6606,5.6614,5.6627,5.6627,5.6632,5.6595,5.664,5.7418,5.7991,5.8792,5.9646,6.0505,6.1052,6.142,6.1673,6.194,6.2543,6.3283,6.4089,6.4855,6.5519,6.5856,6.5923,6.5782,6.5397,6.5628,6.5577,6.546,6.5482,6.5475,6.5465,6.5444,6.5413,6.5383,6.5383,6.529,6.5194,6.5128,6.4779,6.4037,6.377,6.3816,6.3889,6.423,6.4076,6.3912,6.4223,6.4534,6.4544,6.4309,6.4182,6.4113,6.4147,6.4178,6.4166,6.4324,6.4876,6.5738,6.6988,6.857,2.4498,2.5715,2.6052,2.6416,2.6923,2.7924,2.8166,2.7968,2.8528,2.9356,2.9904,3.0096,3.0591,3.1261,3.1726,3.2562,3.422,3.5814,3.7237,3.8209,3.9041,4.0046,4.0937,4.1662,4.2594,4.3826,4.4546,4.5743,4.7136,4.8012,4.8461,4.915,4.9744,5.0145,5.0367,5.0483,5.0606,5.0717,5.0918,5.1264,5.159,5.2493,5.3787,5.5083,5.5439,5.579,5.6344,5.6476,5.6562,5.6601,5.6601,5.6601,5.6597,5.6624,5.661,5.661,5.6614,5.6632,5.6601,5.6601,5.6601,5.664,5.7408,5.7972,5.8475,5.9529,6.0383,6.0906,6.1378,6.2013,6.2502,6.3284,6.4015,6.4701,6.5504,6.5895,6.5923,6.5897,6.5859,6.5859,6.5782,6.5692,6.5613,6.5635,6.5552,6.5494,6.5474,6.5413,6.5383,6.5352,6.529,6.5264,6.5161,6.5156,6.4533,6.38,6.3857,6.4483,6.4963,6.4757,6.4617,6.4828,6.4882,6.4397,6.4133,6.4181,6.4183,6.4182,6.4141,6.4058,6.4565,6.5428,6.6401,6.7299,6.908,2.5356,2.6561,2.7274,2.7633,2.7821,2.8754,2.9186,2.9404,2.9753,3.0225,3.0623,3.0885,3.1177,3.1677,3.2563,3.4112,3.5857,3.7182,3.818,3.9355,4.0184,4.0969,4.1824,4.2884,4.4084,4.5039,4.55,4.6333,4.7776,4.8362,4.8926,4.9667,5.0012,5.0212,5.0344,5.0478,5.0606,5.0699,5.0928,5.1346,5.2203,5.3273,5.4528,5.6055,5.6255,5.6372,5.6489,5.6614,5.663,5.6601,5.6601,5.6601,5.6601,5.6601,5.6593,5.6624,5.6601,5.6601,5.6601,5.6601,5.6601,5.6797,5.7483,5.8319,5.8944,5.9802,6.0684,6.1283,6.1807,6.2415,6.2525,6.3729,6.4556,6.501,6.5442,6.5972,6.5923,6.5897,6.5897,6.5897,6.5897,6.5949,6.5947,6.5866,6.5705,6.5647,6.552,6.5452,6.5413,6.5383,6.5321,6.5258,6.5161,6.5235,6.5103,6.4376,6.4075,6.4996,6.5334,6.4936,6.4903,6.5212,6.509,6.4433,6.4376,6.4634,6.4533,6.4427,6.4595,6.4719,6.5441,6.6083,6.7065,6.805,6.9747,2.615,2.7806,2.8124,2.8506,2.892,2.9589,2.9895,2.9973,3.0382,3.0898,3.1369,3.176,3.2283,3.2918,3.3502,3.5011,3.6707,3.8308,3.9197,4.0228,4.1218,4.2078,4.2875,4.4052,4.5326,4.6286,4.6669,4.7292,4.8859,4.9051,4.9391,4.9792,5.0038,5.0163,5.0283,5.0374,5.0504,5.0644,5.0858,5.1411,5.2541,5.3791,5.5332,5.6211,5.6606,5.6606,5.6606,5.6606,5.6618,5.6597,5.6601,5.6601,5.6601,5.6601,5.6601,5.6597,5.6601,5.6601,5.6601,5.6638,5.6797,5.7305,5.8059,5.887,5.9724,6.0539,6.1173,6.151,6.2134,6.2687,6.3124,6.4211,6.49,6.5373,6.575,6.5909,6.5923,6.5897,6.5897,6.5897,6.5897,6.6026,6.637,6.6211,6.5935,6.5733,6.5597,6.549,6.5413,6.5383,6.5359,6.5318,6.53,6.5384,6.5484,6.514,6.4658,6.5467,6.5754,6.532,6.5144,6.5383,6.4948,6.4291,6.4482,6.5087,6.5093,6.5055,6.5221,6.5526,6.6063,6.6781,6.7738,6.8914,7.0539,2.7036,2.9124,2.8973,2.9424,3.0222,3.0541,3.072,3.0719,3.111,3.1671,3.2269,3.2743,3.3401,3.4202,3.4889,3.5894,3.7524,3.9396,4.0175,4.0926,4.2105,4.3156,4.3893,4.4971,4.617,4.6912,4.7847,4.869,4.9288,4.9521,4.9712,4.989,5.0024,5.0139,5.0221,5.0352,5.0435,5.0584,5.0875,5.1531,5.2952,5.4498,5.5756,5.6484,5.6563,5.6602,5.6597,5.6602,5.6614,5.6627,5.6597,5.6601,5.6601,5.6601,5.6601,5.6601,5.6601,5.6678,5.687,5.6944,5.7321,5.8055,5.8909,5.9646,6.0378,6.1101,6.1798,6.1639,6.254,6.3106,6.3613,6.4514,6.528,6.5697,6.5895,6.5897,6.5897,6.5897,6.5897,6.5897,6.5897,6.6,6.6293,6.6134,6.5743,6.5724,6.5558,6.549,6.5413,6.5383,6.5366,6.541,6.5464,6.5534,6.57,6.5962,6.5788,6.6156,6.6151,6.5751,6.5565,6.5447,6.4977,6.4817,6.511,6.5578,6.5619,6.5718,6.6063,6.6364,6.6796,6.748,6.8466,6.9596,7.1043,2.8541,3.0209,3.0052,3.0826,3.187,3.1613,3.1855,3.2384,3.2513,3.2825,3.3035,3.3788,3.4153,3.4611,3.5947,3.7534,3.8986,3.9995,4.0941,4.1858,4.2843,4.3678,4.4396,4.5761,4.6676,4.7499,4.8519,4.9043,4.9577,4.9762,4.9843,5.0033,5.0263,5.0177,5.0397,5.052,5.0462,5.0721,5.1452,5.2756,5.4358,5.5631,5.6263,5.6475,5.6558,5.6558,5.6553,5.6563,5.6571,5.6621,5.6618,5.6624,5.663,5.6621,5.6593,5.6597,5.6671,5.6926,5.7512,5.7711,5.8101,5.8909,5.9685,6.0193,6.0912,6.1781,6.2313,6.1447,6.3163,6.4057,6.405,6.4987,6.5673,6.5919,6.5947,6.5923,6.5897,6.5897,6.5897,6.6013,6.6026,6.6,6.6101,6.5827,6.558,6.5571,6.555,6.5482,6.5459,6.5505,6.5727,6.591,6.6068,6.6201,6.616,6.6397,6.6464,6.67,6.638,6.611,6.5887,6.5668,6.5966,6.5876,6.6097,6.6211,6.6321,6.6598,6.6834,6.7278,6.7676,6.8397,6.9228,7.0447,7.1759,3.038,3.0822,3.1316,3.1857,3.2367,3.2241,3.2449,3.2868,3.2934,3.3149,3.3559,3.405,3.4693,3.5756,3.7475,3.8733,3.9813,4.0839,4.1661,4.2707,4.3698,4.4653,4.5436,4.6638,4.763,4.8456,4.9303,5.0206,5.0375,5.0454,5.053,5.1092,5.1233,5.123,5.0947,5.0971,5.1101,5.168,5.2738,5.3955,5.4941,5.5879,5.6491,5.6475,5.6548,5.6509,5.6514,5.6523,5.6567,5.6575,5.6606,5.6614,5.6621,5.6657,5.6774,5.7327,5.7321,5.7504,5.7851,5.8332,5.8992,5.9616,6.031,6.0773,6.1634,6.2629,6.3235,6.2797,6.3942,6.4514,6.447,6.535,6.575,6.5996,6.5947,6.5923,6.5897,6.5897,6.5936,6.6064,6.6269,6.6473,6.6458,6.6134,6.6203,6.6489,6.6162,6.5681,6.5734,6.5862,6.6197,6.6597,6.6817,6.6955,6.685,6.6942,6.6738,6.6794,6.6355,6.6083,6.5975,6.596,6.6292,6.6766,6.7092,6.72,6.7129,6.7335,6.7714,6.8159,6.8635,6.9513,7.0392,7.1885,7.326,3.2071,3.174,3.2413,3.2833,3.3031,3.2967,3.3044,3.329,3.3284,3.3634,3.4188,3.4789,3.5941,3.7313,3.8777,3.9697,4.0447,4.1742,4.2566,4.3453,4.4554,4.5595,4.6382,4.7554,4.8696,4.9556,5.0265,5.1031,5.1544,5.1673,5.1744,5.2197,5.2096,5.2064,5.1827,5.1801,5.1988,5.2631,5.3837,5.473,5.5268,5.6047,5.6386,5.6491,5.6497,5.6491,5.6509,5.648,5.6523,5.6563,5.6606,5.6688,5.693,5.7044,5.7426,5.8016,5.8363,5.8597,5.8866,5.9222,5.9846,6.0466,6.1047,6.1693,6.2513,6.3546,6.3915,6.3494,6.4616,6.491,6.4964,6.5457,6.5818,6.5947,6.5923,6.5923,6.5974,6.6179,6.6346,6.655,6.6907,6.7467,6.7323,6.6691,6.6816,6.7331,6.6927,6.607,6.616,6.6445,6.6958,6.7467,6.7537,6.7728,6.7729,6.7603,6.7322,6.6889,6.6452,6.6236,6.6296,6.6459,6.6723,6.7265,6.7975,6.8151,6.8184,6.832,6.8523,6.8967,6.9631,7.0704,7.1814,7.3257,7.4405,3.3317,3.3252,3.3285,3.3806,3.4412,3.4003,3.3853,3.3953,3.4151,3.4471,3.524,3.6489,3.7797,3.8921,3.9453,4.0384,4.1781,4.2228,4.3193,4.4222,4.5258,4.6081,4.7071,4.8164,4.9245,4.989,5.0896,5.1927,5.2629,5.2844,5.2597,5.2354,5.2756,5.2589,5.2525,5.2628,5.3047,5.3644,5.4554,5.5155,5.568,5.6258,5.6449,5.6488,5.6503,5.6471,5.648,5.6485,5.6509,5.6509,5.6714,5.6992,5.7382,5.7656,5.8163,5.8905,5.9529,5.9797,6.0071,6.0193,6.0705,6.152,6.2206,6.2633,6.2969,6.4234,6.4433,6.4018,6.5064,6.5303,6.5216,6.5307,6.5846,6.5936,6.5987,6.6179,6.6384,6.6792,6.6984,6.7072,6.7505,6.8139,6.8502,6.7974,6.7523,6.799,6.7744,6.6924,6.7169,6.7521,6.7946,6.8335,6.8374,6.8508,6.8653,6.8394,6.7867,6.7243,6.6716,6.6684,6.676,6.7029,6.7437,6.7902,6.8505,6.8856,6.9133,6.9126,6.9367,6.9887,7.0594,7.1678,7.3046,7.4511,7.5397,3.4023,3.4071,3.4167,3.4283,3.4448,3.425,3.4226,3.4374,3.4697,3.5495,3.647,3.7802,3.8783,3.9378,3.9987,4.0783,4.2023,4.2853,4.375,4.4663,4.5633,4.6684,4.7787,4.8743,4.9715,5.0845,5.1899,5.2748,5.3566,5.3709,5.3808,5.3677,5.361,5.3526,5.3508,5.3479,5.3811,5.4288,5.4996,5.5685,5.5908,5.6247,5.6433,5.6433,5.6472,5.648,5.6472,5.6496,5.6478,5.6647,5.7082,5.7518,5.7986,5.8343,5.9045,5.9748,6.0333,6.0639,6.1035,6.1119,6.1403,6.1816,6.275,6.3536,6.3456,6.4799,6.5374,6.5418,6.5495,6.5615,6.5653,6.5667,6.5897,6.5961,6.6127,6.6396,6.6754,6.7198,6.7669,6.7822,6.8301,6.8893,6.9207,6.9336,6.8915,6.8578,6.8177,6.7964,6.8206,6.8365,6.8747,6.9056,6.9132,6.9011,6.9128,6.8762,6.8283,6.767,6.7003,6.7122,6.7254,6.7963,6.8362,6.8788,6.8999,6.9171,6.9484,6.9797,7.0108,7.0418,7.1431,7.2726,7.4153,7.5711,7.6203,3.4399,3.4497,3.4691,3.4643,3.4497,3.4627,3.4785,3.5001,3.5519,3.6554,3.7869,3.8839,3.9457,3.9822,4.026,4.1297,4.2334,4.3235,4.4133,4.5166,4.6337,4.7275,4.8243,4.9394,5.0629,5.1912,5.2789,5.3497,5.398,5.42,5.4228,5.4326,5.4603,5.4337,5.4287,5.4318,5.446,5.4752,5.5297,5.5923,5.6001,5.6188,5.6368,5.6368,5.6464,5.6697,5.6862,5.7034,5.7205,5.7485,5.7889,5.8318,5.8708,5.9176,5.9879,6.0425,6.0815,6.1049,6.1439,6.1595,6.1758,6.2196,6.3125,6.3806,6.4411,6.5316,6.5793,6.5866,6.5884,6.5872,6.5872,6.5808,6.5781,6.5843,6.6458,6.6776,6.7208,6.764,6.8148,6.854,6.9123,6.9635,6.9719,6.9884,6.9699,6.924,6.8755,6.8693,6.9084,6.9203,6.9283,6.955,6.9773,6.9652,6.9524,6.8893,6.8328,6.8051,6.7555,6.7631,6.7912,6.8596,6.9,6.9248,6.9423,6.9558,6.9836,7.0148,7.0499,7.085,7.2365,7.4082,7.4929,7.6233,7.6789,3.453,3.4546,3.4805,3.4982,3.5018,3.5383,3.5628,3.5923,3.6736,3.7753,3.8906,3.9681,4.0102,4.0334,4.0451,4.1435,4.2783,4.3444,4.4321,4.5626,4.6604,4.7642,4.8744,4.9928,5.1092,5.2095,5.2971,5.3721,5.4019,5.4164,5.4306,5.4443,5.4608,5.4723,5.4874,5.5037,5.5145,5.5198,5.5455,5.5689,5.5882,5.6063,5.6212,5.6573,5.6641,5.6952,5.7537,5.7728,5.797,5.8437,5.8804,5.9318,5.9864,6.0137,6.0691,6.1329,6.1432,6.1541,6.1642,6.1481,6.184,6.2519,6.3429,6.4145,6.4754,6.5505,6.6013,6.5923,6.5846,6.5793,6.5767,6.5778,6.5789,6.5915,6.6566,6.7305,6.7697,6.8433,6.9016,6.9284,6.9833,7.0342,7.031,7.0315,7.0281,6.9942,6.9408,6.9455,6.9885,6.9739,6.9702,7.0042,7.0224,6.9758,6.9477,6.8866,6.837,6.8151,6.8147,6.8295,6.8507,6.9015,6.942,6.9708,6.9635,6.9558,7.0012,7.0464,7.1286,7.2363,7.4047,7.5505,7.6167,7.6643,7.7158,3.5168,3.525,3.5943,3.6274,3.629,3.5643,3.5915,3.6914,3.8025,3.9075,3.9665,4.002,4.0238,4.0436,4.0705,4.1538,4.3024,4.3513,4.4376,4.5784,4.6625,4.7687,4.8829,4.9883,5.1173,5.2485,5.3407,5.3794,5.4055,5.4164,5.4271,5.4409,5.4608,5.4799,5.4941,5.5113,5.5168,5.5248,5.544,5.5646,5.5768,5.599,5.6432,5.7053,5.7136,5.7663,5.8431,5.8549,5.8841,5.9221,5.9551,6.0075,6.0504,6.0737,6.1244,6.1547,6.1559,6.1717,6.1991,6.2137,6.216,6.2842,6.3684,6.4483,6.4886,6.5527,6.5793,6.591,6.5935,6.5843,6.5674,6.6249,6.6413,6.6203,6.6748,6.7714,6.8411,6.9374,7.0031,7.0031,7.0381,7.0386,7.0353,7.0552,7.0598,7.0677,7.0223,7.0375,7.0761,7.0157,6.9852,7.038,7.0523,6.9943,6.9422,6.8987,6.8877,6.8837,6.8972,6.92,6.9408,6.9639,6.9667,6.9885,6.9742,6.9631,7.0514,7.1508,7.2795,7.4083,7.5433,7.627,7.67,7.7102,7.7485,3.5527,3.5676,3.6569,3.7001,3.7018,3.6584,3.7072,3.8249,3.9235,3.985,4.0054,4.0138,4.0458,4.0793,4.1096,4.1881,4.3508,4.3895,4.4481,4.5819,4.654,4.7682,4.8804,4.984,5.1257,5.2615,5.3281,5.3678,5.4018,5.4091,5.4233,5.4405,5.4608,5.4767,5.4912,5.5028,5.514,5.5222,5.5403,5.559,5.5818,5.6174,5.6792,5.7338,5.7896,5.8498,5.911,5.9433,5.9542,5.9882,6.0282,6.0682,6.0877,6.1159,6.1559,6.15,6.1458,6.174,6.2141,6.2762,6.2897,6.3439,6.4282,6.4817,6.5103,6.5664,6.6076,6.6192,6.6166,6.6123,6.6183,6.6835,6.6701,6.6489,6.6842,6.7775,6.8425,6.9349,7.0151,7.0228,7.0348,7.0353,7.04,7.0674,7.0908,7.0988,7.1103,7.137,7.1485,7.0725,7.0113,7.041,7.0479,6.9825,6.9466,6.9327,6.9304,6.9496,6.965,6.985,7.0144,7.0346,7.0221,7.0168,7.0202,7.0554,7.1479,7.2548,7.4081,7.5213,7.6119,7.6829,7.7243,7.7598,7.7928,3.5611,3.5792,3.6703,3.7201,3.7301,3.7967,3.8872,3.9799,3.9952,4.0087,4.0206,4.0374,4.0898,4.1594,4.1763,4.2737,4.3957,4.4451,4.5107,4.5939,4.6821,4.7985,4.9025,5.0235,5.1375,5.236,5.3157,5.3561,5.3944,5.4128,5.4268,5.4439,5.4608,5.4705,5.486,5.5122,5.5199,5.5244,5.5542,5.5733,5.5999,5.6708,5.7332,5.7954,5.8517,5.9335,5.993,6.0266,6.0616,6.1005,6.1355,6.1394,6.1445,6.1468,6.1412,6.1408,6.135,6.1832,6.2622,6.3317,6.3869,6.4324,6.4638,6.5166,6.5538,6.5807,6.6026,6.6461,6.6562,6.6737,6.6912,6.6825,6.6804,6.6812,6.6896,6.7477,6.8012,6.8814,6.9731,7.0113,7.031,7.0429,7.0598,7.087,7.1292,7.1902,7.213,7.2471,7.2356,7.1216,7.064,7.0407,7.0206,6.9595,6.9385,6.9552,7.0116,7.0413,7.0233,7.036,7.0629,7.0789,7.0575,7.0523,7.0877,7.1552,7.262,7.4041,7.5659,7.6526,7.6874,7.7385,7.7781,7.8112,7.8516,3.5803,3.6481,3.7392,3.8091,3.8712,3.912,3.9373,3.9487,3.9884,4.0375,4.1019,4.107,4.1665,4.2551,4.2636,4.3391,4.4076,4.4644,4.5126,4.6025,4.7031,4.792,4.8912,5.004,5.1203,5.2209,5.2944,5.344,5.3944,5.4128,5.4271,5.4405,5.4618,5.4716,5.5032,5.542,5.5417,5.5521,5.5962,5.6218,5.66,5.735,5.8077,5.878,5.9265,6.008,6.0681,6.0942,6.1214,6.125,6.1289,6.1289,6.1298,6.1252,6.1259,6.189,6.2073,6.2459,6.3661,6.4123,6.4537,6.5141,6.541,6.5551,6.582,6.591,6.6,6.6523,6.6957,6.7103,6.7467,6.7569,6.7271,6.7087,6.74,6.8088,6.8547,6.8935,6.9775,7.0162,7.0391,7.0671,7.087,7.114,7.1674,7.2547,7.3113,7.3378,7.3071,7.193,7.1165,7.0893,7.0277,6.9697,6.9866,7.0022,7.0789,7.133,7.1041,7.0861,7.1198,7.1223,7.0897,7.1196,7.1908,7.2798,7.3866,7.5241,7.6344,7.6883,7.7267,7.7814,7.8332,7.8736,7.9103,3.6725,3.7288,3.817,3.8838,3.9395,3.9907,4.006,4.0027,4.0339,4.09,4.1376,4.1767,4.2467,4.3391,4.3786,4.4303,4.4734,4.5511,4.6012,4.6377,4.7086,4.8099,4.9078,4.9983,5.1095,5.2082,5.282,5.3322,5.3907,5.4202,5.4306,5.4378,5.4702,5.5028,5.546,5.6109,5.6421,5.6454,5.6671,5.6981,5.7428,5.8028,5.8933,5.9545,5.9959,6.0648,6.107,6.1275,6.1225,6.1152,6.1074,6.1057,6.1175,6.1273,6.1543,6.2155,6.2497,6.3194,6.4116,6.4398,6.4987,6.546,6.5755,6.5755,6.5781,6.582,6.6304,6.6853,6.7218,6.7573,6.8059,6.8387,6.7852,6.7362,6.8126,6.8929,6.9164,6.9355,6.978,7.0209,7.056,7.0908,7.1179,7.1522,7.2016,7.2886,7.3338,7.3408,7.314,7.2339,7.1727,7.1374,7.0605,6.9948,7.0226,7.0612,7.1264,7.1703,7.1479,7.1414,7.1756,7.1965,7.1888,7.2469,7.3186,7.418,7.5065,7.5749,7.6637,7.7249,7.7834,7.839,7.8993,7.9617,7.9984,3.7814,3.8051,3.897,3.9495,3.9701,4.0528,4.0956,4.1096,4.1354,4.1511,4.1869,4.2449,4.3323,4.4233,4.4957,4.5198,4.558,4.6135,4.6604,4.7039,4.742,4.831,4.9431,5.0353,5.1213,5.2108,5.2784,5.3281,5.3869,5.4315,5.4537,5.4458,5.5348,5.586,5.6111,5.696,5.7315,5.7438,5.771,5.8054,5.8148,5.8765,5.9484,5.971,6.0239,6.0866,6.0941,6.0916,6.0866,6.0877,6.0882,6.0882,6.1241,6.1742,6.2105,6.256,6.3066,6.377,6.4435,6.4742,6.5022,6.5378,6.5608,6.5761,6.5876,6.574,6.6211,6.7027,6.7429,6.805,6.8602,6.9037,6.8884,6.847,6.8706,6.9088,6.9131,6.9404,6.9866,7.0217,7.0451,7.0761,7.1143,7.1447,7.2091,7.3073,7.3563,7.3556,7.3355,7.2746,7.2246,7.1858,7.1163,7.0616,7.0929,7.1359,7.1824,7.2025,7.187,7.1948,7.223,7.2608,7.3019,7.3636,7.4352,7.5334,7.6207,7.6637,7.7155,7.795,7.8563,7.9029,7.9617,8.0277,8.0571,3.7387,3.8117,3.9532,4.0226,4.0434,4.1297,4.1707,4.1903,4.2605,4.3022,4.3303,4.356,4.4197,4.5077,4.5922,4.6113,4.589,4.6741,4.6882,4.7387,4.7788,4.8714,4.9767,5.0609,5.1387,5.1922,5.2554,5.3318,5.4055,5.4615,5.5062,5.5319,5.6065,5.6584,5.6798,5.7687,5.8202,5.8299,5.8774,5.8889,5.8825,5.9378,6.0036,6.0188,6.0633,6.0704,6.0781,6.0866,6.0804,6.075,6.0704,6.0916,6.1414,6.2272,6.3065,6.3652,6.3893,6.4468,6.4918,6.5186,6.536,6.5475,6.5705,6.5992,6.6097,6.581,6.6145,6.7046,6.7791,6.8487,6.9107,6.9572,6.9846,6.9508,6.9208,6.9208,6.9175,6.9599,6.9988,7.0147,7.0267,7.0725,7.1143,7.1559,7.224,7.2806,7.3295,7.3552,7.3722,7.337,7.2724,7.2215,7.1711,7.1387,7.1668,7.2022,7.2484,7.2541,7.2447,7.2511,7.2717,7.3333,7.3884,7.4694,7.5508,7.6235,7.6783,7.7082,7.7646,7.8552,7.9213,7.9653,8.0167,8.0791,8.0938,3.7978,3.8578,3.983,4.0491,4.0821,4.1866,4.25,4.2711,4.3551,4.4054,4.4272,4.4414,4.4898,4.5834,4.668,4.6906,4.6615,4.7503,4.8047,4.8293,4.8557,4.9416,5.0277,5.0929,5.1378,5.1848,5.268,5.3506,5.4314,5.4876,5.5361,5.5995,5.6781,5.734,5.7632,5.8377,5.8899,5.9005,5.963,5.9608,5.9345,5.9832,6.0159,6.0332,6.0349,6.0441,6.0468,6.0623,6.0815,6.1134,6.1452,6.1797,6.2366,6.3083,6.3761,6.4221,6.4575,6.5063,6.537,6.56,6.5685,6.5847,6.6077,6.6506,6.7118,6.6987,6.7293,6.8112,6.8418,6.9037,6.9616,7.008,7.0086,6.9861,6.979,6.976,6.9915,7.0261,7.0228,7.0003,7.046,7.1257,7.1484,7.1181,7.1899,7.2879,7.3329,7.3544,7.3753,7.3959,7.3267,7.2808,7.2295,7.2052,7.2182,7.2559,7.3019,7.3013,7.3,7.3479,7.392,7.4283,7.4885,7.5581,7.6235,7.671,7.7181,7.7499,7.8259,7.914,7.9764,8.0351,8.0828,8.1232,8.1305,3.8931,3.927,4.026,4.0757,4.1088,4.2468,4.3205,4.3452,4.4226,4.4609,4.4708,4.4872,4.546,4.6344,4.7265,4.7507,4.779,4.8058,4.8707,4.9129,4.938,4.9977,5.0505,5.1034,5.1418,5.2054,5.2907,5.3865,5.4754,5.5431,5.6218,5.6855,5.7492,5.8165,5.8537,5.8985,5.9397,5.9427,5.9681,5.9782,5.9842,5.9975,6.0068,6.0099,6.0091,6.0129,6.0205,6.0463,6.0836,6.162,6.2404,6.2815,6.3265,6.3906,6.4279,6.47,6.5006,6.5312,6.5503,6.5665,6.6055,6.6407,6.6681,6.714,6.7789,6.8171,6.8515,6.8858,6.9164,6.9393,7.0004,7.0315,7.0247,7.0179,7.0147,7.0264,7.057,7.0837,7.0573,7.0271,7.0991,7.1787,7.1483,7.118,7.167,7.2687,7.3166,7.3495,7.374,7.3951,7.3747,7.3429,7.311,7.294,7.2806,7.2957,7.3401,7.3602,7.3665,7.4382,7.5014,7.5342,7.5756,7.6381,7.6893,7.7254,7.7646,7.8038,7.8809,7.969,8.0204,8.0755,8.1269,8.1599,8.1636,3.9314,4.0227,4.1541,4.2219,4.2522,4.3437,4.3977,4.4091,4.4395,4.4609,4.4699,4.4844,4.5405,4.6344,4.73,4.7803,4.8169,4.8508,4.8846,4.9234,4.9641,5.0258,5.0751,5.1088,5.147,5.2246,5.3181,5.4056,5.5299,5.6392,5.7183,5.7602,5.8312,5.8802,5.9065,5.9401,5.9474,5.9545,5.9581,5.9685,5.9794,5.9928,5.9975,6.0007,6.0038,6.0525,6.0905,6.1126,6.1659,6.2376,6.3238,6.3719,6.4123,6.4573,6.4917,6.4993,6.5299,6.5452,6.5605,6.5994,6.6459,6.6885,6.7273,6.7921,6.8422,6.8765,6.9146,6.9565,6.9752,6.9671,7.0052,7.0209,7.0251,7.0149,7.0115,7.057,7.095,7.1331,7.1409,7.156,7.1977,7.1937,7.1367,7.1252,7.1398,7.2105,7.2359,7.2799,7.3913,7.4047,7.4151,7.3944,7.3699,7.3677,7.359,7.3391,7.3684,7.3972,7.4386,7.4978,7.5665,7.6235,7.671,7.6893,7.7265,7.7623,7.8027,7.8479,7.936,8.0167,8.0608,8.1122,8.1636,8.1929,8.1893]},{"header":{"parameterUnit":"m.s-1","parameterCategory":1,"la1":31.0,"la2":29.5877,"lo1":-88.7671,"lo2":-86.6584,"dy":0.0162,"dx":0.0185,"nx":115,"ny":88,"refTime":"2024-10-10T18:00:00:Z","depth":0,"parameterNumber":3,"parameterNumberName":"V-component_of_WINDS"},"data":[0.0,0.0,0.0,0.0,0.0,0.0,0.0,0.0,0.0,0.0,0.0,0.0,0.0,0.0,0.0,0.0,0.0,0.0,0.0,0.0,0.0,0.0,0.0,0.0,0.0,0.0,0.0,0.0,0.0,0.0,0.0,0.0,0.0,0.0,0.0,0.0,0.0,0.0,0.0,0.0,0.0,0.0,0.0,0.0,0.0,0.0,0.0,0.0,0.0,0.0,0.0,0.0,0.0,0.0,0.0,0.0,0.0,0.0,0.0,0.0,0.0,0.0,0.0,0.0,0.0,0.0,0.0,0.0,0.0,0.0,0.0,0.0,0.0,0.0,0.0,0.0,0.0,0.0,0.0,0.0,0.0,0.0,0.0,0.0,0.0,0.0,0.0,0.0,0.0,0.0,0.0,0.0,0.0,0.0,0.0,0.0,0.0,0.0,0.0,0.0,0.0,0.0,0.0,0.0,0.0,0.0,0.0,0.0,0.0,0.0,0.0,0.0,0.0,0.0,0.0,0.0,0.0,0.0,0.0,0.0,0.0,0.0,0.0,0.0,0.0,0.0,0.0,0.0,0.0,0.0,0.0,0.0,0.0,0.0,0.0,0.0,0.0,0.0,0.0,0.0,0.0,0.0,0.0,0.0,0.0,0.0,0.0,0.0,0.0,0.0,0.0,0.0,0.0,0.0,0.0,0.0,0.0,0.0,0.0,0.0,0.0,0.0,0.0,0.0,0.0,0.0,0.0,0.0,0.0,0.0,0.0,0.0,0.0,0.0,0.0,0.0,0.0,0.0,0.0,0.0,0.0,0.0,0.0,0.0,0.0,0.0,0.0,0.0,0.0,0.0,0.0,0.0,0.0,0.0,0.0,0.0,0.0,0.0,0.0,0.0,0.0,0.0,0.0,0.0,0.0,0.0,0.0,0.0,0.0,0.0,0.0,0.0,0.0,0.0,0.0,0.0,0.0,0.0,0.0,0.0,0.0,0.0,0.0,0.0,0.0,0.0,0.0,0.0,0.0,0.0,0.0,0.0,0.0,0.0,0.0,0.0,0.0,0.0,0.0,0.0,0.0,0.0,0.0,0.0,0.0,0.0,0.0,0.0,0.0,0.0,0.0,0.0,0.0,0.0,0.0,0.0,0.0,0.0,0.0,0.0,0.0,0.0,0.0,0.0,0.0,0.0,0.0,0.0,0.0,0.0,0.0,0.0,0.0,0.0,0.0,0.0,0.0,0.0,0.0,0.0,0.0,0.0,0.0,0.0,0.0,0.0,0.0,0.0,0.0,0.0,0.0,0.0,0.0,0.0,0.0,0.0,0.0,0.0,0.0,0.0,0.0,0.0,0.0,0.0,0.0,0.0,0.0,0.0,0.0,0.0,0.0,0.0,0.0,0.0,0.0,0.0,0.0,0.0,0.0,0.0,0.0,0.0,0.0,0.0,0.0,0.0,0.0,0.0,0.0,0.0,0.0,0.0,0.0,0.0,0.0,0.0,0.0,0.0,0.0,0.0,0.0,0.0,0.0,0.0,0.0,0.0,0.0,0.0,0.0,0.0,0.0,0.0,0.0,0.0,0.0,0.0,0.0,0.0,0.0,0.0,0.0,0.0,0.0,0.0,0.0,0.0,0.0,0.0,0.0,0.0,0.0,0.0,0.0,0.0,0.0,0.0,0.0,0.0,0.0,0.0,0.0,0.0,0.0,0.0,0.0,0.0,0.0,0.0,0.0,0.0,0.0,0.0,0.0,0.0,0.0,0.0,0.0,0.0,0.0,0.0,0.0,0.0,0.0,0.0,0.0,0.0,0.0,0.0,0.0,0.0,0.0,0.0,0.0,0.0,0.0,0.0,0.0,0.0,0.0,0.0,0.0,0.0,0.0,0.0,0.0,0.0,0.0,0.0,0.0,0.0,0.0,0.0,0.0,0.0,0.0,0.0,0.0,0.0,0.0,0.0,0.0,0.0,0.0,0.0,0.0,0.0,0.0,0.0,0.0,0.0,0.0,0.0,0.0,0.0,0.0,0.0,0.0,0.0,0.0,0.0,0.0,0.0,0.0,0.0,0.0,0.0,0.0,0.0,0.0,0.0,0.0,0.0,0.0,0.0,0.0,0.0,0.0,0.0,0.0,0.0,0.0,0.0,0.0,0.0,0.0,0.0,0.0,0.0,0.0,0.0,0.0,0.0,0.0,0.0,0.0,0.0,0.0,0.0,0.0,0.0,0.0,0.0,0.0,0.0,0.0,0.0,0.0,0.0,0.0,0.0,0.0,0.0,0.0,0.0,0.0,0.0,0.0,0.0,0.0,0.0,0.0,0.0,0.0,0.0,0.0,0.0,0.0,0.0,0.0,0.0,0.0,0.0,0.0,0.0,0.0,0.0,0.0,0.0,0.0,0.0,0.0,0.0,0.0,0.0,0.0,0.0,0.0,0.0,0.0,0.0,0.0,0.0,0.0,0.0,0.0,0.0,0.0,0.0,0.0,0.0,0.0,0.0,0.0,0.0,0.0,0.0,0.0,0.0,0.0,0.0,0.0,0.0,0.0,0.0,0.0,0.0,0.0,0.0,0.0,0.0,0.0,0.0,0.0,0.0,0.0,0.0,0.0,0.0,0.0,0.0,0.0,0.0,0.0,0.0,0.0,0.0,0.0,0.0,0.0,0.0,0.0,0.0,0.0,0.0,0.0,0.0,0.0,0.0,0.0,0.0,0.0,0.0,0.0,0.0,0.0,0.0,0.0,0.0,0.0,0.0,0.0,0.0,0.0,0.0,0.0,0.0,0.0,0.0,0.0,0.0,0.0,0.0,0.0,0.0,0.0,0.0,0.0,0.0,0.0,0.0,0.0,0.0,0.0,0.0,0.0,0.0,0.0,0.0,0.0,0.0,0.0,0.0,0.0,0.0,0.0,0.0,0.0,0.0,0.0,0.0,0.0,0.0,0.0,0.0,0.0,0.0,0.0,0.0,0.0,0.0,0.0,0.0,0.0,0.0,0.0,0.0,0.0,0.0,0.0,0.0,0.0,0.0,0.0,0.0,0.0,0.0,0.0,0.0,0.0,0.0,0.0,0.0,0.0,0.0,0.0,0.0,0.0,0.0,0.0,0.0,0.0,0.0,0.0,0.0,0.0,0.0,0.0,0.0,0.0,0.0,0.0,0.0,0.0,0.0,0.0,0.0,0.0,0.0,0.0,0.0,0.0,0.0,0.0,0.0,0.0,0.0,0.0,0.0,0.0,0.0,0.0,0.0,0.0,0.0,0.0,0.0,0.0,0.0,0.0,0.0,0.0,0.0,0.0,0.0,0.0,0.0,0.0,0.0,0.0,0.0,0.0,0.0,0.0,0.0,0.0,0.0,0.0,0.0,0.0,0.0,0.0,0.0,0.0,0.0,0.0,0.0,0.0,0.0,0.0,0.0,0.0,0.0,0.0,0.0,0.0,0.0,0.0,0.0,0.0,0.0,0.0,0.0,0.0,0.0,0.0,0.0,0.0,0.0,0.0,0.0,0.0,0.0,0.0,0.0,0.0,0.0,0.0,0.0,0.0,0.0,0.0,0.0,0.0,0.0,0.0,0.0,0.0,0.0,0.0,0.0,0.0,0.0,0.0,0.0,0.0,0.0,0.0,0.0,0.0,0.0,0.0,0.0,0.0,0.0,0.0,0.0,0.0,0.0,0.0,0.0,0.0,0.0,0.0,0.0,0.0,0.0,0.0,0.0,0.0,0.0,0.0,0.0,0.0,0.0,0.0,0.0,0.0,0.0,0.0,0.0,0.0,0.0,0.0,0.0,0.0,0.0,0.0,0.0,0.0,0.0,0.0,0.0,0.0,0.0,0.0,0.0,0.0,0.0,0.0,0.0,0.0,0.0,0.0,0.0,0.0,0.0,0.0,0.0,0.0,0.0,0.0,0.0,0.0,0.0,0.0,0.0,0.0,0.0,0.0,0.0,0.0,0.0,0.0,0.0,0.0,0.0,0.0,0.0,0.0,0.0,0.0,0.0,0.0,0.0,0.0,0.0,0.0,0.0,0.0,0.0,0.0,0.0,0.0,0.0,0.0,0.0,0.0,0.0,0.0,0.0,0.0,0.0,0.0,0.0,0.0,0.0,0.0,0.0,0.0,0.0,0.0,0.0,0.0,0.0,0.0,0.0,0.0,0.0,0.0,0.0,0.0,0.0,0.0,0.0,0.0,0.0,0.0,0.0,0.0,0.0,0.0,0.0,0.0,0.0,0.0,0.0,0.0,0.0,0.0,0.0,0.0,0.0,0.0,0.0,0.0,0.0,0.5275,0.0,0.0,0.0,0.0,0.0,0.0,0.0,0.0,0.0,0.0,0.0,0.0,0.0,0.0,0.0,0.0,0.0,0.0,0.0,0.0,0.0,0.0,0.0,0.0,0.0,0.0,0.0,0.0,0.0,0.0,0.0,0.0,0.0,0.0,0.0,0.0,0.0,0.0,0.0,0.0,0.0,0.0,0.0,0.0,0.0,0.0,0.0,0.0,0.0,0.0,0.0,0.0,0.0,0.0,0.0,0.0,0.0,0.0,0.0,0.0,0.0,0.0,0.0,0.0,0.0,0.0,0.0,0.0,0.0,0.0,0.0,0.0,0.0,0.0,0.0,0.0,0.0,0.0,0.0,0.0,0.0,0.0,0.0,0.0,0.0,0.0,0.0,0.0,0.0,0.0,0.0,0.0,0.0,0.0,0.0,0.0,0.0,0.0,0.0,0.0,0.0,0.0,0.0,0.0,0.0,0.0,0.0,0.0,0.0,0.0,0.7287,0.6904,0.6,0.5489,0.5435,0.0,0.0,0.0,0.0,0.0,0.0,0.0,0.0,0.0,0.0,0.0,0.0,0.0,0.0,0.0,0.0,0.0,0.0,0.0,0.0,0.0,0.0,0.0,0.0,0.0,0.0,0.0,0.0,0.0,0.0,0.0,0.0,0.0,0.0,0.0,0.0,0.0,0.0,0.0,0.0,0.0,0.0,0.0,0.0,0.0,0.0,0.0,0.0,0.0,0.0,0.0,0.0,0.0,0.0,0.0,0.0,0.0,0.0,0.0,0.0,0.0,0.0,0.0,0.0,0.0,0.0,0.0,0.0,0.0,0.0,0.0,0.0,0.0,0.0,0.0,0.0,0.0,0.0,0.0,0.0,0.0,0.0,0.0,0.0,0.0,0.0,0.0,0.0,0.0,0.0,0.0,0.0,0.0,0.0,0.0,0.0,0.0,0.0,0.0,0.0,0.0,0.0,0.0,0.0,0.0,0.0,0.0,0.0,0.0,0.0,0.0,0.0,0.6041,0.543,0.5093,0.0,0.0,0.0,0.0,0.0,0.0,0.0,0.0,0.0,0.0,0.0,0.0,0.0,0.0,0.0,0.0,0.0,0.0,0.0,0.0,0.0,0.0,0.0,0.0,0.0,0.0,0.0,0.0,0.0,0.0,0.0,0.0,0.0,0.0,0.0,0.0,0.0,0.0,0.0,0.0,0.0,0.0,0.0,0.0,0.0,0.0,0.0,0.0,0.0,0.0,0.0,0.0,0.0,0.0,0.0,0.0,0.0,0.0,0.0,0.0,0.0,0.0,0.0,0.0,0.0,0.0,0.0,0.0,0.0,0.0,0.0,0.0,0.0,0.0,0.0,0.0,0.0,0.0,0.0,0.0,0.0,0.0,0.0,0.0,0.0,0.0,0.0,0.0,0.0,0.0,0.0,0.0,0.0,0.0,0.0,0.0,0.0,0.0,0.0,0.0,0.0,0.0,0.0,0.0,0.0,0.0,0.0,0.0,0.0,0.0,0.7173,0.6524,0.593,0.0,0.3862,0.0,0.0,0.0,0.0,0.0,0.0,0.0,0.0,0.0,0.0,0.0,0.0,0.0,0.0,0.0,0.0,0.0,0.0,0.0,0.0,0.0,0.0,0.0,0.0,0.0,0.0,0.0,0.0,0.0,0.0,0.0,0.0,0.0,0.0,0.0,0.0,0.0,0.0,0.0,0.0,0.0,0.0,0.0,0.0,0.0,0.0,0.0,0.0,0.0,0.0,0.0,0.0,0.0,0.0,0.0,0.0,0.0,0.0,0.0,0.0,0.0,0.0,0.0,0.0,0.0,0.0,0.0,0.0,0.0,0.0,0.0,0.0,0.0,0.0,0.0,0.0,0.0,0.0,0.0,0.0,0.0,0.0,0.0,0.0,0.0,0.0,0.0,0.0,0.0,0.0,0.0,0.0,0.0,0.0,0.0,0.0,0.0,0.0,0.0,0.0,0.0,0.0,0.0,0.0,0.0,0.0,0.0,0.0,0.0,0.0,0.0,0.6464,0.5777,0.5011,0.0,0.0,0.0,0.0,0.0,0.0,0.0,0.0,0.0,0.0,0.0,0.0,0.0,0.0,0.0,0.0,0.0,0.0,0.0,0.0,0.0,0.0,0.0,0.0,0.0,0.0,0.0,0.0,0.0,0.0,0.0,0.0,0.0,0.0,0.0,0.0,0.0,0.0,0.0,0.0,0.0,0.0,0.0,0.0,0.0,0.0,0.0,0.0,0.0,0.0,0.0,0.0,0.0,0.0,0.0,0.0,0.0,0.0,0.0,0.0,0.0,0.0,0.0,0.0,0.0,0.0,0.0,0.0,0.0,0.0,0.0,0.0,0.0,0.0,0.0,0.0,0.0,0.0,0.0,0.0,0.0,0.0,0.0,0.0,0.0,0.0,0.0,0.0,0.0,0.0,0.0,0.0,0.0,0.0,0.0,0.0,0.0,0.0,0.0,0.0,0.0,0.0,0.0,0.0,0.0,0.0,0.0,0.0,0.0,0.0,0.758,0.0,0.6322,0.5646,0.5017,0.4227,0.0,0.0,0.0,0.0,0.0,0.0,0.0,0.0,0.0,0.0,0.0,0.0,0.0,0.0,0.0,0.0,0.0,0.0,0.0,0.0,0.0,0.0,0.0,0.0,0.0,0.0,0.0,0.0,0.0,0.0,0.0,0.0,0.0,0.0,0.0,0.0,0.0,0.0,0.0,0.0,0.0,0.0,0.0,0.0,0.0,0.0,0.0,0.0,0.0,0.0,0.0,0.0,0.0,0.0,0.0,0.0,0.0,0.0,0.0,0.0,0.0,0.0,0.0,0.0,0.0,0.0,0.0,0.0,0.0,0.0,0.0,0.0,0.0,0.0,0.0,0.0,0.0,0.0,0.0,0.0,0.0,0.0,0.0,0.0,0.0,0.0,0.0,0.0,0.0,0.0,0.0,0.0,0.0,0.0,0.0,0.0,0.0,0.0,0.0,0.0,0.0,0.0,0.0,0.0,0.0,0.0,0.0,0.0,0.0,0.7318,0.6826,0.594,0.5508,0.4794,0.0,0.0,0.0,0.0,0.0,0.0,0.0,0.0,0.0,0.0,0.0,0.0,0.0,0.0,0.0,0.0,0.0,0.0,0.0,0.0,0.0,0.0,0.0,0.0,0.0,0.0,0.0,0.0,0.0,0.0,0.0,0.0,0.0,0.0,0.0,0.0,0.0,0.0,0.0,0.0,0.0,0.0,0.0,0.0,0.0,0.0,0.0,0.0,0.0,0.0,0.0,0.0,0.0,0.0,0.0,0.0,0.0,0.0,0.0,0.0,0.0,0.0,0.0,0.0,0.0,0.0,0.0,0.0,0.0,0.0,0.0,0.0,0.0,0.0,0.0,0.0,0.0,0.0,0.0,0.0,0.0,0.0,0.0,0.0,0.0,0.0,0.0,0.0,0.0,0.0,0.0,0.0,0.0,0.0,0.0,0.0,0.0,0.0,0.0,0.0,0.0,0.0,0.0,0.0,0.0,0.0,0.0,0.0,0.0,0.7038,0.6525,0.6255,0.6294,0.5445,0.4717,0.0,0.0,0.0,0.0,0.0,0.0,0.0,0.0,0.0,0.0,0.0,0.0,0.0,0.0,0.0,0.0,0.0,0.0,0.0,0.0,0.0,0.0,0.0,0.0,0.0,0.0,0.0,0.0,0.0,0.0,0.0,0.0,0.0,0.0,0.0,0.0,0.0,0.0,0.0,0.0,0.0,0.0,0.0,0.0,0.0,0.0,0.0,0.0,0.0,0.0,0.0,0.0,0.0,0.0,0.0,0.0,0.0,0.0,0.0,0.0,0.0,0.0,0.0,0.0,0.0,0.0,0.0,0.0,0.0,0.0,0.0,0.0,0.0,0.0,0.0,0.0,0.0,0.0,0.0,0.0,0.0,0.0,0.0,0.0,0.0,0.0,0.0,0.0,0.0,0.0,0.0,0.0,0.0,0.0,0.0,0.0,0.0,0.0,0.0,0.0,0.0,0.0,0.0,0.0,0.0,0.0,0.0,0.0,0.0,0.6687,0.0,0.5969,0.0,0.5359,0.4675,0.0,0.0,0.0,0.0,0.0,0.0,0.0,0.0,0.0,0.0,0.0,0.0,0.0,0.0,0.0,0.0,0.0,0.0,0.0,0.0,0.0,0.0,0.0,0.0,0.0,0.0,0.0,0.0,0.0,0.0,0.0,0.0,0.0,0.0,0.0,0.0,0.0,0.0,0.0,0.0,0.0,0.0,0.0,0.0,0.0,0.0,0.0,0.0,0.0,0.0,0.0,0.0,0.0,0.0,0.0,0.0,0.0,0.0,0.0,0.0,0.0,0.0,0.0,0.0,0.0,0.0,0.0,0.0,0.0,0.0,0.0,0.0,0.0,0.0,0.0,0.0,0.0,0.0,0.0,0.0,0.0,0.0,0.0,0.0,0.0,0.0,0.0,0.0,0.0,0.0,0.0,0.0,0.0,0.0,0.0,0.0,0.0,0.0,0.0,0.0,0.0,0.0,0.0,0.0,0.0,0.0,0.0,0.0,0.0,0.6298,0.6207,0.5991,0.5629,0.5347,0.4599,0.0,0.0,0.0,0.0,0.0,0.0,0.0,0.0,0.0,0.0,0.0,0.0,0.0,0.0,0.0,0.0,0.0,0.0,0.0,0.0,0.0,0.0,0.0,0.0,0.0,0.0,0.0,0.0,0.0,0.0,0.0,0.0,0.0,0.0,0.0,0.0,0.0,0.0,0.0,0.0,0.0,0.0,0.0,0.0,0.0,0.0,0.0,0.0,0.0,0.0,0.0,0.0,0.0,0.0,0.0,0.0,0.0,0.0,0.0,0.0,0.0,0.0,0.0,0.0,0.0,0.0,0.0,0.0,0.0,0.0,0.0,0.0,0.0,0.0,0.0,0.0,0.0,0.0,0.0,0.0,0.0,0.0,0.0,0.0,0.0,0.0,0.0,0.0,0.0,0.0,0.0,0.0,0.0,0.0,0.0,0.0,0.0,0.0,0.0,0.0,0.0,0.0,0.0,0.0,0.0,0.0,0.0,0.0,0.0,0.6329,0.6157,0.6082,0.6101,0.54,0.4627,0.0,0.0,0.0,0.0,0.0,0.0,0.0,0.0,0.0,0.0,0.0,0.0,0.0,0.0,0.0,0.0,0.0,0.0,0.0,0.0,0.0,0.0,0.0,0.0,0.0,0.0,0.0,0.0,0.0,0.0,0.0,0.0,0.0,0.0,0.0,0.0,0.0,0.0,0.0,0.0,0.0,0.0,0.0,0.0,0.0,0.0,0.0,0.0,0.0,0.0,0.0,0.0,0.0,0.0,0.0,0.0,0.0,0.0,0.0,0.0,0.0,0.0,0.0,0.0,0.0,0.0,0.0,0.0,0.0,0.0,0.0,0.0,0.0,0.0,0.0,0.0,0.0,0.0,0.0,0.0,0.0,0.0,0.0,0.0,0.0,0.0,0.0,0.0,0.0,0.0,0.0,0.0,0.0,0.0,0.0,0.0,0.0,0.0,0.0,0.0,0.0,0.0,0.0,0.0,0.0,0.0,0.0,0.0,0.0,0.6282,0.6207,0.6134,0.6154,0.5659,0.4944,0.3969,0.0,0.0,0.0,0.0,0.0,0.0,0.0,0.0,0.0,0.0,0.0,0.0,0.0,0.0,0.0,0.0,0.0,0.0,0.0,0.0,0.0,0.0,0.0,0.0,0.0,0.0,0.0,0.0,0.0,0.0,0.0,0.0,0.0,0.0,0.0,0.0,0.0,0.0,0.0,0.0,0.0,0.0,0.0,0.0,0.0,0.0,0.0,0.0,0.0,0.0,0.0,0.0,0.0,0.0,0.0,0.0,0.0,0.0,0.0,0.0,0.0,0.0,0.0,0.0,0.0,0.0,0.0,0.0,0.0,0.0,0.0,0.0,0.0,0.0,0.0,0.0,0.0,0.0,0.0,0.0,0.0,0.0,0.0,0.0,0.0,0.0,0.0,0.0,0.0,0.0,0.0,0.0,0.0,0.0,0.0,0.0,0.0,0.0,0.0,0.0,0.0,0.0,0.0,0.0,0.0,0.0,0.0,0.0,0.6202,0.6365,0.6189,0.5684,0.5915,0.5383,0.0,0.0,0.0,0.0,0.0,0.0,0.0,0.0,0.0,0.0,0.0,0.0,0.0,0.0,0.0,0.0,0.0,0.0,0.0,0.0,0.0,0.0,0.0,0.0,0.0,0.0,0.0,0.0,0.0,0.0,0.0,0.0,0.0,0.0,0.0,0.0,0.0,0.0,0.0,0.0,0.0,0.0,0.0,0.0,0.0,0.0,0.0,0.0,0.0,0.0,0.0,0.0,0.0,0.0,0.0,0.0,0.0,0.0,0.0,0.0,0.0,0.0,0.0,0.0,0.0,0.0,0.0,0.0,0.0,0.0,0.0,0.0,0.0,0.0,0.0,0.0,0.0,0.0,0.0,0.0,0.0,0.0,0.0,0.0,0.0,0.0,0.0,0.0,0.0,0.0,0.0,0.0,0.0,0.0,0.0,0.0,0.0,0.0,0.0,0.0,0.0,0.0,0.0,0.0,0.0,0.0,0.0,0.0,0.0,0.5973,0.6137,0.6113,0.5892,0.5593,0.4812,0.0,0.0,0.0,0.0,0.0,0.0,0.0,0.0,0.0,0.0,0.0,0.0,0.0,0.0,0.0,0.0,0.0,0.0,0.0,0.0,0.0,0.0,0.0,0.0,0.0,0.0,0.0,0.0,0.0,0.0,0.0,0.0,0.0,0.0,0.0,0.0,0.0,0.0,0.0,0.0,0.0,0.0,0.0,0.0,0.0,0.0,0.0,0.0,0.0,0.0,0.0,0.0,0.0,0.0,0.0,0.0,0.0,0.0,0.0,0.0,0.0,0.0,0.0,0.0,0.0,0.0,0.0,0.0,0.0,0.0,0.0,0.0,0.0,0.0,0.0,0.0,0.0,0.0,0.0,0.0,0.0,0.0,0.0,0.0,0.0,0.0,0.0,0.0,0.0,0.0,0.0,0.0,0.0,0.0,0.0,0.0,0.0,0.0,0.0,0.0,0.0,0.0,0.0,0.0,0.0,0.0,0.0,0.0,0.6905,0.5826,0.6215,0.618,0.5713,0.5721,0.4931,0.0,0.0,0.0,0.0,0.0,0.0,0.0,0.0,0.0,0.0,0.0,0.0,0.0,0.0,0.0,0.0,0.0,0.0,0.0,0.0,0.0,0.0,0.0,0.0,0.0,0.0,0.0,0.0,0.0,0.0,0.0,0.0,0.0,0.0,0.0,0.0,0.0,0.0,0.0,0.0,0.0,0.0,0.0,0.0,0.0,0.0,0.0,0.0,0.0,0.0,0.0,0.0,0.0,0.0,0.0,0.0,0.0,0.0,0.0,0.0,0.0,0.0,0.0,0.0,0.0,0.0,0.0,0.0,0.0,0.0,0.0,0.0,0.0,0.0,0.0,0.0,0.0,0.0,0.0,0.0,0.0,0.0,0.0,0.0,0.0,0.0,0.0,0.0,0.0,0.0,0.0,0.0,0.0,0.0,0.0,0.0,0.0,0.0,0.0,0.0,0.0,0.0,0.0,0.0,0.0,0.0,0.0,0.0,0.7687,0.5932,0.6374,0.6241,0.5399,0.5886,0.537,0.0,0.0,0.0,0.0,0.0,0.0,0.0,0.0,0.0,0.0,0.0,0.0,0.0,0.0,0.0,0.0,0.0,0.0,0.0,0.0,0.0,0.0,0.0,0.0,0.0,0.0,0.0,0.0,0.0,0.0,0.0,0.0,0.0,0.0,0.0,0.0,0.0,0.0,0.0,0.0,0.0,0.0,0.0,0.0,0.0,0.0,0.0,0.0,0.0,0.0,0.0,0.0,0.0,0.0,0.0,0.0,0.0,0.0,0.0,0.0,0.0,0.0,0.0,0.0,0.0,0.0,0.0,0.0,0.0,0.0,0.0,0.0,0.0,0.0,0.0,0.0,0.0,0.0,0.0,0.0,0.0,0.0,0.0,0.0,0.0,0.0,0.0,0.0,0.0,0.0,0.0,0.0,0.0,0.0,0.0,0.0,0.0,0.0,0.0,0.0,0.0,0.0,0.0,0.0,0.0,0.0,0.0,0.0,0.7845,0.6159,0.6679,0.6429,0.5185,0.5381,0.4855,0.0,0.0,0.0,0.0,0.0,0.0,0.0,0.0,0.0,0.0,0.0,0.0,0.0,0.0,0.0,0.0,0.0,0.0,0.0,0.0,0.0,0.0,0.0,0.0,0.0,0.0,0.0,0.0,0.0,0.0,0.0,0.0,0.0,0.0,0.0,0.0,0.0,0.0,0.0,0.0,0.0,0.0,0.0,0.0,0.0,0.0,0.0,0.0,0.9784,0.0,0.0,0.0,0.0,0.0,0.0,0.0,0.0,0.0,0.0,0.0,0.0,0.0,0.0,0.0,0.0,0.0,0.0,0.0,0.0,0.0,0.0,0.0,0.0,0.0,0.0,0.0,0.0,0.0,0.0,0.0,0.0,0.0,0.0,0.0,0.0,0.0,0.0,0.0,0.0,0.0,0.0,0.0,0.0,0.0,0.0,0.0,0.0,0.0,0.0,0.0,0.0,0.0,0.0,0.0,0.0,0.0,0.0,0.0,0.8261,0.6763,0.7119,0.6727,0.5272,0.4904,0.4498,0.0,0.0,0.0,0.0,0.0,0.0,0.0,0.0,0.0,0.0,0.0,0.0,0.0,0.0,0.0,0.0,0.0,0.0,0.0,0.0,0.0,0.0,0.0,0.0,0.0,0.0,0.0,0.0,0.0,0.0,0.0,0.0,0.0,0.0,0.0,0.0,0.0,0.0,0.0,0.0,0.0,0.0,0.0,0.0,0.0,0.0,0.0,0.0,0.0,0.0,0.0,0.0,0.0,0.0,0.0,0.0,0.0,0.0,0.0,0.0,0.0,0.0,0.0,0.0,0.0,0.0,0.0,0.0,0.0,0.0,0.0,0.0,0.0,0.0,0.0,0.0,0.0,0.0,0.0,0.0,0.0,0.0,0.0,0.0,0.0,0.0,0.0,0.0,0.0,0.0,0.0,0.0,0.0,0.0,0.0,0.0,0.0,0.0,0.0,0.0,0.0,0.0,0.0,0.0,0.0,0.0,0.0,0.9225,0.8674,0.7373,0.7528,0.6888,0.5243,0.4661,0.4285,0.4246,0.0,0.0,0.0,0.0,0.0,0.0,0.0,0.0,0.0,0.0,0.0,0.0,0.0,0.0,0.0,0.0,0.0,0.0,0.0,0.0,0.0,0.0,0.0,0.0,0.0,0.0,0.0,0.0,0.0,0.0,0.0,0.0,0.0,0.0,0.0,0.0,0.0,0.0,0.8885,0.9973,0.0,0.0,0.0,0.0,0.0,0.0,0.0,0.0,0.9903,0.0,0.0,0.0,0.0,0.0,0.0,0.0,0.0,0.0,0.0,0.0,0.0,0.0,0.0,0.0,0.0,0.0,0.0,0.0,0.0,0.0,0.0,0.0,0.0,0.0,0.0,0.0,0.0,0.0,0.0,0.0,0.0,0.0,0.0,0.0,0.0,0.0,0.0,0.0,0.0,0.0,0.0,0.0,0.0,0.0,0.0,0.0,0.0,0.0,0.0,0.0,0.0,0.0,0.0,0.0,0.0,0.8846,0.8766,0.8371,0.7714,0.7183,0.6198,0.4916,0.471,0.4467,0.397,0.0,0.0,0.0,0.0,0.0,0.0,0.0,0.0,0.0,0.0,0.0,0.0,0.0,0.0,0.0,0.0,0.0,0.0,0.0,0.0,0.0,0.0,0.0,0.0,0.0,0.0,0.0,0.0,0.0,0.0,0.0,0.0,0.0,0.0,0.0,0.0,0.0,0.0,0.0,1.0941,1.2004,0.0,0.0,0.0,0.0,0.0,0.0,0.0,0.0,1.0934,0.0,0.0,0.0,0.0,0.0,0.0,0.0,0.0,0.0,0.0,0.0,0.0,0.0,0.0,0.0,0.0,0.0,0.0,0.0,0.0,0.0,0.0,0.0,0.0,0.0,0.0,0.0,0.0,0.0,0.0,0.0,0.0,0.0,0.0,0.0,0.0,0.0,0.0,0.0,0.0,0.0,0.0,0.0,0.0,0.0,0.0,0.0,0.0,0.0,0.0,0.0,0.0,0.0,0.0,0.0,0.8598,0.8726,0.8438,0.7926,0.7011,0.5908,0.4867,0.4279,0.394,0.0,0.0,0.0,0.0,0.0,0.0,0.0,0.0,0.0,0.0,0.0,0.0,0.0,0.0,0.0,0.0,0.0,0.0,0.0,0.0,0.0,0.0,0.0,0.0,0.0,0.0,0.0,0.0,0.0,0.0,0.0,0.0,0.0,0.0,0.0,0.0,0.0,0.0,0.0,0.0,1.0888,1.1725,1.2023,0.0,0.0,0.0,0.0,0.0,0.0,1.1632,1.2278,0.0,0.0,0.0,0.0,0.0,0.0,0.0,0.0,0.0,0.0,0.0,0.0,0.0,0.0,0.0,0.0,0.0,0.0,0.0,0.0,0.0,0.0,0.0,0.0,0.0,0.0,0.0,0.0,0.0,0.0,0.0,0.0,0.0,0.0,0.0,0.0,0.0,0.0,0.0,0.0,0.0,0.0,0.0,0.0,0.0,0.0,0.0,0.0,0.0,0.0,0.0,0.0,0.0,0.0,0.0,0.8381,0.8435,0.8255,0.7865,0.6695,0.5596,0.4704,0.3947,0.3407,0.0,0.0,0.0,0.0,0.0,0.0,0.0,0.0,0.0,0.0,0.0,0.0,0.0,0.0,0.0,0.0,0.0,0.0,0.0,0.0,0.0,0.0,0.0,0.0,0.0,0.0,0.0,0.0,0.0,0.0,0.0,0.0,0.0,0.0,0.0,0.0,0.0,0.0,0.0,0.0,0.0,1.1182,1.1909,1.1899,0.0,0.0,0.0,0.0,1.1085,1.2457,0.0,0.0,0.0,0.0,0.0,0.0,0.0,0.0,0.0,0.0,0.0,0.0,0.0,0.0,0.0,0.0,0.0,0.0,0.0,0.0,0.0,0.0,0.0,0.0,0.0,0.0,0.0,0.0,0.0,0.0,0.0,0.0,0.0,0.0,0.0,0.0,0.0,0.0,0.0,0.0,0.0,0.0,0.0,0.0,0.0,0.0,0.0,0.0,0.0,0.0,0.0,0.0,0.0,0.0,0.0,0.0,0.8208,0.7681,0.738,0.73,0.5881,0.4707,0.4145,0.4053,0.3507,0.0,0.0,0.0,0.0,0.0,0.0,0.0,0.0,0.0,0.0,0.0,0.0,0.0,0.0,0.0,0.0,0.0,0.0,0.0,0.0,0.0,0.0,0.0,0.0,0.0,0.0,0.0,0.0,0.0,0.0,0.0,0.0,0.0,0.0,0.0,0.0,0.0,0.0,0.0,0.0,0.0,1.0843,1.0958,1.1822,1.2323,0.0,0.0,0.0,1.1811,1.2547,0.0,0.0,0.0,0.0,0.0,0.0,0.0,0.0,0.0,0.0,0.0,0.0,0.0,0.0,0.0,0.0,0.0,0.0,0.0,0.0,0.0,0.0,0.0,0.0,0.0,0.0,0.0,0.0,0.0,0.0,0.0,0.0,0.0,0.0,0.0,0.0,0.0,0.0,0.0,0.0,0.0,0.0,0.0,0.0,0.0,0.0,0.0,0.0,0.0,0.0,0.0,0.0,0.0,0.0,0.0,0.758,0.8044,0.7478,0.7152,0.7172,0.5353,0.4148,0.3813,0.3484,0.2956,0.0,0.0,0.0,0.0,0.0,0.0,0.0,0.0,0.0,0.0,0.0,0.0,0.0,0.0,0.0,0.0,0.0,0.0,0.0,0.0,0.0,0.0,0.0,0.0,0.0,0.0,0.0,0.0,0.0,0.0,0.0,0.0,0.0,0.0,0.0,0.0,0.0,0.0,0.0,0.0,0.0,0.0,1.1629,1.244,0.0,0.0,0.0,1.4068,1.3223,0.0,0.0,0.0,0.0,0.0,0.0,0.0,0.0,0.0,0.0,0.0,0.0,0.0,0.0,0.0,0.0,0.0,0.0,0.0,0.0,0.0,0.0,0.0,0.0,0.0,0.0,0.0,0.0,0.0,0.0,0.0,0.0,0.0,0.0,0.0,0.0,0.0,0.0,0.0,0.0,0.0,0.0,0.0,0.0,0.0,0.0,0.0,0.0,0.0,0.0,0.0,0.0,0.0,0.0,0.0,0.0,0.0,0.7852,0.7535,0.722,0.6874,0.5027,0.3813,0.3471,0.305,0.0,0.0,0.0,0.0,0.0,0.0,0.0,0.0,0.0,0.0,0.0,0.0,0.0,0.0,0.0,0.0,0.0,0.0,0.0,0.0,0.0,0.0,0.0,0.0,0.0,0.0,0.0,0.7531,0.0,0.0,0.0,0.0,0.0,0.0,0.0,0.0,0.0,0.0,0.0,0.0,0.0,0.0,1.1126,1.1782,1.2701,1.3209,0.0,0.0,1.4875,1.4375,1.4689,1.4832,0.0,0.0,0.0,0.0,0.0,0.0,0.0,0.0,0.0,0.0,0.0,0.0,0.0,0.0,0.0,0.0,0.0,0.0,0.0,0.0,0.0,0.0,0.0,0.0,0.0,0.0,0.0,0.0,0.0,0.0,0.0,0.0,0.0,0.0,0.0,0.0,0.0,0.0,0.0,0.0,0.0,0.0,0.0,0.0,0.0,0.0,0.0,0.0,0.0,0.0,0.0,0.0,0.0,0.0,0.0,0.7553,0.7952,0.7505,0.6433,0.4997,0.3813,0.3134,0.2872,0.2795,0.0,0.0,0.0,0.0,0.0,0.0,0.0,0.0,0.0,0.0,0.0,0.0,0.0,0.0,0.0,0.0,0.0,0.0,0.0,0.0,0.0,0.0,0.0,0.0,0.0,0.0,0.0,0.0,0.0,0.0,0.0,0.0,0.0,0.0,0.0,0.0,0.0,0.0,0.0,0.0,0.0,1.0249,1.0359,1.1802,1.2669,0.0,0.0,1.5109,1.4546,1.4514,1.4277,1.3691,0.0,0.0,0.0,0.0,0.0,0.0,0.0,0.0,0.0,0.0,0.0,0.0,0.0,0.0,0.0,0.0,0.0,0.0,0.0,0.0,0.0,0.0,0.0,0.0,0.0,0.0,0.0,0.0,0.0,0.0,0.0,0.0,0.0,0.0,0.0,0.0,0.0,0.0,0.0,0.0,0.0,0.0,0.0,0.0,0.0,0.0,0.0,0.0,0.0,0.0,0.0,0.0,0.0,0.7368,0.7519,0.722,0.6781,0.6303,0.4463,0.3235,0.2762,0.2543,0.2288,0.0,0.0,0.0,0.0,0.0,0.0,0.0,0.0,0.0,0.0,0.0,0.0,0.0,0.0,0.0,0.0,0.0,0.0,0.0,0.0,0.0,0.0,0.0,0.0,0.0,0.0,0.0,0.0,0.8873,1.0005,1.1578,0.0,0.0,0.0,0.0,0.0,0.0,0.0,0.0,0.0,0.0,1.1768,1.1429,1.1989,0.0,0.0,1.3057,1.349,1.3432,1.3222,1.3038,1.3207,1.3234,0.0,0.0,0.0,0.0,0.0,0.0,0.0,0.0,0.0,0.0,0.0,0.0,0.0,0.0,0.0,0.0,0.0,0.0,0.0,0.0,0.0,0.0,0.0,0.0,0.0,0.0,0.0,0.0,0.0,0.0,0.0,0.0,0.0,0.0,0.0,0.0,0.0,0.0,0.0,0.0,0.0,0.0,0.0,0.0,0.0,0.0,0.0,0.0,0.0,0.0,0.0,0.0,0.7059,0.7156,0.6737,0.6266,0.5704,0.403,0.2892,0.2516,0.2441,0.2113,0.0,0.0,0.0,0.0,0.0,0.0,0.0,0.0,0.0,0.0,0.0,0.0,0.0,0.0,0.0,0.0,0.0,0.0,0.0,0.0,0.0,0.0,0.0,0.0,0.0,0.0,0.0,0.0,0.934,1.0359,1.1649,0.0,0.0,0.0,0.0,0.0,0.0,0.0,0.0,0.0,0.0,1.2383,1.2183,1.1993,1.2034,1.2542,1.2689,1.2894,1.3333,1.2867,1.2593,1.301,0.0,0.0,0.0,0.0,0.0,0.0,0.0,0.0,0.0,0.0,0.0,0.0,0.0,0.0,0.0,0.0,0.0,0.0,0.0,0.0,0.0,0.0,0.0,0.0,0.0,0.0,0.0,0.0,0.0,0.0,0.0,0.0,0.0,0.0,0.0,0.0,0.0,0.0,0.0,0.0,0.0,0.0,0.0,0.0,0.0,0.0,0.0,0.0,0.0,0.0,0.0,0.0,0.0,0.0,0.6093,0.6905,0.6486,0.4585,0.3583,0.2779,0.2408,0.2473,0.2283,0.1761,0.0,0.0,0.0,0.0,0.0,0.0,0.0,0.0,0.0,0.0,0.0,0.0,0.0,0.0,0.0,0.0,0.0,0.0,0.0,0.0,0.0,0.0,0.0,0.0,0.0,0.0,1.0335,1.1431,1.1746,0.0,0.0,0.0,0.0,0.0,0.0,0.0,0.0,0.0,0.0,1.2579,1.1703,1.1831,1.1518,1.1647,1.2492,1.3204,1.3965,1.4834,1.4073,1.3211,0.0,0.0,0.0,0.0,0.0,0.0,0.0,0.0,0.0,0.0,0.0,0.0,0.0,0.0,0.0,0.0,0.0,0.0,0.0,0.0,0.0,0.0,0.0,0.0,0.0,0.0,0.0,0.5817,0.6276,0.0,0.0,0.0,0.0,0.0,0.0,0.0,0.0,0.0,0.0,0.0,0.7575,0.778,0.0,0.0,0.0,0.0,0.0,0.0,0.0,0.0,0.0,0.0,0.0,0.0,0.6398,0.6179,0.6216,0.5633,0.4508,0.3419,0.2751,0.2297,0.1722,0.1344,0.1155,0.0,0.0,0.0,0.0,0.0,0.0,0.0,0.0,0.0,0.0,0.0,0.0,0.0,0.0,0.0,0.0,0.0,0.0,0.0,0.0,0.0,0.0,0.0,0.0,0.0,0.8543,0.0,0.0,0.0,0.0,0.0,0.0,0.0,0.0,0.0,0.0,0.0,1.3556,1.336,1.2894,1.2388,1.1432,1.1202,1.1202,0.0,0.0,0.0,0.0,0.0,0.0,0.0,0.0,0.0,0.0,0.0,0.0,0.0,0.0,2.1616,2.0764,2.1525,2.2322,2.257,0.0,0.0,0.0,0.0,0.0,0.0,0.0,0.0,0.0,0.0,0.0,0.0,0.0,0.0,0.0,0.0,0.739,0.0,0.0,0.0,0.0,0.0,0.0,0.0,0.0,0.9417,0.931,0.837,0.85,0.7832,0.0,0.6492,0.6505,0.0,0.0,0.0,0.0,0.0,0.0,0.0,0.0,0.6016,0.5629,0.5579,0.495,0.3817,0.3171,0.2518,0.1858,0.0963,0.0513,0.0482,0.1272,0.223,0.0,0.0,0.0,0.0,0.0,0.0,0.0,0.0,0.0,0.0,0.0,0.0,0.0,0.0,0.0,0.0,0.0,0.0,0.0,0.0,0.0,0.0,0.0,0.9136,0.0,0.0,0.0,0.0,0.0,0.0,0.0,0.0,0.0,1.3766,1.4007,1.3972,1.3227,1.3,1.2653,1.1853,0.0,0.0,0.0,0.0,0.0,0.0,0.0,1.3641,1.4619,1.428,1.4508,1.6494,1.8257,1.9559,1.9947,0.0,0.0,2.2368,2.3247,2.4078,2.4218,2.4553,2.4709,2.4741,2.5571,2.6377,0.0,0.0,0.0,0.0,0.0,0.0,0.0,0.0,0.7369,0.7677,0.0,0.8043,0.0,0.0,0.0,0.0,0.0,0.0,0.0,0.0,1.0506,1.0121,0.8827,0.856,0.79,0.6996,0.7001,0.7759,0.8969,0.8152,0.0,0.0,0.0,0.0,0.0,0.0,0.5489,0.4631,0.5079,0.4418,0.2724,0.2839,0.2294,0.0873,0.0318,0.0,0.0,0.0,0.0278,0.0696,0.2936,0.0,0.0,0.0,0.0,0.0,0.0,0.0,0.0,0.0,0.0,0.0,0.0,0.0,0.0,0.0,0.0,0.0,0.0,0.0,0.0,0.8844,0.0,0.0,0.0,0.0,0.0,0.0,0.0,0.0,0.0,0.0,1.5041,1.4805,1.4468,1.377,0.0,0.0,0.0,0.0,1.2697,1.5451,1.5894,1.6056,1.6673,1.5002,1.401,1.4778,0.0,0.0,1.6608,1.8815,2.0465,2.1278,2.317,2.4499,2.3826,2.4598,2.5417,2.5543,2.6076,2.6446,2.6321,2.7158,2.8055,1.1796,0.0,0.0,0.0,0.0,0.7577,0.7913,0.8293,0.8932,0.9236,0.9369,0.9794,0.0,0.0,0.0,0.0,0.0,0.0,1.0988,1.1553,1.1382,1.0851,1.0185,0.952,0.8703,0.7778,0.8326,0.9094,0.99,1.009,0.9543,0.8362,0.0,0.0,0.0,0.0,0.641,0.5561,0.5152,0.4314,0.3155,0.2742,0.1805,0.0322,0.0106,0.0,0.0,0.0,0.0095,0.0182,0.0867,0.0,0.0,0.0,0.0,0.0,0.0,0.0,0.0,0.0,0.0,0.0,0.0,0.0,0.0,0.0,0.0,0.0,0.0,0.0,0.7811,0.8711,0.9947,0.0,0.0,0.0,0.0,0.0,0.0,0.0,0.0,0.0,1.6252,1.6147,1.5515,0.0,0.0,1.3939,1.3611,1.3256,1.3396,1.4731,0.0,0.0,0.0,1.4128,1.4109,1.5256,1.6295,1.7269,1.796,2.0242,2.2005,2.2146,2.4314,2.5762,2.492,2.5501,2.6219,2.6645,2.6969,2.733,2.7592,2.8447,2.9295,1.4865,1.2095,1.0648,0.9925,0.9717,0.9878,1.0107,1.0512,1.0784,1.0972,1.1045,1.141,1.1353,1.1071,1.1617,0.0,0.0,0.0,1.2361,1.2885,1.211,1.1474,1.0858,1.0121,0.9367,0.8846,0.9306,1.0153,1.1178,1.1347,1.1135,1.0479,0.0,0.0,0.6655,0.7034,0.6508,0.5265,0.4822,0.4065,0.29,0.2422,0.1275,-0.064,-0.0213,0.0,0.0,0.0,0.0,0.0,0.0,0.0691,0.0,0.0,0.0,0.0,0.0,0.0,0.0,0.0,0.0,0.0,0.0,0.3755,0.0,0.0,0.0,0.0,0.5906,0.709,0.8271,0.9405,0.0,0.0,0.0,0.0,0.0,0.0,0.0,1.6077,1.5804,1.5825,1.6598,1.6686,1.5871,1.3655,1.3651,1.3678,1.3419,0.0,1.409,1.5319,1.5639,1.5408,1.4537,1.387,1.3879,1.476,1.6932,1.8439,1.9083,2.0948,2.2652,2.3333,2.5218,2.6465,2.5438,2.6339,2.7037,2.6772,2.7153,2.7621,2.8373,2.9367,3.023,1.7558,1.649,1.4384,1.3185,1.2662,1.2734,1.2915,1.3184,1.2854,1.2687,1.2597,1.2822,1.3076,1.338,1.3425,0.0,0.0,1.3553,1.3651,1.397,1.2952,1.2057,1.1304,1.0507,1.0132,1.0045,1.0209,1.1077,1.2527,1.2098,1.232,1.336,1.1271,0.9456,0.8014,0.757,0.6344,0.427,0.4403,0.365,0.2174,0.1824,0.0542,-0.1708,-0.0854,0.0,0.0,0.0,-0.01,0.0,-0.019,-0.0364,-0.0609,0.0,0.0,0.0,0.0,0.0,0.0,0.0,0.0,0.0,0.0,0.0,0.0,0.0,0.0,0.0,0.6587,0.0,0.8343,1.0227,0.0,0.0,0.0,1.2557,1.2781,1.3352,1.3971,1.4657,0.0,0.0,0.0,0.0,1.5607,1.2032,1.1911,1.2532,1.3012,1.3392,1.4548,1.6549,1.679,1.6445,1.5189,1.4132,1.3569,1.3962,1.6224,1.8279,1.9456,2.1349,2.2822,2.3961,2.585,2.684,2.5814,2.6902,2.7706,2.651,2.6958,2.7925,2.9142,3.0152,3.0936,1.9869,1.8797,1.8144,1.6913,1.5401,1.4995,1.4989,1.5177,1.4732,1.4164,1.358,1.4118,1.4815,1.5512,1.5601,1.5851,1.6086,1.6017,1.6,1.5895,1.4601,1.381,1.3375,1.2572,1.1983,1.1787,1.198,1.2337,1.2778,1.2768,1.2921,1.3326,1.2134,1.0847,0.9461,0.84,0.7444,0.6553,0.528,0.3483,0.122,0.0632,-0.0321,-0.1708,-0.2668,-0.2343,-0.0636,-0.0616,-0.0604,-0.0602,-0.1643,-0.1856,-0.0979,0.025,0.0,0.0,0.0,0.0,0.0,0.0,0.0,0.0,0.0,0.3789,0.4989,0.0,0.7068,0.0,0.585,0.5538,0.5965,0.7446,0.0,0.0,1.1659,1.2598,1.3454,1.3,1.3364,1.5134,1.4876,1.4871,1.582,1.5968,1.4925,1.2172,1.3029,1.4103,1.4229,1.3961,1.4447,1.6139,1.5361,1.4316,1.4051,1.4051,1.39,1.3901,1.6213,1.8477,1.9831,2.1643,2.3363,2.4654,2.6096,2.6809,2.6158,2.6472,2.6889,2.7388,2.8401,2.9397,2.9903,3.0719,3.1249,2.134,2.0213,1.9871,1.8977,1.7804,1.7697,1.7484,1.7209,1.7014,1.6398,1.5525,1.6076,1.6743,1.7455,1.7566,1.7648,1.7609,1.7609,1.7267,1.6664,1.5596,1.4816,1.433,1.3593,1.323,1.3171,1.3411,1.3571,1.3646,1.348,1.3391,1.3336,1.1724,1.0453,0.9497,0.8882,0.7996,0.6667,0.4458,0.247,0.0809,-0.0314,-0.1266,-0.2268,-0.3112,-0.2686,-0.1117,-0.1469,-0.154,-0.1457,-0.2171,-0.2196,-0.1592,0.017,0.0977,0.0,0.0,0.0,0.0,0.0,0.0,0.0,0.0,0.0,0.0,0.0,0.7816,0.0,0.5708,0.0,0.6093,0.7481,0.8883,0.9708,1.0729,1.1656,1.2302,1.1919,1.2342,1.3955,1.3937,1.4071,1.4896,1.5149,1.4428,1.2102,1.2759,1.3406,1.3561,1.3673,1.4219,1.5317,1.4513,1.3464,1.3358,1.3671,1.4254,1.4809,1.6806,1.9016,2.0554,2.2271,2.4029,2.5535,2.6803,2.7441,2.6619,2.7148,2.7718,2.811,2.925,3.017,3.0555,3.0846,3.1267,2.2319,2.1176,2.0668,2.0223,1.9934,2.0548,2.0004,1.8798,1.8859,1.8377,1.7545,1.818,1.8671,1.9082,1.9469,1.9354,1.8824,1.8757,1.822,1.7198,1.6419,1.5579,1.4887,1.4314,1.4243,1.4474,1.4646,1.4592,1.4525,1.4125,1.3705,1.3256,1.0875,0.9393,0.8837,0.9058,0.8087,0.5742,0.3263,0.158,0.0906,-0.0519,-0.1652,-0.2267,-0.2392,-0.2079,-0.1338,-0.1938,-0.2187,-0.1761,-0.1821,-0.1968,-0.2026,0.0438,0.1544,0.0,0.2954,0.0,0.0,0.0,0.0,0.0,0.0,0.0,0.0,0.7363,0.8019,0.6823,0.553,0.5389,0.6695,0.8165,0.8903,0.8704,0.9666,1.0427,1.0599,1.074,1.1256,1.2291,1.2957,1.3509,1.3952,1.4549,1.4077,1.2373,1.2315,1.2585,1.2315,1.2958,1.3857,1.4292,1.4045,1.3538,1.3101,1.3671,1.4638,1.5786,1.7773,1.977,2.1461,2.3148,2.49,2.6414,2.7522,2.7833,2.6902,2.8097,2.902,2.8986,2.9805,3.0473,3.0843,3.0972,3.1027,2.3165,2.2344,2.1874,2.1648,2.1627,2.2734,2.1277,1.8161,1.8039,1.8107,1.8351,1.9264,1.9934,2.0427,2.1012,2.1095,2.0737,2.0182,1.9596,1.9003,1.7997,1.7198,1.6507,1.6158,1.5895,1.5522,1.5567,1.5156,1.4275,1.4332,1.3788,1.2819,1.1229,0.9758,0.8488,0.0,0.0,0.0,0.416,0.3041,0.1774,0.139,0.0892,0.049,-0.0295,0.0,-0.0974,-0.0761,-0.0377,0.0378,-0.0278,0.0,0.0,0.0,0.0,0.0,0.0,0.0,0.0,0.0,0.0,0.0,0.2671,0.3894,0.5611,0.5035,0.4592,0.4497,0.4195,0.4002,0.4067,0.5291,0.6518,0.7487,0.8677,0.9795,1.0436,1.0856,1.1309,1.1854,1.254,1.3138,1.3713,1.415,1.3822,1.2269,1.3199,1.3587,1.2353,1.2513,1.3166,1.4144,1.3813,1.3145,1.3013,1.3947,1.5083,1.6466,1.854,2.0712,2.2403,2.3969,2.5495,2.6877,2.7551,2.7849,2.7865,2.8543,2.9219,2.997,3.0248,3.062,3.112,3.1249,3.1469,2.3799,0.0,2.2358,2.1698,0.0,2.1877,2.0744,1.8397,2.002,2.0309,1.9765,2.0576,2.0978,2.118,2.1392,2.1388,2.1058,1.9923,1.9295,1.9104,1.8233,1.762,1.7404,1.7079,1.6682,1.6351,1.5931,1.5386,1.4805,1.42,1.3464,1.268,1.0952,0.949,0.8238,0.7282,0.6159,0.4818,0.4675,0.3939,0.2589,0.1908,0.1693,0.2034,0.0,0.0,0.0,0.0,0.0,0.0,0.0,0.0,0.0,0.0,0.0,-0.0281,0.2838,0.3823,0.1736,0.1156,0.0787,0.0412,0.3263,0.5689,0.7094,0.4466,0.286,0.2934,0.2962,0.2986,0.3249,0.4482,0.5714,0.6928,0.832,0.9394,1.0143,1.0791,1.1268,1.1869,1.2562,1.314,1.3708,1.4173,1.3828,1.2376,1.3231,1.3775,1.2797,1.3137,1.385,1.4198,1.348,1.3185,1.3883,1.4649,1.5819,1.7486,1.9393,2.1288,2.2739,2.454,2.5982,2.6972,2.7584,2.813,2.8279,2.8942,2.9872,3.0548,3.0954,3.1253,3.1632,3.1689,3.1744,2.4073,2.2996,2.2405,2.1428,2.0316,2.0667,2.0313,1.9611,0.0,0.0,0.0,2.1746,2.205,2.1907,2.1733,2.1558,2.1308,1.9855,1.921,1.9315,1.8464,1.8081,1.8152,1.756,1.7235,1.6978,1.6104,1.556,1.531,1.4188,1.3222,1.2433,1.0636,0.9016,0.7778,0.6219,0.5196,0.4728,0.4903,0.4347,0.2917,0.1831,0.1702,0.258,-0.0097,-0.1259,-0.0383,-0.1695,-0.1884,-0.0576,-0.1731,-0.2298,-0.2084,-0.0977,-0.0298,-0.0299,0.1516,0.2057,0.0627,0.1988,0.1697,-0.1427,0.2952,0.6189,0.7017,0.3741,0.1692,0.1817,0.1962,0.2346,0.3451,0.4312,0.5414,0.6766,0.8116,0.9161,0.9935,1.071,1.1343,1.1888,1.2613,1.331,1.3849,1.421,1.4009,1.2643,1.3287,1.3905,1.3356,1.4164,1.4638,1.4215,1.3673,1.3595,1.4867,1.5615,1.6748,1.8672,2.0405,2.1938,2.3328,2.5026,2.6487,2.7137,2.7865,2.8296,2.8511,2.9526,3.053,3.0946,3.1515,3.2059,3.1906,3.2074,3.2221,2.3468,2.3071,2.204,2.1695,2.1816,2.2051,2.2315,2.2527,2.153,2.0988,2.0924,2.2452,2.3017,2.2858,2.3197,2.3384,2.3416,2.2129,2.15,0.0,2.0437,1.9705,1.909,1.8259,1.7735,1.7379,1.6861,1.5997,1.4924,1.4597,1.3688,1.2015,1.0552,0.885,0.6894,0.5575,0.483,0.4822,0.4749,0.4023,0.256,0.1553,0.1152,0.1429,0.086,0.0289,-0.0195,0.0097,0.0392,0.0599,0.0,-0.0403,-0.051,-0.0832,-0.1053,-0.1476,-0.1177,-0.0866,-0.0542,0.0109,-0.011,-0.1341,0.0,0.1055,0.1167,0.0714,0.0485,0.1106,0.1604,0.2469,0.3697,0.4435,0.554,0.6766,0.8116,0.9192,0.981,1.0742,1.1374,1.1818,1.2405,1.3185,1.3761,1.3923,1.3593,1.2704,1.3587,1.5229,1.5352,1.5158,1.4798,1.4535,1.4356,1.4725,1.5726,1.6291,1.7508,1.9877,2.147,2.2917,2.4367,2.5859,2.7105,2.7567,2.7981,2.8511,2.9044,2.983,3.0548,3.0981,3.155,3.1969,3.1781,3.2331,3.29,2.4096,2.3523,2.2237,2.1791,2.194,2.2194,2.2367,2.2454,2.1948,2.1611,2.1712,2.294,2.3193,2.2742,2.275,2.2704,2.2654,2.1109,2.0782,2.1365,2.025,1.977,1.9617,1.8529,1.7666,1.7014,1.6319,1.5546,1.4698,1.4195,1.3425,1.2301,1.0286,0.852,0.6846,0.5485,0.4839,0.4742,0.4203,0.3288,0.1994,0.0691,-0.0098,-0.0295,-0.0397,-0.0604,-0.1025,-0.0828,-0.0836,-0.0949,-0.1277,-0.1497,-0.1495,-0.1628,-0.1753,-0.1753,-0.1767,-0.1559,-0.1123,-0.0794,-0.0572,-0.0691,-0.0236,0.0,0.0,0.0,0.0,0.037,0.0741,0.1727,0.3694,0.4803,0.5912,0.7261,0.836,0.9088,0.9576,1.0651,1.1426,1.1848,1.2437,1.3095,1.3875,1.3823,1.3505,1.2429,1.3388,1.4566,1.5756,1.5756,1.5325,1.4903,1.4832,1.5159,1.6018,1.6734,1.7991,2.0213,2.1859,2.3243,2.4766,2.6249,2.7185,2.7584,2.7981,2.8544,2.9278,3.0148,3.0751,3.1247,3.1774,3.212,3.2239,3.2845,3.3395,2.4324,2.3606,2.2281,2.1632,2.1553,2.2013,2.1975,2.1728,2.2329,2.2431,2.2244,2.3031,2.321,2.2869,2.23,2.2024,2.1852,2.0433,2.0327,2.1129,2.0172,1.9788,1.9944,1.8664,1.7567,1.6704,1.5903,1.5124,1.4531,1.3736,1.2987,1.2023,1.0067,0.8277,0.7088,0.5598,0.4738,0.4336,0.3229,0.2221,0.1213,-0.0101,-0.1012,-0.1629,-0.1648,-0.1678,-0.1712,-0.2064,-0.2301,-0.2531,-0.2674,-0.2676,-0.2535,-0.2451,-0.2247,-0.1804,-0.1805,-0.1705,-0.1501,-0.1287,-0.0942,-0.0471,-0.012,0.0,0.0,0.0,0.0,0.0,0.0,0.0986,0.2954,0.4947,0.6438,0.7541,0.8436,0.905,0.9379,1.0452,1.1327,1.1724,1.2312,1.2964,1.355,1.3823,1.3538,1.2967,1.2879,1.3815,1.542,1.6084,1.5886,1.5461,1.531,1.5735,1.6301,1.7017,1.8412,2.0491,2.1859,2.3379,2.4887,2.6398,2.7334,2.7716,2.813,2.8693,2.9378,3.0281,3.0972,3.1389,3.2142,3.2771,3.29,3.3321,3.3725,2.3236,2.2546,2.1552,2.0871,2.0691,2.1757,2.186,2.1433,2.2193,2.2217,2.1863,2.2462,2.3265,2.3876,2.2509,2.2299,2.2946,2.2061,2.1688,2.1677,2.116,2.0632,1.9966,1.8664,1.765,1.7009,1.6121,1.5312,1.4436,1.3868,1.2655,1.0755,0.9682,0.8527,0.7198,0.5627,0.4332,0.3327,0.1814,0.0706,0.0202,-0.0505,-0.112,-0.1658,-0.166,-0.1689,-0.185,-0.2075,-0.2203,-0.2235,-0.28,-0.28,-0.2351,-0.2688,-0.2596,-0.1832,-0.1836,-0.1966,-0.1879,-0.1884,-0.1888,-0.177,-0.0718,0.0,0.0,0.0,0.0,0.0,0.0,0.0,0.1355,0.4114,0.6156,0.6781,0.8237,0.9276,0.9522,1.0344,1.1185,1.1754,1.218,1.2576,1.3269,1.3419,1.3628,1.4048,1.3697,1.4173,1.5416,1.5999,1.6188,1.6178,1.631,1.6593,1.7026,1.759,1.8832,2.1032,2.2271,2.3652,2.5307,2.6532,2.7467,2.7998,2.8263,2.8677,2.9611,3.0432,3.1052,3.1595,3.234,3.3248,3.3578,3.3835,3.3835,2.3441,2.2738,2.131,2.0312,1.9903,2.1124,2.1223,2.0529,2.1731,2.2421,2.2738,2.276,2.2638,2.2573,2.2105,2.2009,2.2055,2.1856,2.1794,2.1736,2.1206,2.07,1.9987,1.8654,1.7472,1.659,1.6021,1.5178,1.4158,1.3417,1.2148,1.0454,0.9621,0.8549,0.7123,0.5336,0.4131,0.383,0.2118,0.0812,-0.0,-0.0821,-0.1451,-0.1686,-0.1704,-0.1831,-0.1857,-0.2098,-0.2229,-0.2468,-0.2914,-0.3026,-0.2802,-0.2914,-0.2824,-0.2184,-0.1992,-0.1899,-0.2032,-0.205,-0.2061,-0.206,-0.1463,-0.0856,0.0,0.0,0.0,0.0,0.0741,0.1238,0.137,0.3891,0.5942,0.662,0.7816,0.8922,0.9441,1.024,1.0939,1.1747,1.2048,1.2576,1.3153,1.3149,1.3498,1.424,1.4189,1.4332,1.547,1.5895,1.6188,1.6178,1.632,1.6593,1.7168,1.7449,1.8832,2.0894,2.2271,2.3515,2.5577,2.6934,2.7716,2.8263,2.8395,2.8942,2.9946,3.0373,3.09,3.1622,3.2748,3.3633,3.378,3.4385,3.4605,2.3206,2.2427,2.0921,1.9737,1.9056,2.0415,2.0429,1.9836,2.1175,2.2193,2.2705,2.2588,2.2078,2.1426,2.1683,2.1641,2.138,2.1652,2.1606,2.1364,2.1098,2.0571,1.9813,1.8468,1.735,1.6377,1.5793,1.4992,1.3868,1.2889,1.1807,1.0557,0.9507,0.8503,0.7123,0.5236,0.4246,0.4062,0.2746,0.1441,0.021,-0.0843,-0.1591,-0.1719,-0.1738,-0.1753,-0.1763,-0.2117,-0.2468,-0.2692,-0.3026,-0.3138,-0.3026,-0.3026,-0.2828,-0.2316,-0.2029,-0.1944,-0.2065,-0.1964,-0.1977,-0.1977,-0.1853,-0.1359,-0.0741,-0.0247,0.0,0.0,0.0864,0.1242,0.176,0.3794,0.5612,0.6198,0.7523,0.8762,0.9502,1.0032,1.0733,1.1622,1.2048,1.2492,1.3128,1.3222,1.3359,1.4106,1.4189,1.4332,1.5186,1.5753,1.6037,1.6188,1.6178,1.6461,1.7168,1.7721,1.8971,2.0894,2.2545,2.406,2.5727,2.6918,2.7849,2.8263,2.8543,2.899,2.9739,3.018,3.1067,3.207,3.3048,3.3872,3.4,3.4844,3.5229,2.2022,2.1341,2.0019,1.9109,1.8613,1.9712,1.9734,1.9159,2.0752,2.122,2.1086,2.1813,2.1757,2.1179,2.1765,2.1719,2.1407,2.1681,2.1319,2.0546,2.0834,2.0462,1.9309,1.8037,1.7151,1.659,1.5575,1.4631,1.3796,1.2608,1.158,1.0754,0.9494,0.8315,0.7135,0.5541,0.4572,0.4017,0.3311,0.2316,0.0867,-0.0327,-0.12,-0.1639,-0.1749,-0.1765,-0.1899,-0.2356,-0.2694,-0.2694,-0.3258,-0.3258,-0.2807,-0.2921,-0.2851,-0.2351,-0.2061,-0.1974,-0.1973,-0.1975,-0.1977,-0.1977,-0.1359,-0.1236,-0.1483,-0.0617,0.0,0.0,0.0247,0.0621,0.2023,0.396,0.53,0.5639,0.7563,0.895,0.9643,0.9896,1.0711,1.1512,1.1916,1.2414,1.3262,1.336,1.3522,1.3924,1.4181,1.4617,1.4901,1.5328,1.5753,1.6037,1.6178,1.6461,1.7168,1.8002,1.9518,2.1308,2.3092,2.4752,2.5846,2.6934,2.76,2.8263,2.8675,2.9087,2.9402,3.0373,3.1532,3.2548,3.3422,3.4,3.4348,3.4733,3.5174,2.1301,2.0258,1.9449,1.8741,1.8337,1.9017,1.9061,1.8843,2.0272,2.1083,2.1506,2.2295,2.256,2.232,2.2831,2.2352,2.1221,2.1217,2.1158,2.0879,2.0614,2.0249,1.9729,1.8151,1.7297,1.6987,1.5622,1.4557,1.376,1.2733,1.1693,1.0772,0.9616,0.8428,0.7147,0.55,0.4424,0.4037,0.2936,0.171,0.0873,0.0109,-0.0659,-0.111,-0.1557,-0.1783,-0.1794,-0.2266,-0.2496,-0.2694,-0.2974,-0.3109,-0.2972,-0.2789,-0.2596,-0.2392,-0.2198,-0.1977,-0.1977,-0.1977,-0.1977,-0.1977,-0.0988,-0.0494,-0.0617,-0.0247,0.0372,0.0999,0.0496,0.0626,0.2059,0.362,0.481,0.5572,0.7222,0.8723,0.9256,0.9661,1.0326,1.1247,1.1916,1.2672,1.3014,1.3295,1.3465,1.3693,1.4115,1.4466,1.4759,1.5186,1.5603,1.5753,1.6037,1.632,1.6875,1.8131,1.9646,2.1446,2.3092,2.4617,2.5981,2.72,2.813,2.8263,2.8675,2.9355,2.9872,3.0962,3.2133,3.292,3.3817,3.4257,3.477,3.51,3.554,2.0471,1.9266,1.8817,1.8467,1.8208,1.864,1.8823,1.8939,2.0165,2.099,2.1561,2.2565,2.2938,2.2804,2.3228,2.2734,2.1458,2.1287,2.1209,2.1134,2.0613,2.0157,1.9569,1.8252,1.7436,1.6891,1.5589,1.443,1.3648,1.2677,1.1609,1.0491,0.9453,0.845,0.7308,0.5551,0.4571,0.3998,0.2564,0.1409,0.088,0.0331,-0.0332,-0.0895,-0.1458,-0.1794,-0.1795,-0.2156,-0.2392,-0.2612,-0.276,-0.289,-0.2999,-0.2489,-0.2291,-0.2294,-0.2081,-0.1977,-0.1977,-0.1977,-0.1977,-0.1978,-0.1242,-0.0498,0.0,0.0,0.0,0.1516,0.1383,0.1265,0.2212,0.3784,0.4975,0.5612,0.7116,0.8456,0.925,0.9528,1.0193,1.1247,1.2041,1.2648,1.3076,1.3254,1.3441,1.362,1.4082,1.4324,1.4617,1.4901,1.5319,1.5603,1.5753,1.6178,1.7007,1.8401,1.9646,2.1446,2.3788,2.5158,2.5981,2.7334,2.8263,2.8395,2.8908,2.9757,3.0688,3.1673,3.2629,3.3367,3.3853,3.4293,3.4844,3.543,3.5742,1.9485,1.8422,1.8159,1.8167,1.8226,1.8546,1.8956,1.9477,2.0398,2.0784,2.0965,2.2452,2.2745,2.2247,2.276,2.2585,2.2014,2.1913,2.1584,2.1037,2.093,2.0096,1.8903,1.8244,1.7336,1.626,1.5257,1.4353,1.3483,1.2521,1.1421,1.0049,0.9031,0.832,0.784,0.5916,0.4853,0.4209,0.2726,0.1433,0.0894,0.0336,-0.0224,-0.0785,-0.1458,-0.1794,-0.1795,-0.2023,-0.2268,-0.2404,-0.2727,-0.2945,-0.2667,-0.2261,-0.1933,-0.206,-0.1962,-0.1975,-0.1977,-0.1977,-0.1853,-0.186,-0.1879,-0.1135,0.0,0.0,0.0507,0.1538,0.2038,0.2173,0.2486,0.4601,0.5942,0.5759,0.7245,0.8723,0.9395,0.9661,1.0199,1.1527,1.2188,1.2515,1.2933,1.3254,1.3433,1.3587,1.3774,1.4047,1.4332,1.4617,1.4901,1.5319,1.5753,1.6178,1.7419,1.8809,2.0063,2.1584,2.406,2.5996,2.6264,2.72,2.7998,2.8411,2.9342,3.0079,3.1015,3.1986,3.2918,3.3539,3.3952,3.4367,3.4935,3.5449,3.5705,1.9155,1.8305,1.7973,1.7989,1.8087,1.8369,1.8792,1.9355,2.0188,2.0592,2.0907,2.1913,2.2268,2.228,2.264,2.2611,2.2092,2.2035,2.1586,2.0812,2.0553,1.9962,1.8965,1.8024,1.6977,1.5963,1.536,1.4661,1.3872,1.2714,1.1537,1.0378,0.9338,0.8411,0.7558,0.6137,0.5078,0.4252,0.2654,0.1674,0.1458,0.0561,0.0,-0.0336,-0.1234,-0.1794,-0.1795,-0.1928,-0.206,-0.2302,-0.2223,-0.2258,-0.2172,-0.2074,-0.2207,-0.2699,-0.2339,-0.2222,-0.2469,-0.1853,-0.1365,-0.1252,-0.0882,-0.0508,0.0,0.0,0.0,0.0901,0.1531,0.2174,0.2617,0.4738,0.5961,0.5499,0.7245,0.8723,0.9395,1.0193,1.0905,1.1517,1.225,1.2608,1.2696,1.303,1.3409,1.349,1.3717,1.4039,1.4047,1.4483,1.491,1.5186,1.5612,1.632,1.757,1.8949,2.0479,2.1996,2.4196,2.5996,2.6398,2.7067,2.7865,2.8693,2.9628,3.0507,3.1431,3.2301,3.3098,3.3684,3.4147,3.455,3.5064,3.5412,3.5669,1.8731,1.7975,1.799,1.8084,1.8293,1.8631,1.9177,1.9838,2.0457,2.0857,2.1247,2.2031,2.2297,2.2247,2.2491,2.2407,2.206,2.1962,2.1284,2.0423,2.0339,1.9707,1.8518,1.7184,1.6508,1.6065,1.5576,1.4807,1.3857,1.2847,1.1626,1.0117,0.94,0.8706,0.7736,0.6653,0.5678,0.4625,0.3008,0.2018,0.157,0.0673,0.0,0.0,-0.0785,-0.1346,-0.1685,-0.1588,-0.1719,-0.2095,-0.2035,-0.1951,-0.2083,-0.2092,-0.2222,-0.2592,-0.2592,-0.2469,-0.2592,-0.1852,-0.1118,-0.0756,-0.0254,0.0,0.0,0.0,0.0,0.0522,0.1167,0.1944,0.2512,0.4513,0.5727,0.5499,0.7245,0.8739,0.9436,1.0257,1.1101,1.1454,1.1993,1.2335,1.2484,1.283,1.3319,1.3514,1.3717,1.3904,1.3904,1.4332,1.4617,1.4901,1.5328,1.631,1.7721,1.9239,2.0756,2.2545,2.4345,2.5577,2.6264,2.7334,2.8147,2.901,2.9967,3.0733,3.1678,3.2414,3.3157,3.3617,3.4202,3.4587,3.5009,3.5394,3.5669,1.827,1.7565,1.8008,1.8427,1.8771,1.9195,1.9864,2.0721,2.1101,2.1375,2.1794,2.2328,2.2466,2.2169,2.2055,2.1966,2.1943,2.1731,2.0904,2.0128,1.9971,1.9377,1.7861,1.648,1.609,1.6375,1.5891,1.4825,1.3649,1.2991,1.158,0.9673,0.9236,0.8866,0.8289,0.7463,0.627,0.5119,0.3466,0.2354,0.1794,0.0785,0.0,0.0,0.0,-0.0673,-0.1459,-0.1356,-0.1374,-0.1766,-0.194,-0.2084,-0.231,-0.2083,-0.21,-0.2222,-0.2716,-0.2592,-0.2222,-0.1975,-0.1491,-0.0505,0.0,0.0,0.0,0.0,0.0395,0.1066,0.1322,0.1586,0.2673,0.4292,0.5369,0.5915,0.7675,0.9063,0.9838,1.027,1.0826,1.1396,1.1617,1.192,1.2442,1.2842,1.3153,1.3512,1.3774,1.388,1.3904,1.4189,1.4332,1.4759,1.5186,1.6593,1.7991,1.9367,2.1032,2.2969,2.4617,2.5457,2.631,2.7398,2.8411,2.9278,3.0189,3.0976,3.1735,3.2435,3.3175,3.3775,3.4293,3.4587,3.488,3.521,3.5669,1.8479,1.8034,1.8345,1.875,1.922,1.956,1.9987,2.0578,2.1354,2.1608,2.1746,2.1885,2.1978,2.1796,2.1581,2.1302,2.13,2.1666,2.0939,1.9684,1.9853,1.9126,1.7775,1.6782,1.6423,1.6665,1.5819,1.4942,1.4052,1.3113,1.1766,1.002,0.9271,0.8912,0.8541,0.7586,0.6443,0.5027,0.3357,0.2353,0.1906,0.157,0.0897,0.0,0.0,-0.0337,-0.1125,-0.1494,-0.1633,-0.1887,-0.1944,-0.1974,-0.2087,-0.2094,-0.2224,-0.2592,-0.2469,-0.2592,-0.2716,-0.2469,-0.1866,-0.1388,-0.0512,0.0,0.0,0.0,0.066,0.159,0.1981,0.2377,0.3583,0.4812,0.6065,0.7752,0.8855,0.9591,1.0104,1.0829,1.1379,1.1386,1.1703,1.2064,1.2301,1.2727,1.3232,1.3544,1.3782,1.3904,1.3904,1.4047,1.4332,1.4901,1.547,1.7007,1.8401,1.9646,2.1296,2.3256,2.4781,2.5891,2.6656,2.7541,2.8341,2.9093,3.0343,3.1149,3.1961,3.2713,3.3381,3.3915,3.4202,3.4403,3.4587,3.4899,3.5522,1.8799,1.8409,1.8563,1.8852,1.9256,1.9733,2.0143,2.0705,2.1378,2.1764,2.1801,2.172,2.1635,2.1549,2.1233,2.1164,2.1307,2.1508,2.0861,1.9949,1.922,1.8267,1.735,1.6727,1.6536,1.6477,1.57,1.4765,1.3872,1.304,1.1785,1.0416,0.9615,0.9147,0.8588,0.7974,0.6932,0.5588,0.3916,0.2688,0.2354,0.202,0.1346,0.0,0.0113,-0.0227,-0.0574,-0.0939,-0.1309,-0.1796,-0.1949,-0.1977,-0.1977,-0.1977,-0.2224,-0.2592,-0.2469,-0.2716,-0.2839,-0.3088,-0.3111,-0.2016,-0.0765,0.0,0.0,0.0525,0.145,0.1582,0.1987,0.2791,0.3996,0.5242,0.6922,0.8622,0.968,1.0052,1.0138,1.0842,1.126,1.1413,1.158,1.1992,1.1971,1.2602,1.2997,1.3483,1.3689,1.3888,1.3904,1.4189,1.4474,1.4901,1.547,1.6734,1.8412,1.9796,2.1622,2.3707,2.5183,2.6283,2.7082,2.7884,2.8619,2.9377,3.0429,3.1443,3.2138,3.2784,3.3206,3.3666,3.3915,3.4257,3.4495,3.4954,3.5559,1.914,1.8776,1.8783,1.8958,1.9308,1.9858,2.0507,2.1084,2.1555,2.1862,2.2015,2.18,2.1549,2.1336,2.122,2.1327,2.1866,2.13,2.0883,1.9974,1.883,1.7547,1.7315,1.6873,1.648,1.6092,1.5572,1.4559,1.3471,1.2809,1.1822,1.0638,1.0071,0.9441,0.8974,0.8317,0.7587,0.6478,0.4697,0.3471,0.2917,0.2251,0.1467,0.0905,0.0229,0.0,0.0,0.0,-0.0482,-0.1693,-0.1839,-0.1975,-0.1977,-0.1977,-0.1977,-0.2099,-0.2469,-0.2469,-0.2471,-0.3833,-0.4097,-0.1884,-0.0631,0.0127,0.0516,0.1308,0.1848,0.1457,0.1872,0.2818,0.4168,0.5975,0.7801,0.9097,0.9829,1.0242,1.0426,1.0709,1.1127,1.1402,1.1518,1.1674,1.2052,1.2499,1.2888,1.3547,1.3737,1.3888,1.3904,1.4047,1.4332,1.4901,1.5612,1.631,1.8131,1.9947,2.1923,2.405,2.5603,2.6663,2.7605,2.8445,2.9204,3.0001,3.0753,3.1583,3.2402,3.2824,3.3121,3.3544,3.4128,3.4348,3.4587,3.5229,3.5834,1.9073,1.9249,1.934,1.9756,2.0461,2.0848,2.1243,2.1624,2.1946,2.1992,2.1925,2.1612,2.1446,2.1279,2.1411,2.1419,2.1415,2.1317,2.1056,2.0127,1.8993,1.8279,1.7959,1.7423,1.6873,1.6287,1.5671,1.4629,1.3489,1.2535,1.1792,1.1142,1.0576,1.017,0.953,0.8893,0.8036,0.67,0.5254,0.4142,0.326,0.2385,0.1715,0.1262,0.0465,0.0,0.0,0.0,0.0,-0.0613,-0.1355,-0.1853,-0.1977,-0.1977,-0.1977,-0.1977,-0.173,-0.1729,-0.1975,-0.2347,-0.2225,-0.087,-0.0126,0.0509,0.1677,0.1962,0.2119,0.2004,0.2151,0.3096,0.4986,0.7071,0.8534,0.9469,1.0028,1.0457,1.0824,1.1136,1.1368,1.1463,1.1525,1.1851,1.2277,1.2521,1.3024,1.3611,1.3761,1.3904,1.3904,1.3904,1.4332,1.4901,1.5328,1.631,1.8703,2.0714,2.2961,2.4758,2.6052,2.7108,2.8074,2.8956,2.9478,3.011,3.078,3.1703,3.2508,3.2701,3.2981,3.3599,3.422,3.444,3.4788,3.5449,3.5812,1.9408,1.9448,1.9309,1.9801,2.0555,2.076,2.114,2.162,2.1957,2.2068,2.2067,2.19,2.1781,2.175,2.1823,2.1618,2.1338,2.1131,2.0723,1.9979,1.9252,1.8803,1.8567,1.7783,1.7011,1.6137,1.5586,1.4508,1.3233,1.2577,1.203,1.1505,1.0932,1.059,1.0139,0.9368,0.8589,0.7587,0.6033,0.4812,0.4155,0.262,0.1861,0.1644,0.1187,0.0961,0.0,0.0,0.0,0.0,0.0,-0.1236,-0.1606,-0.1853,-0.1977,-0.1977,-0.173,-0.1236,-0.1236,-0.0989,-0.0864,-0.0124,0.0626,0.1392,0.2053,0.2213,0.2245,0.2265,0.2816,0.3907,0.5964,0.7956,0.9176,0.9864,1.0272,1.0817,1.1168,1.1476,1.1599,1.1531,1.1572,1.1858,1.228,1.258,1.3024,1.3468,1.3761,1.3904,1.4047,1.4047,1.4474,1.4901,1.5186,1.6452,1.9273,2.1647,2.4178,2.5813,2.6934,2.7695,2.8456,2.9099,2.9921,3.0269,3.0674,3.1651,3.2316,3.2508,3.2877,3.3581,3.4202,3.4495,3.4954,3.5431,3.5695,1.9838,1.9554,1.9365,1.9726,2.0288,2.0381,2.0842,2.1558,2.1791,2.2121,2.2432,2.2372,2.2226,2.2298,2.2112,2.186,2.1383,2.0781,2.0323,1.9996,1.9571,1.9208,1.8872,1.8115,1.7101,1.5843,1.5447,1.4313,1.3183,1.2641,1.2308,1.18,1.1142,1.0773,1.0476,0.9699,0.8809,0.8146,0.6478,0.5162,0.4627,0.2981,0.2113,0.1924,0.1815,0.1826,0.1598,0.0986,0.0,0.0,0.0,0.0,-0.0741,-0.1359,-0.1853,-0.1853,-0.173,-0.0989,0.0,0.0,0.0,0.0,0.1253,0.2024,0.217,0.2209,0.2372,0.2926,0.362,0.5153,0.6983,0.8613,0.9567,1.0248,1.0668,1.1175,1.1476,1.1619,1.1613,1.1613,1.1599,1.1879,1.2309,1.261,1.3039,1.3325,1.3619,1.3904,1.4047,1.4189,1.4474,1.4768,1.5044,1.6396,1.9116,2.228,2.4833,2.6217,2.7408,2.7989,2.8601,2.9373,2.9911,3.0029,3.059,3.1477,3.2176,3.2526,3.3035,3.3702,3.433,3.4788,3.5121,3.5595,3.5388,2.0079,1.9924,2.0274,2.0447,2.0586,2.07,2.1302,2.2057,2.1916,2.2263,2.2971,2.275,2.2548,2.2387,2.2067,2.1627,2.1016,2.0504,2.0301,2.0161,1.9817,1.9541,1.9281,1.8535,1.7476,1.6393,1.5556,1.4387,1.3362,1.2846,1.2539,1.2154,1.1546,1.1017,1.0586,0.9926,0.9037,0.8257,0.6705,0.551,0.4338,0.3025,0.2142,0.208,0.1964,0.1969,0.1973,0.173,0.1112,0.0,0.0,0.0,0.0,0.0,-0.0988,-0.1359,0.0,0.0,0.0,0.0,0.0,0.0,0.138,0.2164,0.2187,0.2219,0.265,0.3882,0.5272,0.6698,0.7124,0.8815,0.9648,1.0297,1.0805,1.1188,1.1476,1.1619,1.1619,1.1619,1.1619,1.1777,1.2223,1.2654,1.3069,1.3356,1.3777,1.3912,1.3904,1.4047,1.4332,1.4617,1.5044,1.6719,1.8976,2.2167,2.4918,2.6095,2.7229,2.8067,2.8727,2.9376,2.9835,3.0045,3.0533,3.135,3.1999,3.2474,3.3091,3.387,3.443,3.5137,3.5285,3.5425,3.4585,1.9885,1.9742,1.9968,2.024,2.0534,2.1009,2.1521,2.2078,2.2379,2.2863,2.3212,2.3075,2.2815,2.2518,2.228,2.1665,2.0873,2.0476,2.0296,2.0167,2.0103,1.9845,1.9426,1.8586,1.7626,1.6504,1.5389,1.4459,1.355,1.3143,1.2773,1.2299,1.1782,1.1236,1.0688,1.0249,0.9588,0.8589,0.7487,0.6312,0.4943,0.3526,0.2537,0.2086,0.1977,0.1977,0.1977,0.1977,0.1606,0.0741,0.0,0.0,0.0,0.0,-0.0247,-0.0741,0.0,0.0,0.0,0.0494,0.0,0.0,0.1774,0.2056,0.2216,0.2379,0.3072,0.4571,0.5983,0.742,0.803,0.931,0.9989,1.05,1.0855,1.1325,1.1476,1.1619,1.1619,1.1619,1.1619,1.1791,1.2301,1.272,1.3115,1.3523,1.3793,1.392,1.3904,1.4047,1.434,1.523,1.5979,1.8133,2.0021,2.2589,2.5144,2.6284,2.7236,2.8064,2.8664,2.9282,2.977,2.9979,3.0584,3.122,3.21,3.279,3.3411,3.3929,3.4757,3.5321,3.5262,3.5113,3.4214,2.0006,1.983,1.9913,2.0222,2.0578,2.1286,2.1711,2.2115,2.2707,2.3329,2.3769,2.3247,2.2849,2.2638,2.2227,2.1567,2.0693,2.0508,2.036,2.0517,2.0423,2.0124,1.9542,1.8513,1.7608,1.6843,1.5431,1.4423,1.3901,1.3501,1.3088,1.2555,1.201,1.1345,1.0789,1.0359,1.0147,0.9375,0.8628,0.7472,0.5916,0.405,0.2678,0.2096,0.2099,0.21,0.2224,0.21,0.173,0.1236,0.0741,0.0,0.0,0.0,0.0247,0.0123,0.0247,0.0371,0.0744,0.0994,0.1626,0.1901,0.2057,0.2213,0.2504,0.2935,0.378,0.5393,0.6987,0.8168,0.9082,0.993,1.0339,1.0699,1.1175,1.1619,1.1619,1.1619,1.1619,1.1619,1.1619,1.1935,1.2287,1.2706,1.3077,1.3372,1.3785,1.392,1.3904,1.4047,1.4491,1.5855,1.7235,1.9723,2.1665,2.3196,2.5254,2.6561,2.7401,2.8249,2.8679,2.9139,2.9612,3.0053,3.0534,3.1279,3.2182,3.3124,3.348,3.4179,3.4957,3.5503,3.5641,3.4889,3.3886,2.0927,2.135,2.1436,2.1285,2.0995,2.1727,2.2201,2.2466,2.2555,2.3198,2.4112,2.3114,2.2713,2.2584,2.1706,2.1236,2.0948,2.0709,2.0748,2.1098,2.0781,2.0483,2.0232,1.8955,1.8034,1.7171,1.5765,1.4877,1.4451,1.38,1.3355,1.294,1.2183,1.1354,1.0712,1.0508,0.9809,0.9058,0.8495,0.718,0.5234,0.3524,0.2703,0.2342,0.2222,0.2222,0.2346,0.2099,0.1852,0.1483,0.1606,0.1359,0.1112,0.1483,0.0988,0.0741,0.0989,0.1739,0.1757,0.1637,0.1648,0.2057,0.2215,0.2233,0.2793,0.4049,0.5315,0.6187,0.8035,0.9288,0.9858,1.0438,1.0843,1.1031,1.1332,1.1476,1.1619,1.1619,1.1619,1.164,1.1791,1.1935,1.2251,1.2647,1.2896,1.334,1.3634,1.3769,1.4063,1.4223,1.5023,1.628,1.7703,2.0082,2.2137,2.3839,2.5347,2.6779,2.7665,2.8403,2.8819,2.9409,2.9889,3.0369,3.0821,3.1404,3.2347,3.3023,3.3687,3.428,3.5043,3.5605,3.6038,3.4932,3.3652,2.1174,2.1084,2.1123,2.1086,2.102,2.2055,2.251,2.259,2.3383,2.3754,2.3717,2.3075,2.253,2.2019,2.1419,2.125,2.1058,2.1034,2.1228,2.141,2.1077,2.0703,2.0111,1.908,1.8164,1.7397,1.6258,1.5349,1.4922,1.4229,1.3658,1.3213,1.2655,1.1827,1.0945,1.0834,1.0397,0.9462,0.8117,0.6744,0.529,0.3907,0.2837,0.2342,0.2469,0.2467,0.2344,0.2097,0.1975,0.1729,0.1977,0.173,0.1483,0.1607,0.1611,0.1376,0.1626,0.2008,0.2147,0.1782,0.1931,0.1952,0.2238,0.2388,0.323,0.4792,0.6367,0.7155,0.8986,0.993,1.0211,1.0643,1.0855,1.1044,1.1332,1.1476,1.1619,1.1619,1.1626,1.1798,1.1983,1.217,1.2467,1.2706,1.3169,1.3527,1.3762,1.3961,1.4272,1.4601,1.5587,1.6913,1.8373,2.0151,2.2044,2.3705,2.5285,2.6648,2.7825,2.8563,2.9201,2.9713,3.0211,3.0956,3.1643,3.2053,3.2741,3.3206,3.3761,3.4355,3.4971,3.5228,3.548,3.448,3.3194,2.1328,2.0909,2.0949,2.1018,2.1144,2.2446,2.2817,2.2666,2.3632,2.3881,2.3497,2.3026,2.2241,2.1543,2.1494,2.1441,2.128,2.1499,2.1689,2.1665,2.1371,2.0899,2.0288,1.9213,1.8328,1.7915,1.6332,1.5724,1.5513,1.4939,1.4107,1.3621,1.3231,1.2379,1.149,1.1247,1.0932,1.0111,0.8166,0.6841,0.5931,0.4288,0.3325,0.2837,0.2714,0.2837,0.2467,0.2219,0.2097,0.2099,0.1977,0.1856,0.1615,0.1743,0.2005,0.1899,0.2038,0.2046,0.2184,0.2068,0.209,0.2244,0.2399,0.2828,0.4234,0.556,0.7,0.8218,0.9513,1.0426,1.058,1.0954,1.1162,1.1332,1.1476,1.1476,1.1633,1.1818,1.1997,1.2184,1.2401,1.2809,1.2934,1.3115,1.329,1.3699,1.3921,1.4194,1.4516,1.5035,1.5766,1.6978,1.8255,1.9741,2.1355,2.3113,2.4837,2.6517,2.7695,2.88,2.9344,2.9937,3.0583,3.1366,3.2059,3.2689,3.3072,3.3506,3.3978,3.4574,3.4907,3.4676,3.4446,3.3578,3.2739,2.1637,2.1594,2.1615,2.1745,2.2029,2.2936,2.3158,2.301,2.2927,2.336,2.3547,2.2912,2.2264,2.1797,2.1644,2.1813,2.2099,2.1749,2.2008,2.2048,2.1708,2.1244,2.0467,1.9582,1.8534,1.7912,1.6537,1.6,1.584,1.5528,1.4834,1.4396,1.3644,1.2868,1.2126,1.1667,1.1397,1.0427,0.8641,0.7506,0.6467,0.5046,0.3576,0.3579,0.3332,0.3207,0.3702,0.296,0.2467,0.2467,0.2228,0.2115,0.2129,0.2139,0.2158,0.2186,0.2209,0.2349,0.236,0.2233,0.212,0.2283,0.2716,0.3557,0.4956,0.6185,0.7626,0.9282,1.0451,1.0928,1.1206,1.1368,1.1462,1.1626,1.1784,1.1818,1.2004,1.2379,1.2415,1.2582,1.2816,1.3245,1.3626,1.3675,1.3738,1.3987,1.4399,1.4683,1.5199,1.5588,1.5999,1.6722,1.7842,1.8999,2.0336,2.2223,2.4367,2.6149,2.7464,2.865,2.9549,3.0194,3.1089,3.1663,3.2492,3.3027,3.3532,3.3902,3.4208,3.4654,3.4813,3.4189,3.3289,3.2398,3.1617,2.22,2.2126,2.1977,2.2158,2.2478,2.2777,2.3304,2.3846,2.3514,2.3161,2.3234,2.2714,2.2279,2.194,2.2051,2.2143,2.2227,2.2071,2.2292,2.239,2.2011,2.1522,2.0779,1.9817,1.8836,1.8255,1.7114,1.6253,1.6249,1.5909,1.5429,1.4886,1.4239,1.347,1.2723,1.1979,1.1561,1.0799,0.9327,0.795,0.6865,0.5168,0.3822,0.3822,0.3825,0.3702,0.3825,0.3455,0.3083,0.2845,0.2742,0.2637,0.2658,0.2547,0.2578,0.2609,0.2634,0.278,0.2665,0.2535,0.2278,0.2699,0.3563,0.4722,0.611,0.7526,0.8897,1.0215,1.096,1.1422,1.1429,1.1579,1.1619,1.1928,1.2107,1.2156,1.2372,1.2758,1.3,1.303,1.3431,1.386,1.408,1.4422,1.4334,1.442,1.4803,1.5223,1.5747,1.6098,1.6346,1.6898,1.7879,1.8491,1.9822,2.1845,2.4013,2.5469,2.7071,2.8319,2.9592,3.0972,3.1878,3.2259,3.2726,3.3364,3.3702,3.4042,3.4384,3.4726,3.4071,3.3143,3.2243,3.1167,3.0788,2.2553,2.2402,2.2101,2.2176,2.2402,2.2703,2.3243,2.3831,2.3621,2.3175,2.2754,2.265,2.2437,2.2187,2.2202,2.2423,2.2391,2.2268,2.2487,2.2519,2.235,2.1919,2.1102,2.0082,1.9181,1.8638,1.7535,1.6739,1.6632,1.6312,1.5806,1.5322,1.4759,1.3926,1.3159,1.2166,1.17,1.1264,0.9875,0.8482,0.7373,0.5782,0.4189,0.4189,0.3948,0.3965,0.3852,0.3613,0.3374,0.3264,0.3034,0.3056,0.3077,0.3101,0.3138,0.3167,0.3187,0.3199,0.322,0.3228,0.3102,0.3668,0.4968,0.6144,0.7481,0.8744,0.9833,1.0875,1.1469,1.1763,1.1763,1.19,1.2043,1.2352,1.2467,1.2678,1.2912,1.3148,1.3401,1.3633,1.3906,1.4326,1.4501,1.4854,1.4974,1.4875,1.5085,1.5544,1.6108,1.6455,1.6793,1.7502,1.8207,1.8663,1.9281,2.1557,2.3527,2.4433,2.6101,2.8014,2.9353,3.09,3.2175,3.2475,3.2927,3.3551,3.3873,3.4213,3.4385,3.4556,3.3553,3.2404,3.142,3.0607,3.0055,2.2424,2.2327,2.2067,2.1859,2.2095,2.2759,2.3027,2.3218,2.3179,2.3022,2.2689,2.291,2.2804,2.2473,2.2422,2.2497,2.2628,2.2375,2.2461,2.2997,2.2605,2.1963,2.1321,2.0426,1.9612,1.8704,1.7852,1.7196,1.6903,1.6431,1.5957,1.5483,1.4888,1.4152,1.3555,1.2706,1.2225,1.1985,1.0528,0.9444,0.8227,0.6884,0.5536,0.4577,0.4209,0.4232,0.4276,0.3784,0.3673,0.3702,0.3468,0.3368,0.3399,0.3415,0.3313,0.308,0.3354,0.3495,0.377,0.4434,0.4867,0.5195,0.6387,0.7734,0.8813,0.9644,1.0455,1.1476,1.1907,1.2194,1.2338,1.2488,1.2639,1.2812,1.2939,1.3235,1.3466,1.3768,1.4041,1.4096,1.4525,1.4952,1.5105,1.5267,1.542,1.5506,1.5387,1.5716,1.6456,1.7065,1.7379,1.7788,1.8488,1.9018,1.9595,2.1383,2.3042,2.3799,2.531,2.742,2.9256,3.0728,3.1636,3.232,3.3028,3.3551,3.3958,3.4368,3.4193,3.3743,3.2775,3.1662,3.0773,2.9998,2.9425,2.2947,2.2892,2.2898,2.2887,2.2787,2.3147,2.3659,2.4202,2.3992,2.3478,2.3016,2.3105,2.2882,2.253,2.2447,2.2553,2.2756,2.2411,2.2611,2.3203,2.274,2.2237,2.1613,2.1046,2.0158,1.9233,1.8389,1.7479,1.6655,1.6431,1.6076,1.5601,1.4888,1.4172,1.3444,1.2724,1.2483,1.2122,1.1405,1.0565,0.9207,0.7744,0.643,0.5368,0.4873,0.4665,0.4855,0.4351,0.4115,0.4271,0.4034,0.3806,0.3833,0.3848,0.388,0.4034,0.444,0.54,0.6242,0.708,0.722,0.7438,0.796,0.9063,0.9553,1.0525,1.1305,1.177,1.2072,1.2352,1.2617,1.2728,1.2909,1.3169,1.3429,1.3777,1.4074,1.443,1.4726,1.4726,1.496,1.5122,1.5275,1.5641,1.5975,1.6155,1.6212,1.6247,1.6825,1.7492,1.7902,1.8201,1.8732,1.9233,2.0071,2.1256,2.238,2.3367,2.5104,2.7258,2.8927,3.028,3.1566,3.2402,3.2892,3.3399,3.3634,3.3726,3.3367,3.279,3.1632,3.0622,2.9635,2.9019,2.8778,2.3182,2.3168,2.3297,2.3346,2.3244,2.3419,2.396,2.4367,2.4043,2.3474,2.3125,2.3057,2.289,2.2612,2.2546,2.274,2.3012,2.2607,2.2664,2.322,2.2825,2.2616,2.2241,2.1542,2.0579,1.9672,1.8868,1.783,1.6773,1.6537,1.6065,1.5472,1.4888,1.4291,1.3564,1.3084,1.2603,1.2242,1.1776,1.1058,0.9842,0.8646,0.7351,0.6406,0.5575,0.4989,0.5171,0.5069,0.4686,0.4844,0.4744,0.4643,0.4657,0.4545,0.444,0.4705,0.646,0.7444,0.8319,0.8681,0.884,0.8916,0.9894,1.0266,1.0457,1.1136,1.1502,1.1969,1.2114,1.2554,1.2865,1.2991,1.3268,1.3527,1.3751,1.4252,1.4388,1.4741,1.4911,1.4927,1.5113,1.5275,1.5607,1.5992,1.637,1.6715,1.6906,1.7134,1.7327,1.7798,1.8296,1.8702,1.905,1.9364,1.9919,2.0536,2.1685,2.2748,2.4835,2.6988,2.8162,2.9318,3.0898,3.2348,3.2923,3.3276,3.3142,3.3062,3.2211,3.1347,3.0368,2.93,2.8305,2.8243,2.8364,2.3126,2.3133,2.3158,2.3246,2.3308,2.3495,2.3588,2.356,2.3299,2.3144,2.3096,2.2959,2.2904,2.2938,2.2793,2.2963,2.3249,2.2894,2.2983,2.3155,2.2963,2.2888,2.2601,2.1713,2.1018,2.023,1.9216,1.8181,1.7138,1.6549,1.5946,1.5353,1.4888,1.453,1.3933,1.3361,1.2871,1.25,1.2059,1.1339,1.0379,0.9744,0.8568,0.7501,0.6409,0.5713,0.5639,0.5405,0.5436,0.5471,0.5503,0.5506,0.5376,0.5108,0.4833,0.5778,0.8622,0.9379,0.9638,0.9745,1.0259,1.062,1.1107,1.1491,1.1409,1.1456,1.1791,1.2018,1.2336,1.267,1.3006,1.3444,1.3743,1.3897,1.4067,1.4343,1.4456,1.4627,1.4822,1.4903,1.5105,1.5292,1.5975,1.6362,1.6787,1.7262,1.765,1.7734,1.7873,1.8086,1.8598,1.8865,1.9305,1.9464,2.006,2.0602,2.1437,2.2709,2.4355,2.6307,2.7466,2.8961,3.087,3.2325,3.2862,3.2986,3.2713,3.1811,3.0568,2.9759,2.9509,2.8933,2.831,2.843,2.8577,2.3474,2.3578,2.3822,2.4033,2.4072,2.3856,2.3892,2.4079,2.3493,2.3193,2.3326,2.3236,2.3214,2.3224,2.315,2.3315,2.319,2.3116,2.3117,2.3073,2.3066,2.3114,2.2938,2.2541,2.1734,2.0829,1.9795,1.8532,1.7138,1.6549,1.6076,1.5472,1.5147,1.4789,1.436,1.3946,1.3305,1.2691,1.215,1.1693,1.1387,1.1018,0.9849,0.8654,0.7408,0.6845,0.6378,0.6137,0.6164,0.6573,0.6577,0.6577,0.6849,0.725,0.7522,0.8423,1.0109,1.0873,1.0796,1.0874,1.1235,1.1633,1.1681,1.1558,1.1606,1.177,1.1935,1.2329,1.2561,1.3044,1.342,1.3901,1.3992,1.4107,1.4326,1.4473,1.457,1.481,1.499,1.5234,1.5283,1.5829,1.6362,1.6751,1.7207,1.7752,1.8229,1.8295,1.8558,1.8602,1.8902,1.9162,1.949,1.9821,2.0364,2.1074,2.1642,2.2662,2.4288,2.5966,2.7509,2.9138,3.1011,3.2071,3.2392,3.2412,3.2118,3.0974,2.9689,2.9705,2.9467,2.89,2.8511,2.8657,2.8791,2.3849,2.3985,2.42,2.4386,2.4378,2.4216,2.419,2.4169,2.3643,2.3376,2.3409,2.3511,2.354,2.356,2.3651,2.368,2.3785,2.3565,2.3444,2.3503,2.322,2.346,2.3409,2.3043,2.2085,2.1042,2.0012,1.8752,1.7256,1.6442,1.5957,1.585,1.5428,1.5131,1.4731,1.425,1.3806,1.3163,1.2564,1.2242,1.2207,1.2202,1.1056,0.9831,0.8694,0.7985,0.7769,0.7388,0.7789,0.8051,0.8041,0.8174,0.8462,0.8884,0.9198,0.9844,1.0879,1.1427,1.1594,1.179,1.2045,1.228,1.2187,1.2187,1.2043,1.2051,1.2438,1.2692,1.3066,1.3288,1.3847,1.438,1.4268,1.4318,1.4481,1.4651,1.4859,1.49,1.5151,1.5565,1.5966,1.637,1.6925,1.7171,1.7622,1.8172,1.8455,1.8814,1.8915,1.9045,1.9219,1.9626,1.9913,2.0222,2.0802,2.142,2.1958,2.278,2.409,2.5816,2.7365,2.9076,3.0886,3.151,3.1822,3.1487,3.1093,3.0029,2.9035,2.9074,2.9294,2.892,2.8751,2.8978,2.9112,2.4323,2.4241,2.447,2.444,2.4329,2.4472,2.4366,2.4207,2.3996,2.3725,2.3568,2.3651,2.3768,2.3892,2.403,2.4159,2.4108,2.3889,2.3746,2.3838,2.3514,2.3562,2.3577,2.308,2.2401,2.1185,1.9998,1.8868,1.7373,1.6606,1.6414,1.6131,1.5871,1.5491,1.5166,1.4863,1.4423,1.3922,1.3456,1.3003,1.2758,1.2491,1.2102,1.0932,0.9946,0.9232,0.9516,0.9921,1.0459,0.9915,0.9643,0.9643,1.0111,1.0194,1.0393,1.075,1.1689,1.1963,1.2233,1.2292,1.2492,1.2708,1.2753,1.2783,1.2805,1.2481,1.272,1.3029,1.3412,1.369,1.4113,1.4517,1.4485,1.4554,1.4761,1.4843,1.501,1.5228,1.5489,1.5888,1.6265,1.6825,1.7244,1.7483,1.7807,1.8389,1.8683,1.9023,1.9484,1.9492,1.9696,1.9928,2.0238,2.0583,2.1179,2.1647,2.213,2.3055,2.4397,2.5832,2.7546,2.9152,3.062,3.1067,3.1178,3.0437,2.9827,2.9035,2.8655,2.8757,2.8789,2.8764,2.8978,2.9219,2.9325,2.4048,2.4283,2.4823,2.4892,2.4778,2.4937,2.4937,2.4683,2.4722,2.4465,2.4127,2.4146,2.4122,2.4221,2.4546,2.4519,2.4272,2.4332,2.4146,2.4015,2.3826,2.3891,2.4139,2.3734,2.2879,2.204,2.0702,1.8881,1.7433,1.6958,1.6834,1.6386,1.6342,1.6092,1.5618,1.5322,1.5052,1.4671,1.4382,1.3731,1.3311,1.3164,1.2898,1.1972,1.1101,1.0704,1.0717,1.0459,1.0585,1.0439,1.0704,1.129,1.2216,1.2104,1.2116,1.2373,1.2564,1.2677,1.2619,1.2671,1.3001,1.3024,1.3069,1.3426,1.3298,1.2941,1.2857,1.3336,1.3792,1.409,1.4374,1.4629,1.4846,1.4933,1.5026,1.5026,1.5177,1.543,1.5837,1.6195,1.6708,1.6979,1.7409,1.7842,1.8179,1.849,1.8785,1.9193,1.9926,2.0175,2.0168,2.0537,2.0732,2.1146,2.157,2.2019,2.2507,2.3745,2.5123,2.6571,2.7913,2.9443,3.0982,3.0558,3.0316,2.9646,2.9091,2.8628,2.8453,2.8591,2.8831,2.8991,2.9179,2.9406,2.9459,2.4428,2.4577,2.501,2.5057,2.4893,2.528,2.5285,2.5159,2.5271,2.5179,2.4794,2.4619,2.4632,2.4627,2.4951,2.4941,2.4656,2.4729,2.4613,2.4474,2.421,2.4235,2.4251,2.4156,2.3279,2.241,2.0486,1.8816,1.7648,1.7302,1.7058,1.6853,1.6954,1.6713,1.6118,1.5915,1.5782,1.5535,1.5144,1.4586,1.3837,1.3813,1.3613,1.2824,1.2553,1.2297,1.2165,1.1784,1.1821,1.2022,1.2224,1.2292,1.283,1.2834,1.2828,1.292,1.3138,1.309,1.3151,1.3197,1.3364,1.3546,1.3594,1.3833,1.3961,1.3629,1.3691,1.4167,1.4231,1.4517,1.4797,1.5056,1.5217,1.5328,1.5472,1.5785,1.5981,1.6221,1.6536,1.6806,1.7241,1.7436,1.7657,1.7582,1.8093,1.8678,1.8964,1.9534,2.0107,2.0684,2.0836,2.0877,2.1243,2.1514,2.1896,2.253,2.3023,2.443,2.5672,2.7108,2.8375,3.0012,3.1018,3.0345,2.9646,2.9063,2.8473,2.8399,2.8484,2.8804,2.9032,2.9245,2.9419,2.9566,2.9593,2.5041,2.5018,2.528,2.5221,2.5056,2.5643,2.5704,2.5595,2.5663,2.5625,2.5294,2.5001,2.5069,2.5163,2.5264,2.5393,2.5277,2.5017,2.4952,2.4898,2.4485,2.4511,2.4497,2.4479,2.3568,2.223,2.0442,1.9207,1.8188,1.7877,1.7591,1.7382,1.7166,1.6954,1.6509,1.6358,1.6333,1.5923,1.5574,1.5183,1.4782,1.4399,1.4006,1.3875,1.3735,1.3744,1.3761,1.3681,1.3626,1.352,1.3407,1.3352,1.3303,1.3292,1.3224,1.331,1.3373,1.3436,1.3476,1.3658,1.389,1.4115,1.4326,1.4424,1.4564,1.4646,1.472,1.4793,1.4859,1.4908,1.504,1.5267,1.5573,1.588,1.6195,1.6383,1.6617,1.6843,1.7106,1.7358,1.7536,1.7898,1.7823,1.7747,1.8202,1.8798,1.9434,1.9865,2.045,2.0856,2.1147,2.1402,2.1656,2.1952,2.2259,2.2828,2.3496,2.427,2.5545,2.7257,2.8795,2.9678,3.0224,2.9703,2.9132,2.8501,2.8453,2.8404,2.8684,2.9005,2.9192,2.9392,2.9579,2.97,2.9713,2.5167,2.5259,2.5958,2.6126,2.593,2.6229,2.6164,2.5972,2.5761,2.5625,2.5547,2.5371,2.5168,2.5163,2.5282,2.5417,2.5477,2.5252,2.5023,2.4951,2.475,2.4648,2.4616,2.4368,2.3456,2.2177,2.0815,1.9942,1.8772,1.8459,1.8167,1.7611,1.7828,1.7558,1.6937,1.6753,1.6494,1.6234,1.6104,1.5714,1.5603,1.5081,1.4399,1.4268,1.4137,1.4112,1.4201,1.4112,1.4235,1.4257,1.4164,1.398,1.3776,1.3725,1.3798,1.3815,1.388,1.3912,1.3945,1.4178,1.443,1.4675,1.4914,1.5058,1.5325,1.5402,1.5488,1.5582,1.5464,1.5286,1.537,1.5565,1.5735,1.6357,1.6672,1.6617,1.6707,1.6961,1.7309,1.7511,1.7779,1.8103,1.8125,1.8261,1.8631,1.932,1.9727,2.0189,2.0846,2.1233,2.1438,2.1728,2.2006,2.235,2.2499,2.314,2.3764,2.4392,2.5251,2.7105,2.829,2.8883,2.9063,2.9132,2.8696,2.8061,2.8207,2.8564,2.8885,2.9179,2.9339,2.9526,2.9713,2.982,2.9806]}]]